[[{"header":{"parameterUnit":"m.s-1","parameterCategory":1,"la1":30.6,"la2":28.766,"lo1":-90.7593,"lo2":-88.6598,"dy":0.0162,"dx":0.0183,"nx":116,"ny":114,"refTime":"2024-05-14T12:00:00:Z","depth":0,"parameterNumber":2,"parameterNumberName":"U-component_of_WINDS"},"data":[0.0,0.0,0.0,0.0,0.0,0.0,0.0,0.0,0.0,0.0,0.0,0.0,0.0,0.0,0.0,0.0,0.0,0.0,0.0,0.0,0.0,0.0,0.0,0.0,0.0,0.0,0.0,0.0,0.0,0.0,0.0,0.0,0.0,0.0,0.0,0.0,0.0,0.0,0.0,0.0,0.0,0.0,0.0,0.0,0.0,0.0,0.0,0.0,0.0,0.0,0.0,0.0,0.0,0.0,0.0,0.0,0.0,0.0,0.0,0.0,0.0,0.0,0.0,0.0,0.0,0.0,0.0,0.0,0.0,0.0,0.0,0.0,0.0,0.0,0.0,0.0,0.0,0.0,0.0,0.0,0.0,0.0,0.0,0.0,0.0,0.0,0.0,0.0,0.0,0.0,0.0,0.0,0.0,0.0,0.0,0.0,0.0,0.0,0.0,0.0,0.0,0.0,0.0,0.0,0.0,0.0,0.0,0.0,0.0,0.0,0.0,0.0,0.0,0.0,0.0,0.0,0.0,0.0,0.0,0.0,0.0,0.0,0.0,0.0,0.0,0.0,0.0,0.0,0.0,0.0,0.0,0.0,0.0,0.0,0.0,0.0,0.0,0.0,0.0,0.0,0.0,0.0,0.0,0.0,0.0,0.0,0.0,0.0,0.0,0.0,0.0,0.0,0.0,0.0,0.0,0.0,0.0,0.0,0.0,0.0,0.0,0.0,0.0,0.0,0.0,0.0,0.0,0.0,0.0,0.0,0.0,0.0,0.0,0.0,0.0,0.0,0.0,0.0,0.0,0.0,0.0,0.0,0.0,0.0,0.0,0.0,0.0,0.0,0.0,0.0,0.0,0.0,0.0,0.0,0.0,0.0,0.0,0.0,0.0,0.0,0.0,0.0,0.0,0.0,0.0,0.0,0.0,0.0,0.0,0.0,0.0,0.0,0.0,0.0,0.0,0.0,0.0,0.0,0.0,0.0,0.0,0.0,0.0,0.0,0.0,0.0,0.0,0.0,0.0,0.0,0.0,0.0,0.0,0.0,0.0,0.0,0.0,0.0,0.0,0.0,0.0,0.0,0.0,0.0,0.0,0.0,0.0,0.0,0.0,0.0,0.0,0.0,0.0,0.0,0.0,0.0,0.0,0.0,0.0,0.0,0.0,0.0,0.0,0.0,0.0,0.0,0.0,0.0,0.0,0.0,0.0,0.0,0.0,0.0,0.0,0.0,0.0,0.0,0.0,0.0,0.0,0.0,0.0,0.0,0.0,0.0,0.0,0.0,0.0,0.0,0.0,0.0,0.0,0.0,0.0,0.0,0.0,0.0,0.0,0.0,0.0,0.0,0.0,0.0,0.0,0.0,0.0,0.0,0.0,0.0,0.0,0.0,0.0,0.0,0.0,0.0,0.0,0.0,0.0,0.0,0.0,0.0,0.0,0.0,0.0,0.0,0.0,0.0,0.0,0.0,0.0,0.0,0.0,0.0,0.0,0.0,0.0,0.0,0.0,0.0,0.0,0.0,0.0,0.0,0.0,0.0,0.0,0.0,0.0,0.0,0.0,0.0,0.0,0.0,0.0,0.0,0.0,0.0,0.0,0.0,0.0,0.0,0.0,0.0,0.0,0.0,0.0,0.0,0.0,0.0,0.0,0.0,0.0,0.0,0.0,0.0,0.0,0.0,0.0,0.0,0.0,0.0,0.0,0.0,0.0,0.0,0.0,0.0,0.0,0.0,0.0,0.0,0.0,0.0,0.0,0.0,0.0,0.0,0.0,0.0,0.0,0.0,0.0,0.0,0.0,0.0,0.0,0.0,0.0,0.0,0.0,0.0,0.0,0.0,0.0,0.0,0.0,0.0,0.0,0.0,0.0,0.0,0.0,0.0,0.0,0.0,0.0,0.0,0.0,0.0,0.0,0.0,0.0,0.0,0.0,0.0,0.0,0.0,0.0,0.0,0.0,0.0,0.0,0.0,0.0,0.0,0.0,0.0,0.0,0.0,0.0,0.0,0.0,0.0,0.0,0.0,0.0,0.0,0.0,0.0,0.0,0.0,0.0,0.0,0.0,0.0,0.0,0.0,0.0,0.0,0.0,0.0,0.0,0.0,0.0,0.0,0.0,0.0,0.0,0.0,0.0,0.0,0.0,0.0,0.0,0.0,0.0,0.0,0.0,0.0,0.0,0.0,0.0,0.0,0.0,0.0,0.0,0.0,0.0,0.0,0.0,0.0,0.0,0.0,0.0,0.0,0.0,0.0,0.0,0.0,0.0,0.0,0.0,0.0,0.0,0.0,0.0,0.0,0.0,0.0,0.0,0.0,0.0,0.0,0.0,0.0,0.0,0.0,0.0,0.0,0.0,0.0,0.0,0.0,0.0,0.0,0.0,0.0,0.0,0.0,0.0,0.0,0.0,0.0,0.0,0.0,0.0,0.0,0.0,0.0,0.0,0.0,0.0,0.0,0.0,0.0,0.0,0.0,0.0,0.0,0.0,0.0,0.0,0.0,0.0,0.0,0.0,0.0,0.0,0.0,0.0,0.0,0.0,0.0,0.0,0.0,0.0,0.0,0.0,0.0,0.0,0.0,0.0,0.0,0.0,0.0,0.0,0.0,0.0,0.0,0.0,0.0,0.0,0.0,0.0,0.0,0.0,0.0,0.0,0.0,0.0,0.0,0.0,0.0,0.0,0.0,0.0,0.0,0.0,0.0,0.0,0.0,0.0,0.0,0.0,0.0,0.0,0.0,0.0,0.0,0.0,0.0,0.0,0.0,0.0,0.0,0.0,0.0,0.0,0.0,0.0,0.0,0.0,0.0,0.0,0.0,0.0,0.0,0.0,0.0,0.0,0.0,0.0,0.0,0.0,0.0,0.0,0.0,0.0,0.0,0.0,0.0,0.0,0.0,0.0,0.0,0.0,0.0,0.0,0.0,0.0,0.0,0.0,0.0,0.0,0.0,0.0,0.0,0.0,0.0,0.0,0.0,0.0,0.0,0.0,0.0,0.0,0.0,0.0,0.0,0.0,0.0,0.0,0.0,0.0,0.0,0.0,0.0,0.0,0.0,0.0,0.0,0.0,0.0,0.0,0.0,0.0,0.0,0.0,0.0,0.0,0.0,0.0,0.0,0.0,0.0,0.0,0.0,0.0,0.0,0.0,0.0,0.0,0.0,0.0,0.0,0.0,0.0,0.0,0.0,0.0,0.0,0.0,0.0,0.0,0.0,0.0,0.0,0.0,0.0,0.0,0.0,0.0,0.0,0.0,0.0,0.0,0.0,0.0,0.0,0.0,0.0,0.0,0.0,0.0,0.0,0.0,0.0,0.0,0.0,0.0,0.0,0.0,0.0,0.0,0.0,0.0,0.0,0.0,0.0,0.0,0.0,0.0,0.0,0.0,0.0,0.0,0.0,0.0,0.0,0.0,0.0,0.0,0.0,0.0,0.0,0.0,0.0,0.0,0.0,0.0,0.0,0.0,0.0,0.0,0.0,0.0,0.0,0.0,0.0,0.0,0.0,0.0,0.0,0.0,0.0,0.0,0.0,0.0,0.0,0.0,0.0,0.0,0.0,0.0,0.0,0.0,0.0,0.0,0.0,0.0,0.0,0.0,0.0,0.0,0.0,0.0,0.0,0.0,0.0,0.0,0.0,0.0,0.0,0.0,0.0,0.0,0.0,0.0,0.0,0.0,0.0,0.0,0.0,0.0,0.0,0.0,0.0,0.0,0.0,0.0,0.0,0.0,0.0,0.0,0.0,0.0,0.0,0.0,0.0,0.0,0.0,0.0,0.0,0.0,0.0,0.0,0.0,0.0,0.0,0.0,0.0,0.0,0.0,0.0,0.0,0.0,0.0,0.0,0.0,0.0,0.0,0.0,0.0,0.0,0.0,0.0,0.0,0.0,0.0,0.0,0.0,0.0,0.0,0.0,0.0,0.0,0.0,0.0,0.0,0.0,0.0,0.0,0.0,0.0,0.0,0.0,0.0,0.0,0.0,0.0,0.0,0.0,0.0,0.0,0.0,0.0,0.0,0.0,0.0,0.0,0.0,0.0,0.0,0.0,0.0,0.0,0.0,0.0,0.0,0.0,0.0,0.0,0.0,0.0,0.0,0.0,0.0,0.0,0.0,0.0,0.0,0.0,0.0,0.0,0.0,0.0,0.0,0.0,0.0,0.0,0.0,0.0,0.0,0.0,0.0,0.0,0.0,0.0,0.0,0.0,0.0,0.0,0.0,0.0,0.0,0.0,0.0,0.0,0.0,0.0,0.0,0.0,0.0,0.0,0.0,0.0,0.0,0.0,0.0,0.0,0.0,0.0,0.0,0.0,0.0,0.0,0.0,0.0,0.0,0.0,0.0,0.0,0.0,0.0,0.0,0.0,0.0,0.0,0.0,0.0,0.0,0.0,0.0,0.0,0.0,0.0,0.0,0.0,0.0,0.0,0.0,0.0,0.0,0.0,0.0,0.0,0.0,0.0,0.0,0.0,0.0,0.0,0.0,0.0,0.0,0.0,0.0,0.0,0.0,0.0,0.0,0.0,0.0,0.0,0.0,0.0,0.0,0.0,0.0,0.0,0.0,0.0,0.0,0.0,0.0,0.0,0.0,0.0,0.0,0.0,0.0,0.0,0.0,0.0,0.0,0.0,0.0,0.0,0.0,0.0,0.0,0.0,0.0,0.0,0.0,0.0,0.0,0.0,0.0,0.0,0.0,0.0,0.0,0.0,0.0,0.0,0.0,0.0,0.0,0.0,0.0,0.0,0.0,0.0,0.0,0.0,0.0,0.0,0.0,0.0,0.0,0.0,0.0,0.0,0.0,0.0,0.0,0.0,0.0,0.0,0.0,0.0,0.0,0.0,0.0,0.0,0.0,0.0,0.0,0.0,0.0,0.0,0.0,0.0,0.0,0.0,0.0,0.0,0.0,0.0,0.0,0.0,0.0,0.0,0.0,0.0,0.0,0.0,0.0,0.0,0.0,0.0,0.0,0.0,0.0,0.0,0.0,0.0,0.0,0.0,0.0,0.0,0.0,0.0,0.0,0.0,0.0,0.0,0.0,0.0,0.0,0.0,0.0,0.0,0.0,0.0,0.0,0.0,0.0,0.0,0.0,0.0,0.0,0.0,0.0,0.0,0.0,0.0,0.0,0.0,0.0,0.0,0.0,0.0,0.0,0.0,0.0,0.0,0.0,0.0,0.0,0.0,0.0,0.0,0.0,0.0,0.0,0.0,0.0,0.0,0.0,0.0,0.0,0.0,0.0,0.0,0.0,0.0,0.0,0.0,0.0,0.0,0.0,0.0,0.0,0.0,0.0,0.0,0.0,0.0,0.0,0.0,0.0,0.0,0.0,0.0,0.0,0.0,0.0,0.0,0.0,0.0,0.0,0.0,0.0,0.0,0.0,0.0,0.0,0.0,0.0,0.0,0.0,0.0,0.0,0.0,0.0,0.0,0.0,0.0,0.0,0.0,0.0,0.0,0.0,0.0,0.0,0.0,0.0,0.0,0.0,0.0,0.0,0.0,0.0,0.0,0.0,0.0,0.0,0.0,0.0,0.0,0.0,0.0,0.0,0.0,0.0,0.0,0.0,0.0,0.0,0.0,0.0,0.0,0.0,0.0,0.0,0.0,0.0,0.0,0.0,0.0,0.0,0.0,0.0,0.0,0.0,0.0,0.0,0.0,0.0,0.0,0.0,0.0,0.0,0.0,0.0,0.0,0.0,0.0,0.0,0.0,0.0,0.0,0.0,0.0,0.0,0.0,0.0,0.0,0.0,0.0,0.0,0.0,0.0,0.0,0.0,0.0,0.0,0.0,0.0,0.0,0.0,0.0,0.0,0.0,0.0,0.0,0.0,0.0,0.0,0.0,0.0,0.0,0.0,0.0,0.0,0.0,0.0,0.0,0.0,0.0,0.0,0.0,0.0,0.0,0.0,0.0,0.0,0.0,0.0,0.0,0.0,0.0,0.0,0.0,0.0,0.0,0.0,0.0,0.0,0.0,0.0,0.0,0.0,0.0,0.0,0.0,0.0,0.0,0.0,0.0,0.0,0.0,0.0,0.0,0.0,0.0,0.0,0.0,0.0,0.0,0.0,0.0,0.0,0.0,0.0,0.0,0.0,2.2655,0.0,0.0,0.0,0.0,0.0,0.0,0.0,0.0,0.0,0.0,0.0,0.0,0.0,0.0,0.0,0.0,0.0,0.0,0.0,0.0,0.0,0.0,0.0,0.0,1.5357,1.5407,1.5394,1.5408,1.5399,1.5399,0.0,0.0,0.0,0.0,0.0,0.0,0.0,1.3422,1.4721,1.5133,1.7106,2.0418,1.8987,0.0,0.0,0.0,0.0,0.0,0.0,0.0,0.0,0.0,0.0,0.0,0.0,0.0,0.0,0.0,0.0,0.0,0.0,0.0,0.0,0.0,0.0,0.0,0.0,0.0,0.0,0.0,0.0,0.0,0.0,0.0,0.0,0.0,0.0,0.0,0.0,0.0,0.0,0.0,0.0,0.0,0.0,0.0,0.0,0.0,0.0,0.0,0.0,0.0,0.0,0.0,0.0,0.0,0.0,0.0,0.0,0.0,0.0,0.0,0.0,0.0,0.0,0.0,0.0,0.0,0.0,0.0,0.0,0.0,0.0,0.0,0.0,0.0,2.2598,0.0,0.0,0.0,0.0,0.0,0.0,0.0,0.0,0.0,0.0,0.0,0.0,0.0,0.0,0.0,0.0,0.0,0.0,0.0,0.0,0.0,1.537,1.5369,1.5387,1.5407,1.5391,1.5396,1.5347,1.5173,1.4484,1.4004,1.3869,1.3021,1.2622,1.2805,1.2649,1.3632,1.5857,1.7626,1.9918,2.27,2.3505,0.0,0.0,0.0,0.0,0.0,0.0,0.0,0.0,0.0,0.0,0.0,0.0,0.0,0.0,0.0,0.0,0.0,0.0,0.0,0.0,0.0,0.0,0.0,0.0,0.0,0.0,0.0,0.0,0.0,0.0,0.0,0.0,0.0,0.0,0.0,0.0,0.0,0.0,0.0,0.0,0.0,0.0,0.0,0.0,0.0,0.0,0.0,0.0,0.0,0.0,0.0,0.0,0.0,0.0,0.0,0.0,0.0,0.0,0.0,0.0,0.0,0.0,0.0,0.0,0.0,0.0,2.4275,2.4577,2.4638,2.4921,2.5693,2.665,2.4972,2.4795,2.5529,2.3135,0.0,0.0,0.0,0.0,0.0,0.0,0.0,0.0,0.0,0.0,0.0,0.0,0.0,0.0,0.0,0.0,0.0,0.0,0.0,1.5304,1.5304,1.5374,1.5391,1.5391,1.5396,1.508,1.4314,1.4108,1.3674,1.292,1.2042,1.1961,1.2781,1.1995,1.3571,1.7666,2.2959,2.5793,2.6256,2.7048,2.7299,2.6957,2.4471,0.0,0.0,0.0,0.0,0.0,0.0,0.0,0.0,0.0,0.0,0.0,0.0,0.0,0.0,0.0,0.0,0.0,0.0,0.0,0.0,0.0,0.0,0.0,0.0,0.0,0.0,0.0,0.0,0.0,0.0,0.0,0.0,0.0,0.0,0.0,0.0,0.0,0.0,0.0,0.0,0.0,0.0,0.0,2.2207,2.2129,0.0,0.0,0.0,0.0,0.0,0.0,0.0,0.0,0.0,0.0,0.0,0.0,0.0,2.2884,2.3417,2.4647,2.5397,2.5644,2.6939,2.7557,2.7557,2.7635,2.7857,2.8124,2.7717,0.0,2.6159,2.5737,0.0,0.0,0.0,0.0,0.0,0.0,0.0,0.0,0.0,0.0,0.0,0.0,0.0,0.0,0.0,0.0,0.0,0.0,0.0,0.0,0.0,1.6268,1.6863,1.6865,1.7719,1.7474,1.5633,1.5028,1.3911,1.2054,1.1606,1.1582,1.2007,1.3489,1.6902,2.2269,2.5879,2.8149,2.9156,2.9479,2.9622,2.9554,2.8345,2.6671,2.4737,2.4096,0.0,0.0,0.0,0.0,0.0,0.0,0.0,0.0,0.0,0.0,0.0,0.0,0.0,0.0,0.0,0.0,0.0,0.0,0.0,0.0,0.0,0.0,0.0,0.0,0.0,0.0,0.0,0.0,0.0,0.0,0.0,0.0,0.0,0.0,0.0,0.0,0.0,0.0,0.0,2.0662,2.1259,2.1174,2.066,1.9705,0.0,0.0,0.0,0.0,0.0,0.0,0.0,0.0,0.0,2.4009,2.4116,2.4624,2.5635,2.6395,2.6823,2.696,2.838,2.9071,2.9124,2.9759,3.0129,3.021,2.968,2.9125,2.8489,2.6868,2.5211,2.3638,0.0,0.0,0.0,0.0,2.2322,2.2341,0.0,0.0,0.0,0.0,0.0,0.0,0.0,0.0,0.0,0.0,0.0,0.0,1.6033,1.7606,1.8632,1.8615,1.9756,1.9368,1.675,1.5956,1.4433,1.1845,1.1675,1.1772,1.2057,1.6072,2.0692,2.5877,2.7908,2.9566,3.0858,3.0823,3.0804,3.0782,3.0676,2.8834,2.5836,2.5834,2.4361,0.0,0.0,0.0,0.0,0.0,0.0,0.0,0.0,0.0,0.0,0.0,0.0,0.0,0.0,0.0,0.0,0.0,0.0,0.0,0.0,0.0,0.0,0.0,0.0,0.0,0.0,0.0,0.0,0.0,0.0,0.0,0.0,0.0,0.0,0.0,0.0,0.0,0.0,2.0643,2.1088,2.0526,2.1028,2.048,0.0,0.0,0.0,0.0,0.0,0.0,2.3219,2.2808,2.3465,2.5523,2.5806,2.6506,2.7667,2.8089,2.831,2.84,2.9446,3.0008,3.0184,3.1009,3.1409,3.1446,3.0833,3.0485,3.021,2.7903,2.6362,2.5363,2.4277,2.3331,2.2726,2.3654,2.3795,2.3824,0.0,0.0,0.0,0.0,0.0,0.0,0.0,0.0,0.0,0.0,0.0,1.7772,1.7772,1.9335,2.0357,2.0283,2.0366,1.9304,1.6682,1.6392,1.5236,1.2733,1.2452,1.2833,1.3851,1.9655,2.3983,2.6641,2.9416,3.0743,3.0706,3.0772,3.0806,3.08,3.0732,3.0546,3.0128,2.7737,2.6633,2.6052,0.0,0.0,0.0,0.0,0.0,0.0,0.0,0.0,0.0,0.0,0.0,0.0,0.0,0.0,0.0,0.0,0.0,0.0,0.0,0.0,0.0,0.0,0.0,0.0,0.0,0.0,0.0,0.0,0.0,0.0,0.0,0.0,0.0,0.0,0.0,0.0,0.0,0.0,0.0,2.1356,2.3113,0.0,0.0,0.0,0.0,2.1208,2.1327,2.239,2.4665,2.4821,2.5557,2.7126,2.7868,2.8392,2.871,2.9495,3.0004,3.0261,3.0327,3.0521,3.0849,3.0966,3.0984,3.093,3.0957,3.0748,3.0337,2.9345,2.778,2.5949,2.5883,2.467,2.314,2.4503,2.5004,2.5218,0.0,0.0,0.0,0.0,0.0,1.5019,1.5117,1.5122,1.5143,1.521,1.6788,1.7883,1.7841,2.04,2.2084,2.2018,2.3009,2.2752,2.0693,1.8958,1.7104,1.5106,1.392,1.5304,1.9576,2.3385,2.6577,2.9149,3.0195,3.0691,3.0704,3.0761,3.082,3.0856,3.0798,3.0742,3.0675,2.9713,2.8332,2.6648,2.4865,2.2347,0.0,0.0,0.0,0.0,0.0,0.0,0.0,0.0,0.0,0.0,0.0,0.0,0.0,0.0,0.0,0.0,0.0,0.0,0.0,0.0,0.0,0.0,0.0,0.0,0.0,0.0,0.0,0.0,0.0,0.0,0.0,0.0,0.0,0.0,0.0,0.0,0.0,2.2173,2.3561,0.0,2.1148,2.2487,2.3317,2.2894,2.4224,2.5691,2.7095,2.7195,2.7661,2.8678,2.8972,2.916,2.9242,2.975,3.005,3.0159,3.084,3.1225,3.1363,3.1924,3.217,3.2164,3.166,3.1356,3.1178,3.0322,2.9548,2.8881,2.8854,2.8,2.6841,2.7315,2.7078,2.6601,0.0,0.0,0.0,1.4902,1.4941,1.4959,1.5104,1.5022,1.5197,1.5929,1.7572,1.8866,1.9391,2.206,2.379,2.3726,2.472,2.4397,2.2062,2.0235,1.8259,1.6029,1.568,1.8198,2.3899,2.5726,2.7875,3.0432,3.0528,3.0626,3.0661,3.0723,3.0813,3.0909,3.0843,3.0821,3.0804,3.0753,2.9721,2.8041,2.7229,2.4864,2.1629,0.0,0.0,0.0,0.0,0.0,0.0,0.0,0.0,0.0,0.0,0.0,0.0,0.0,0.0,0.0,0.0,0.0,0.0,0.0,0.0,0.0,0.0,0.0,0.0,0.0,0.0,0.0,0.0,0.0,0.0,0.0,0.0,0.0,0.0,0.0,2.362,2.1978,2.3913,2.4513,2.2262,2.4351,2.5612,2.5115,2.6734,2.8031,2.8613,2.8664,2.8887,2.9369,2.9936,3.0195,3.0195,3.0994,3.1394,3.1394,3.209,3.2488,3.2639,3.3168,3.3433,3.343,3.2915,3.2603,3.2468,3.1923,3.1553,3.1235,3.0535,2.9792,2.9103,2.9039,2.8615,2.804,0.0,1.4307,1.4501,1.5083,1.5034,1.4964,1.5163,1.4977,1.5476,1.7352,1.9107,2.0826,2.2516,2.4306,2.5365,2.5313,2.5322,2.3909,2.0545,2.0074,1.8564,1.5447,1.7768,2.1416,2.6293,2.668,2.7962,3.0304,3.0498,3.0598,3.0595,3.0665,3.076,3.0899,3.0899,3.086,3.0801,3.0799,3.0758,3.0482,2.8014,2.7005,2.6445,0.0,0.0,0.0,0.0,0.0,0.0,0.0,0.0,0.0,0.0,0.0,0.0,0.0,0.0,0.0,0.0,0.0,0.0,0.0,0.0,0.0,0.0,0.0,0.0,0.0,0.0,0.0,0.0,0.0,0.0,0.0,0.0,0.0,2.1344,2.2556,2.2883,2.0999,2.4402,2.6077,2.3841,2.6315,2.798,2.7858,2.8623,2.9119,2.9153,2.9208,2.9296,2.9313,3.0839,3.1685,3.1685,3.3296,3.4093,3.4093,3.4093,3.4272,3.4579,3.4579,3.4579,3.4579,3.4579,3.4408,3.4093,3.4093,3.3628,3.2752,3.0852,2.9878,2.9541,2.9541,2.9523,2.9506,1.4213,1.4568,1.489,1.5094,1.4965,1.4885,1.5033,1.4873,1.5386,1.7227,1.9019,2.0737,2.2386,2.4167,2.5225,2.5164,2.5726,2.518,2.301,2.1597,1.9941,1.7895,2.1958,2.4969,2.6435,2.8334,2.9651,3.0305,3.0386,3.0492,3.0603,3.0667,3.0778,3.0899,3.0899,3.0899,3.088,3.0827,3.0793,3.0701,3.0007,2.8606,2.6772,0.0,0.0,0.0,0.0,0.0,0.0,0.0,0.0,0.0,0.0,0.0,0.0,0.0,0.0,0.0,0.0,0.0,0.0,0.0,0.0,0.0,0.0,0.0,0.0,0.0,0.0,0.0,0.0,0.0,0.0,0.0,2.0388,2.1838,2.2579,2.4239,2.5207,2.4629,2.6336,2.7317,2.6674,2.7893,2.8742,2.8725,2.8965,2.9394,2.9992,3.0557,3.1124,3.1654,3.2689,3.3265,3.3265,3.383,3.4093,3.4093,3.4093,3.4155,3.4233,3.4233,3.4233,3.4233,3.4233,3.4194,3.4093,3.4093,3.3955,3.3684,3.255,3.1372,3.0368,3.0368,3.0006,2.9506,1.4491,1.4768,1.4944,1.4939,1.479,1.4729,1.4856,1.4738,1.555,1.8154,1.9373,2.0928,2.3336,2.453,2.5279,2.5584,2.5126,2.4243,2.2901,2.117,2.0693,2.1863,2.4764,2.6874,2.8039,2.9487,3.0266,3.0266,3.0337,3.043,3.0603,3.0639,3.0726,3.086,3.086,3.0833,3.0824,3.0794,3.0771,3.0762,3.0797,2.9898,2.8391,2.7202,2.5712,2.4092,2.2856,2.2305,2.1994,2.0927,0.0,0.0,0.0,0.0,0.0,0.0,0.0,0.0,0.0,0.0,0.0,0.0,0.0,0.0,0.0,0.0,0.0,0.0,0.0,0.0,0.0,0.0,0.0,0.0,2.136,2.2879,2.4222,2.5512,2.6369,2.6551,2.7612,2.8298,2.8298,2.9008,2.9621,2.9946,3.0268,3.0798,3.1618,3.206,3.2485,3.291,3.3765,3.424,3.424,3.4747,3.5001,3.5001,3.5025,3.5007,3.5007,3.5007,3.5007,3.5007,3.5007,3.5007,3.5007,3.5007,3.4835,0.0,0.0,0.0,0.0,0.0,3.1127,3.0455,1.4824,1.4915,1.4859,1.4702,1.4588,1.4566,1.4642,1.4579,1.5844,1.9504,1.9939,2.1233,2.4729,2.5087,2.5431,2.6243,2.4112,2.238,2.1486,2.0306,2.1597,2.6024,2.6593,2.7866,3.0147,3.018,3.0188,3.0207,3.0266,3.0398,3.0595,3.0595,3.0664,3.0799,3.0799,3.0762,3.0706,3.0755,3.0743,3.0681,3.073,3.0778,3.0492,2.8067,2.6985,2.6488,2.4037,2.3055,2.2856,2.2449,0.0,0.0,0.0,0.0,0.0,0.0,0.0,0.0,0.0,0.0,0.0,0.0,0.0,0.0,0.0,0.0,0.0,0.0,0.0,0.0,0.0,0.0,0.0,0.0,2.2858,2.4698,2.5841,2.6495,2.6938,2.7292,2.8401,2.911,2.911,2.9871,3.0615,3.1258,3.2002,3.2696,3.3372,0.0,0.0,0.0,0.0,3.4814,3.4814,3.5694,3.6182,3.6225,3.6276,3.6301,3.6301,3.6301,3.6301,3.6301,3.6301,3.6301,3.6301,3.6301,3.5904,3.5232,3.4404,3.4093,3.4007,3.33,3.261,3.2041,1.4887,1.4935,1.4893,1.4597,1.4605,1.461,1.4478,1.4627,1.5984,1.9449,1.9904,2.1237,2.4719,2.5044,2.5361,2.623,2.4639,2.3201,2.2322,2.3828,2.5208,2.6236,2.8213,2.9555,3.0109,3.0123,3.0138,3.0199,3.0207,3.0333,3.0516,3.0563,3.0678,3.0804,3.0804,3.0763,3.0695,3.07,3.0652,3.0545,3.0545,3.0564,3.0501,2.997,2.9562,2.9231,2.8582,2.8179,2.768,2.5579,2.4857,2.4355,2.1903,0.0,0.0,0.0,0.0,0.0,0.0,0.0,0.0,0.0,0.0,0.0,0.0,0.0,0.0,0.0,0.0,0.0,0.0,0.0,0.0,2.0894,2.3035,2.4963,2.5754,2.7205,2.82,2.8174,2.919,2.9888,2.9888,3.1089,3.1918,3.207,3.2763,3.3254,3.3406,3.3964,3.4286,3.4286,3.5101,3.5596,3.5596,3.5864,3.6079,3.6225,0.0,0.0,3.6301,3.6301,3.6301,3.6301,3.6301,3.6301,3.6301,3.6301,3.6215,3.5956,3.4611,3.4093,3.4059,3.3921,3.3766,3.3542,1.4832,1.4811,1.4688,1.4318,1.4326,1.4374,1.4265,1.4428,1.5507,1.82,1.8546,1.9401,2.1646,2.2204,2.2552,2.2962,2.2973,2.2809,2.247,2.478,2.674,2.8084,2.9368,3.0064,3.0109,3.0109,3.0123,3.0204,3.0166,3.0248,3.0443,3.0528,3.0625,3.0745,3.0745,3.0714,3.0644,3.0591,3.0496,3.0395,3.0443,3.0414,3.0342,3.0274,3.01,2.9888,2.9716,2.9513,2.9142,2.7837,2.7206,2.6727,2.5111,2.3963,2.267,0.0,0.0,0.0,0.0,0.0,0.0,0.0,0.0,0.0,0.0,0.0,0.0,0.0,0.0,1.8912,1.9621,0.0,2.1579,2.2692,2.3947,2.5271,2.6667,2.7589,2.8324,2.8824,3.0264,3.119,3.119,3.2188,3.2983,3.3355,3.3728,3.4117,3.4489,3.4861,3.5064,3.5064,3.5464,3.5711,3.5711,3.5844,3.5949,3.5993,3.614,3.6208,3.6233,3.6233,3.6233,3.6251,3.6191,3.6131,3.6148,3.6233,3.6191,3.6062,3.5425,3.4949,3.4645,3.4645,3.4364,3.3928,1.4607,1.455,1.4392,1.4074,1.4064,1.4091,1.4056,1.4167,1.4873,1.6679,1.6906,1.7281,1.8326,1.9062,1.9388,1.9158,2.1414,2.2693,2.2367,2.5144,2.7755,2.9864,3.0034,3.0079,3.0079,3.0079,3.0109,3.019,3.0142,3.0188,3.0386,3.0463,3.056,3.0652,3.0665,3.0625,3.0519,3.0424,3.0332,3.0253,3.029,3.0216,3.0052,2.9916,2.9826,2.9751,2.9551,2.939,2.9262,2.92,2.8874,2.8478,2.835,2.6834,2.4509,2.1568,2.1032,0.0,0.0,0.0,0.0,0.0,0.0,0.0,0.0,0.0,1.8313,1.9431,1.966,2.0019,2.1246,2.1929,2.2926,2.4687,2.5078,2.5743,2.7501,2.7842,2.8357,2.9551,3.1165,3.2242,3.2476,3.3169,3.3863,3.4455,3.4624,3.4979,3.5588,3.5622,3.5622,3.5622,3.5622,3.5622,3.5622,3.5728,3.5841,3.6038,3.6258,3.6345,3.6388,3.6388,3.632,3.6182,3.6036,3.6019,3.6019,3.6122,3.6122,3.6019,3.6122,3.583,3.538,3.538,3.4902,3.4271,1.4046,1.4038,1.406,1.4082,1.415,1.4101,1.387,1.3952,1.448,1.5707,1.5826,1.62,1.7329,1.8011,1.8053,1.7198,2.2245,2.4526,2.2293,2.6707,2.9506,2.9806,2.9891,2.9956,3.0003,3.0003,3.0038,3.0117,3.0094,3.0174,3.0297,3.0442,3.051,3.0528,3.0591,3.0507,3.0337,3.0321,3.0196,3.0034,2.9972,2.9803,2.9551,2.9418,2.9532,2.9683,2.9472,2.9328,2.92,2.9134,2.8887,2.8576,2.835,2.7933,2.671,2.2658,0.0,1.986,1.6431,1.6867,1.8512,1.9521,1.946,2.0024,0.0,0.0,2.1001,2.2709,2.3056,2.3281,2.4014,2.4253,2.4567,2.5375,2.5989,2.6567,2.7037,2.7968,2.9107,3.0567,3.1281,3.2093,3.3161,3.3931,3.4404,3.4489,3.5115,3.552,3.5622,3.5622,3.5622,3.5622,3.5622,3.5622,3.5622,3.5622,3.6005,3.6786,3.6786,3.6877,3.6983,3.6983,3.6625,3.6019,3.6019,3.6019,3.6019,3.6019,3.6019,3.6019,3.6019,3.5968,3.5899,3.5899,3.5848,3.5677,1.394,1.3742,1.3569,1.3724,1.387,1.3885,1.3711,1.3754,1.4002,1.4522,1.4224,1.3974,1.3989,1.421,1.4585,1.5121,2.0154,2.2883,2.1918,2.6692,2.9626,2.9754,2.9839,2.9956,3.0072,3.0022,3.0038,3.0102,3.0068,3.0094,3.018,3.0309,3.0378,3.0389,3.0404,3.0342,3.0177,3.0095,2.9965,2.9805,2.9718,2.9608,2.9455,2.9086,2.902,2.8997,2.7969,2.7258,0.0,0.0,2.6675,2.6376,2.762,2.6996,2.5174,2.1927,2.0737,0.0,2.012,0.0,0.0,0.0,2.2115,2.2135,2.3526,2.272,2.2063,2.3323,2.3924,2.4283,2.4522,2.4896,2.542,0.0,2.6408,2.6834,2.747,2.8339,2.9559,3.1334,3.2066,3.2854,3.3912,3.4709,3.5148,3.5148,3.5453,3.5622,3.5622,3.5622,3.5622,3.5622,3.5622,3.5825,3.6282,3.6299,3.6717,3.7462,3.7505,3.7551,3.7643,3.7643,3.7206,3.6446,3.5943,3.5756,3.5756,3.5844,3.5844,3.5756,3.5844,3.5844,3.58,3.5932,3.5932,3.5854,1.3771,1.347,1.3227,1.3344,1.3473,1.3569,1.3524,1.3526,1.3487,1.3353,1.2906,1.2292,1.1476,1.1624,1.2227,1.3341,1.786,2.0896,2.1516,2.5945,2.8871,2.9551,2.9717,2.9857,3.0007,2.9975,2.9975,3.0038,3.0022,3.0022,3.0087,3.0215,3.0248,3.0241,3.0253,3.0196,3.0042,2.9934,2.9823,2.9664,2.9474,2.9392,2.9291,2.8879,2.8251,2.7476,2.6227,2.5425,0.0,0.0,2.3934,2.3671,2.5393,2.4715,2.2856,2.0547,1.9452,1.9401,2.1015,0.0,0.0,2.3407,2.405,2.4067,2.3512,2.3196,2.3193,2.3771,2.4418,2.491,2.5136,2.5555,2.6093,2.6752,2.6856,2.7135,2.7894,2.8581,2.9778,3.1787,3.2578,3.3479,3.4688,3.5301,3.5622,3.5622,3.5622,3.5622,3.5622,3.5622,3.5622,3.5622,3.5825,3.6214,3.6772,3.6992,3.7466,3.821,3.8255,3.8286,3.8269,3.8082,3.7543,3.6755,3.618,3.5825,3.5622,3.5711,3.5684,3.5622,3.5728,3.5684,3.5622,3.58,3.5844,3.5711,1.3278,1.321,1.3159,1.3033,1.3019,1.309,1.3295,1.3192,1.2889,1.2236,1.2136,1.1788,1.0918,1.1694,1.2194,1.1991,1.6151,1.9447,2.101,2.4504,2.7343,2.9219,2.9434,2.9608,2.9808,2.9808,2.9841,2.9924,2.9972,3.0007,3.0007,3.0155,3.0169,3.0117,3.0169,3.0095,2.9905,2.991,2.9792,2.9588,2.9312,2.9119,2.8994,2.8767,2.7121,2.4895,2.4635,0.0,0.0,2.1911,2.1011,2.0855,2.1125,2.1035,0.0,1.8774,1.6901,1.5558,1.6529,0.0,2.1183,2.2338,2.4074,2.5233,2.453,2.4633,2.4849,2.4642,2.5121,2.5779,2.6422,2.6542,2.6782,2.749,2.7595,2.766,2.7955,2.8581,2.9778,3.1787,3.2578,3.3676,0.0,3.5605,3.5622,3.5622,3.5622,3.5622,3.5622,3.5622,3.5622,3.5622,3.6349,3.6755,3.6772,3.7499,3.8244,3.8954,3.8954,3.8954,3.8937,3.8227,3.7499,3.6772,3.6755,3.6315,3.5622,3.5622,3.5622,3.5622,3.5622,3.5622,3.5622,3.5622,3.5622,3.5622,1.2893,1.2689,1.2517,1.2471,1.2471,1.2435,1.2317,1.254,1.2609,1.2387,1.1931,0.0,0.0,0.0,0.0,0.0,1.5054,1.7377,1.8511,2.266,2.5683,2.7043,2.8561,2.9474,2.9738,2.9738,2.9756,2.9755,2.9842,2.9876,2.9876,3.0,3.0064,3.0038,3.0094,3.0,2.977,2.9753,2.9608,2.9307,2.9156,2.8957,2.8579,2.6491,2.5057,2.3692,0.0,0.0,0.0,1.8996,1.8482,1.8353,1.9814,1.9287,1.7755,1.5927,1.5754,1.657,1.8625,0.0,2.2856,2.4293,2.4984,2.5249,2.5119,2.4961,2.4942,2.5196,2.4747,2.4343,2.4567,2.4971,2.536,2.5585,2.6722,2.7675,2.784,2.8858,2.9965,3.1195,3.2307,0.0,0.0,0.0,0.0,3.5622,3.5622,3.5622,3.5622,3.5622,3.5859,3.6366,3.6637,3.7246,3.8244,3.8497,3.8988,3.9715,3.9715,3.9715,3.9681,3.8954,3.8481,3.8193,3.7195,3.6637,3.6349,3.5825,3.5622,3.5622,3.5622,3.5622,3.5577,3.5224,3.5068,3.5131,0.0,1.2455,1.2205,1.2205,1.206,0.0,0.0,0.0,0.0,0.0,0.0,0.0,0.0,0.0,0.0,0.0,0.0,1.6072,1.7322,2.0676,2.3203,2.4569,2.5994,2.6829,2.7102,2.7007,2.6965,2.7018,2.7987,2.8452,2.8504,2.9474,2.994,2.9956,3.0007,2.9874,2.9626,2.9626,2.9098,2.823,2.7779,2.7164,2.6235,2.3916,2.2272,0.0,0.0,0.0,1.5586,1.5908,1.5745,1.5674,1.7339,1.7054,1.5946,1.5143,1.578,1.7417,2.0582,2.2178,2.339,2.5345,2.5559,2.535,2.5459,2.547,2.5604,2.5884,2.4896,2.3969,2.3969,2.4328,2.4343,2.3699,2.5435,2.6846,2.6751,2.8077,2.9571,3.0833,3.2206,3.3251,0.0,0.0,0.0,3.5316,3.5316,3.5424,3.5577,3.5876,3.6265,3.6755,3.7249,3.7993,3.8939,3.9159,3.9463,3.9986,3.9986,3.9986,3.9952,3.9446,3.9093,3.8789,3.7894,3.7216,3.6675,3.6139,3.5785,3.5549,3.5503,3.5333,3.5131,3.4769,3.4577,3.4512,0.0,0.0,1.2128,0.0,0.0,0.0,0.0,0.0,0.0,0.0,0.0,0.0,0.0,0.0,0.0,0.0,0.0,0.0,1.7257,1.8534,0.0,2.1927,2.1996,2.2096,2.231,2.2056,2.2002,2.2158,2.4579,2.5803,2.5933,2.8299,2.9446,2.951,2.951,2.9358,2.91,2.91,2.8029,2.6243,2.5284,2.3898,2.2275,2.1128,0.0,0.0,0.0,0.0,0.0,1.2971,1.3039,1.3198,1.4162,1.4772,1.5348,1.647,1.6992,1.8117,2.2102,2.2832,2.3036,2.537,2.578,2.5589,2.5634,2.6249,2.6733,2.6561,2.542,2.4403,0.0,0.0,2.3864,2.1994,2.3954,2.5526,2.5017,2.6615,2.8606,0.0,0.0,0.0,0.0,0.0,0.0,3.4673,0.0,3.5021,3.547,3.6303,3.6789,3.6793,3.805,3.8774,3.8824,3.9394,3.9677,3.9677,3.9677,3.9677,3.9677,3.9677,3.9241,3.8605,3.8673,3.7868,3.6444,3.6522,3.6101,3.5446,3.5291,3.4913,3.4382,3.4333,3.407,3.3836,0.0,0.0,0.0,0.0,0.0,0.0,0.0,0.0,0.0,0.0,0.0,0.0,0.0,0.0,0.0,0.0,0.0,0.0,1.4284,1.5887,1.7502,1.9093,0.0,0.0,0.0,0.0,0.0,2.1461,2.2207,2.2726,2.306,2.3727,2.4107,2.4147,2.4099,2.3942,2.3691,2.3691,2.3235,2.2483,0.0,2.1736,2.0907,0.0,0.0,0.0,0.0,0.0,0.0,0.0,0.0,0.0,0.0,1.8226,1.8548,1.9219,2.0449,2.1831,2.2849,2.3986,2.5001,2.5399,2.5431,2.5538,2.6221,2.6516,2.6366,2.533,2.3699,2.1994,0.0,0.0,0.0,2.1784,2.4717,0.0,2.689,2.7745,0.0,3.0103,0.0,3.1844,3.2703,3.2803,0.0,0.0,3.4366,3.4673,3.4431,3.5944,3.6821,3.6871,3.7632,3.8534,3.9444,3.9143,3.8924,3.8924,3.8924,3.8924,3.8924,3.8924,3.8826,3.8628,3.7655,3.6761,3.587,3.5776,3.5284,3.469,3.4642,3.4545,3.4317,3.3511,3.3145,3.3093,0.0,0.0,0.0,0.0,0.0,0.0,0.0,0.0,0.0,0.0,0.0,0.0,0.0,0.0,0.0,0.0,0.0,0.0,0.0,1.4485,1.5443,1.6146,0.0,0.0,0.0,0.0,0.0,0.0,0.0,0.0,2.0151,2.1353,2.1965,2.2006,2.1946,2.1787,2.1514,2.1407,0.0,0.0,0.0,0.0,0.0,0.0,0.0,0.0,0.0,0.0,0.0,0.0,0.0,1.8621,1.8998,1.9564,2.027,2.1045,0.0,2.3325,2.4042,2.5035,2.5862,2.5722,2.5786,2.5834,2.5736,2.5734,2.527,2.3626,2.1634,0.0,1.8667,2.0108,0.0,0.0,0.0,0.0,2.6318,2.7111,2.8276,0.0,3.0516,0.0,3.213,3.2247,3.2342,0.0,3.3563,3.407,3.3969,3.5597,3.6505,3.6473,3.7308,3.8204,3.9082,3.843,3.8246,3.8541,3.8246,3.8262,3.8541,3.8246,3.8246,3.8453,0.0,3.6717,3.6015,3.5621,3.5017,3.4339,3.4032,3.3716,3.3459,3.2841,3.2492,3.2342,0.0,0.0,0.0,0.0,0.0,0.0,0.0,0.0,0.0,0.0,0.9239,0.949,0.0,0.0,0.0,0.0,0.0,0.0,0.0,0.0,1.3727,1.3631,1.341,0.0,0.0,0.0,0.0,0.0,0.0,0.0,0.0,0.0,0.0,0.0,0.0,0.0,0.0,0.0,0.0,0.0,0.0,0.0,0.0,0.0,0.0,0.0,0.0,0.0,0.0,0.0,1.9973,2.0319,1.9688,2.0319,2.1492,2.242,2.298,2.3663,2.5083,2.5687,2.5963,2.6103,2.6347,2.6243,2.4835,2.4537,2.3896,2.1594,0.0,1.8042,1.7739,1.9409,2.0304,1.8834,0.0,2.5375,2.5061,2.6004,2.7475,2.9539,3.0332,3.1036,3.1921,3.1996,3.1996,3.1996,3.2641,3.3282,3.3861,3.5287,3.6093,3.6021,3.7109,3.7806,3.8051,3.7531,3.7531,3.8051,3.7531,3.7531,3.8051,3.7546,3.7531,3.7994,3.7531,3.6916,3.618,3.5568,3.4912,3.42,3.3414,3.2788,3.2398,3.2287,3.2038,3.1727,0.0,0.0,0.0,0.0,0.0,0.0,0.0,0.0,0.0,0.0,0.8584,0.8844,0.0,0.0,0.0,0.0,0.0,0.0,0.0,0.0,0.0,1.3182,1.2548,0.0,0.0,0.0,0.0,0.0,0.0,0.0,0.0,0.0,0.0,0.0,0.0,0.0,0.0,0.0,0.0,0.0,0.0,0.0,0.0,0.0,0.0,0.0,0.0,0.0,0.0,0.0,2.0973,2.2269,2.3331,2.3817,2.4037,2.4163,2.4405,2.4563,2.4415,2.4932,2.5527,2.5651,2.6141,2.6195,2.4574,2.4187,0.0,0.0,1.8157,1.7249,1.583,1.7248,1.9051,2.0287,2.2919,2.533,2.6841,2.726,2.8036,0.0,2.9924,3.0537,3.1875,3.1996,0.0,0.0,3.215,3.2492,3.3157,3.4841,3.6015,3.6453,3.7109,3.7251,3.6707,3.66,3.66,3.6723,3.66,3.66,3.6723,3.66,3.6662,3.6723,3.6148,0.0,3.4834,3.4586,3.414,3.3491,3.281,3.2492,3.2342,3.1853,3.1582,3.1539,0.0,0.0,0.0,0.0,0.0,0.0,0.0,0.815,0.798,0.7597,0.7885,0.8198,0.8434,0.8469,0.874,0.0,0.0,0.0,0.0,0.0,0.0,0.0,0.0,0.0,0.0,0.0,0.0,0.0,0.0,0.0,0.0,0.0,0.0,0.0,0.0,0.0,0.0,0.0,0.0,0.0,0.0,0.0,0.0,0.0,0.0,0.0,0.0,0.0,0.0,0.0,1.9624,2.1814,2.3687,2.4266,2.4282,2.4256,2.4297,2.4323,2.4063,2.4811,2.5636,2.5416,2.6169,2.61,2.3097,0.0,0.0,0.0,1.593,1.5449,1.4603,1.6132,0.0,1.9065,2.2032,2.4604,2.5851,2.6882,0.0,2.9507,2.9672,3.0253,0.0,3.1769,3.1769,3.1769,3.1769,3.2113,3.2953,3.4383,3.5488,3.6119,3.6305,3.643,3.643,3.6085,3.6085,3.6368,3.6085,3.6085,3.6368,3.6085,3.6085,3.6368,3.5733,3.5115,3.449,3.403,3.3485,3.2892,3.2167,3.191,3.191,3.1582,3.1482,3.1482,0.0,0.0,0.0,0.0,0.0,0.0,0.7866,0.7746,0.7591,0.7253,0.7372,0.7655,0.818,0.8459,0.8834,0.0,0.0,0.0,0.0,0.0,0.0,0.0,0.0,0.0,0.0,0.0,0.0,0.0,0.0,0.0,0.0,0.0,0.0,0.0,0.0,0.0,0.0,0.0,0.0,0.0,0.0,0.0,0.0,0.0,0.0,0.0,0.0,0.0,0.0,0.0,1.7427,1.9478,2.1576,2.2634,2.3107,2.3215,2.3197,2.3224,2.3603,2.4702,2.5678,2.5287,2.6079,2.5885,2.1643,2.0599,0.0,0.0,1.4052,1.3868,1.3868,1.5202,1.6572,0.0,2.0312,2.3038,2.4312,2.583,2.7518,0.0,2.9579,0.0,3.1347,3.1482,0.0,3.1482,3.1601,3.215,3.3048,3.409,3.4976,3.5623,3.5539,3.5733,3.6196,3.5733,3.5733,3.6196,3.5733,3.5733,3.6196,3.5748,3.5733,3.6196,3.5748,3.5115,3.4427,3.3769,3.305,3.2393,3.1677,3.1424,3.1424,3.1424,3.1424,3.1467,0.0,0.0,0.0,0.0,0.0,0.0,0.8357,0.7756,0.7323,0.7283,0.7309,0.7346,0.7413,0.7598,0.7893,0.0,0.0,0.0,0.0,0.0,0.0,0.0,0.0,0.0,0.0,0.0,0.0,0.0,0.0,0.0,0.0,0.0,0.0,0.0,0.0,0.0,0.0,0.0,0.0,0.0,0.0,0.0,0.0,0.0,0.0,0.0,0.0,0.0,0.0,0.0,0.0,1.4938,1.6457,1.8569,2.0621,2.1073,0.0,0.0,2.2688,2.4187,2.5239,2.5191,2.5814,2.5297,2.1278,0.0,0.0,1.4719,1.3682,1.3514,1.3682,1.3967,0.0,0.0,0.0,1.9895,2.3536,2.4534,2.6016,2.9205,0.0,0.0,3.1347,3.1482,3.1482,3.1482,3.2078,3.2706,3.3426,3.4145,3.485,3.5474,3.5504,3.5504,3.5554,3.5504,3.5504,3.5554,3.5504,3.5504,3.5554,3.5504,3.5504,3.5554,3.5504,3.5115,0.0,3.366,3.2896,3.2243,3.1457,3.1146,3.1146,3.1146,3.119,3.1351,0.0,0.0,0.0,0.0,0.0,0.0,0.7732,0.757,0.7456,0.72,0.7362,0.7457,0.7378,0.7587,0.784,0.8127,0.8644,0.0,0.0,0.0,0.0,0.0,0.0,0.0,0.0,0.0,1.2046,1.2542,1.2614,0.0,0.0,0.0,0.0,0.0,0.0,0.0,0.0,0.0,0.0,0.0,0.0,0.0,0.0,0.0,0.0,0.0,0.0,0.0,0.0,0.0,0.0,0.0,1.328,1.4507,0.0,0.0,2.0225,2.0696,2.2527,2.3692,2.4418,2.4418,2.4233,2.3256,2.0266,0.0,1.6851,1.4002,1.3254,1.3138,1.3323,1.3391,1.3766,0.0,0.0,0.0,2.0121,2.2571,2.4867,2.6927,2.8607,0.0,0.0,0.0,3.1482,3.1482,3.1779,3.2213,3.2871,3.3903,3.4801,3.5489,3.5504,3.5504,3.5504,3.5504,3.5439,3.5294,3.5294,3.5294,3.5148,3.5148,3.494,3.4569,3.4569,3.4025,0.0,3.2626,3.2152,3.156,3.125,3.1087,3.1087,3.1087,3.1132,3.119,0.0,0.0,0.0,0.0,0.0,0.8213,0.7407,0.7404,0.7413,0.7139,0.7293,0.739,0.722,0.7603,0.7881,0.7886,0.8389,0.0,0.0,0.0,0.0,0.0,0.0,0.0,0.0,0.0,1.1945,1.2603,1.2614,1.2789,0.0,0.0,0.0,0.0,0.0,0.0,0.0,0.0,0.0,0.0,0.0,0.0,0.0,0.0,0.0,0.0,0.0,0.0,0.0,0.0,0.0,0.0,0.0,0.0,0.0,0.0,1.8595,1.9433,2.1364,2.2678,2.3547,2.3547,2.2801,2.1569,0.0,0.0,1.5569,1.3465,1.2978,1.2943,1.3025,1.306,1.3232,0.0,0.0,1.6091,1.7648,2.0197,2.2644,0.0,0.0,2.8368,0.0,3.0854,3.1467,3.1482,3.1467,3.1765,3.2437,3.3348,3.4155,3.4891,3.4857,3.4857,3.4857,3.4778,3.4698,3.4555,3.4555,3.449,3.436,3.436,3.4109,3.3731,3.3731,3.3033,0.0,3.1941,3.1573,3.1014,3.0955,3.0955,3.0955,3.0955,3.0955,3.1014,0.0,0.0,0.0,0.0,0.0,0.8101,0.7754,0.7345,0.7109,0.71,0.71,0.7012,0.6738,0.7538,0.7914,0.7445,0.8136,0.0,0.0,0.0,0.0,0.0,0.0,0.0,1.1516,1.1394,1.1494,1.1909,1.1909,1.2126,1.2508,1.2567,1.2826,0.0,0.0,0.0,0.0,0.0,0.0,0.0,0.0,0.0,0.0,0.0,0.0,0.0,0.0,0.0,0.0,0.0,0.0,0.0,0.0,1.0044,1.1487,0.0,1.5376,1.6277,1.8752,2.1051,2.2724,2.2724,2.1943,2.0759,0.0,1.6979,1.4925,1.3227,1.2896,1.2896,1.2896,1.3012,1.3107,1.3107,1.3071,0.0,1.69,1.7327,1.8913,0.0,0.0,2.4971,2.8308,3.0261,3.1351,3.1482,3.1409,0.0,3.2273,3.2317,3.2675,3.3499,3.3406,3.3297,3.3297,3.3129,3.3037,3.3037,3.3037,3.2989,3.3033,3.2989,3.3037,3.3037,3.3037,3.2653,0.0,3.1833,3.1406,3.0762,3.0642,3.0628,3.0628,3.0628,3.0702,3.0821,0.0,0.0,0.0,0.0,0.0,0.0,0.7783,0.7588,0.7501,0.7501,0.7661,0.7619,0.7148,0.7695,0.7896,0.7366,0.7929,0.0,0.0,0.0,0.0,0.0,0.0,0.0,1.1356,1.1266,1.1373,1.1699,1.1559,1.1739,1.2155,1.2377,1.265,1.2965,1.2768,0.0,0.0,0.0,0.0,0.0,0.0,0.0,0.0,0.0,0.0,0.0,0.0,0.0,0.0,0.0,0.0,0.0,0.0,0.0,0.0,1.1289,1.2864,1.462,1.6602,1.7717,1.8429,1.8805,1.7766,1.6635,1.6484,1.4968,1.3484,1.2948,1.2803,1.2768,1.2838,1.2873,1.2955,1.3072,1.3082,0.0,0.0,0.0,0.0,2.1452,2.5026,2.8127,0.0,0.0,3.119,3.1249,3.119,3.1294,3.1442,3.1456,3.2004,3.3117,3.3099,3.3099,3.3099,3.3022,3.2974,3.2893,3.2893,3.2767,3.264,3.2625,3.2441,3.1988,3.1988,3.1638,3.1054,3.0993,3.0877,3.0642,3.0642,3.0568,3.0568,3.0568,3.0642,3.0642,0.0,0.0,0.0,0.0,0.0,0.0,0.7754,0.7695,0.7695,0.7695,0.7831,0.7776,0.735,0.7786,0.7896,0.734,0.7824,0.0,0.0,0.0,0.0,0.0,0.0,0.0,1.1356,1.1228,1.1114,1.1149,1.092,1.1006,1.1455,1.1594,1.1953,1.2461,1.2258,1.2186,0.0,0.0,0.0,0.0,0.0,0.0,1.2029,0.0,0.0,0.0,0.0,0.0,0.0,0.0,0.0,0.0,0.0,0.0,0.0,0.0,1.0767,1.2298,1.421,1.5223,1.5875,1.6384,1.5435,1.4529,1.5035,1.3881,1.265,1.2508,1.2591,1.2674,1.2556,1.2697,1.2777,1.2685,1.2762,1.3268,0.0,0.0,0.0,2.1455,0.0,0.0,0.0,3.0587,3.1014,3.1087,3.1014,3.1014,3.1014,3.1014,3.1307,3.2085,3.2115,3.2176,3.2176,3.2115,3.2068,3.1973,3.1973,3.1911,3.1787,3.1787,3.1555,3.1163,3.1163,3.0945,0.0,3.0568,3.0568,3.0568,3.0568,3.0568,3.0568,3.0568,3.0568,3.0568,0.0,0.0,0.0,0.0,0.0,0.0,0.0,0.7695,0.7695,0.7695,0.7695,0.7597,0.7347,0.7779,0.7878,0.7363,0.7779,0.0,0.0,0.0,0.0,0.0,0.0,1.1442,1.1442,1.1132,1.0798,1.0383,1.0108,1.0159,1.046,1.0449,1.0894,1.1729,1.1693,1.174,0.0,0.0,0.0,0.0,1.1737,1.1909,0.0,0.0,0.0,0.0,0.0,0.0,0.0,0.0,0.0,0.0,0.0,0.0,0.0,0.0,0.0,0.0,0.0,1.33,1.4529,1.5065,1.4464,1.3886,1.4464,1.345,0.0,1.1945,1.2294,1.2556,1.2186,1.2473,1.2645,1.2146,1.2205,1.3267,0.0,1.6623,0.0,0.0,2.5639,0.0,2.8027,2.9737,3.0895,3.1073,3.0895,3.0762,3.0762,3.0762,3.0702,3.0568,3.0702,3.0762,3.0762,3.0642,3.0568,3.0568,3.0568,3.0568,3.0568,3.0568,3.0568,0.0,3.0568,3.0568,3.0568,3.0568,3.0568,3.0568,3.0568,3.0568,3.0568,3.0568,3.0568,3.0568,0.0,0.0,0.0,0.0,0.0,0.0,0.0,0.0,0.0,0.0,0.7695,0.7686,0.7617,0.7724,0.7744,0.0,0.0,0.0,0.0,0.0,0.0,0.0,1.0617,1.0829,1.0639,1.084,1.0698,1.0169,0.9965,0.9924,1.0046,0.9879,1.0259,1.1027,1.0709,1.062,0.0,0.0,0.0,0.0,1.118,1.1255,0.0,0.0,0.0,0.0,1.0777,1.0191,0.0,0.0,0.0,0.0,0.0,0.0,0.0,0.0,0.8572,0.8596,0.9333,0.0,1.0779,1.1457,1.1354,1.133,0.0,1.2058,1.1579,1.1579,0.0,1.2222,1.2113,1.2449,1.2696,1.2633,1.269,1.3632,1.607,0.0,0.0,2.4941,2.7059,2.8196,2.7806,2.9508,3.0702,3.0702,3.0702,3.0642,3.0642,3.0642,3.0642,3.0568,3.0642,3.0642,3.0642,3.0642,3.0568,3.0568,3.0568,3.0568,3.0568,3.0568,3.0568,3.0568,3.0568,3.0568,3.0568,3.0568,3.0568,3.0568,3.0568,3.0568,3.0568,3.0568,3.0568,3.0568,0.0,0.0,0.0,0.0,0.0,0.0,0.0,0.0,0.0,0.0,0.7695,0.7695,0.7695,0.7695,0.7695,0.0,0.0,0.0,0.0,0.0,0.0,0.9908,1.0565,1.0878,1.0764,1.0791,1.0586,1.0098,0.9856,0.9627,0.9499,0.9569,0.9817,1.023,1.0193,1.0163,0.0,0.0,0.0,0.0,1.0687,0.0,0.0,0.0,0.0,0.0,0.9778,0.9359,0.0,0.8714,0.8411,0.8117,0.0,0.0,0.0,0.0,0.8251,0.8187,0.8184,0.8578,0.9187,1.0051,1.0189,1.0399,1.1467,0.0,0.0,0.0,0.0,1.2258,1.1884,1.2878,1.3444,1.2539,1.3885,0.0,0.0,0.0,2.3359,2.556,2.6982,2.8129,0.0,2.9972,3.0568,3.0568,3.0568,3.0568,3.0568,3.0568,3.0568,3.0568,3.0568,3.0568,3.0568,3.0568,3.0568,3.0568,3.0568,3.0568,3.0568,3.0568,3.0568,3.0568,3.0568,3.0568,3.0568,3.0568,3.0568,3.0568,3.0568,3.0568,3.0568,3.0568,3.0568,3.0568,0.0,0.0,0.0,0.0,0.0,0.0,0.0,0.0,0.0,0.0,0.0,0.0,0.0,0.0,0.0,0.0,0.0,0.0,0.0,0.0,0.9264,0.9914,1.0672,1.1067,1.1067,1.0791,1.0467,1.0092,0.9708,0.932,0.8867,0.9168,0.9378,0.9524,0.9867,1.0031,1.0059,1.0127,1.0205,1.0312,1.0302,0.0,0.0,0.0,0.0,0.0,0.0,0.0,0.0,0.7881,0.7695,0.7627,0.7627,0.0,0.0,0.0,0.0,0.0,0.7724,0.8195,0.8923,0.9745,0.9918,1.0155,1.1187,0.0,0.0,0.0,0.0,0.0,0.0,1.3402,0.0,0.0,0.0,0.0,1.9653,2.1167,2.3098,2.5495,2.6547,0.0,2.9943,3.0408,3.0568,3.0568,3.0568,3.0568,3.0568,3.0568,3.0568,3.0568,3.0568,3.0568,3.0568,3.0568,3.0568,3.0568,3.0568,3.0568,3.0568,3.0568,3.0568,3.0568,0.0,0.0,3.0568,3.0568,3.0568,3.0568,3.0522,3.0507,3.0507,3.0507,3.0507,3.0507,0.0,0.0,0.0,0.0,0.0,0.0,0.0,0.0,0.0,0.0,0.0,0.0,0.0,0.0,0.0,0.0,0.0,0.0,0.0,0.8525,0.9033,0.917,0.9965,1.0438,1.0438,1.0418,1.0321,1.0041,0.9499,0.8925,0.8323,0.8099,0.8376,0.9121,0.9505,0.9904,1.0244,1.0244,1.0312,1.0341,1.0021,0.0,0.0,0.0,0.0,0.0,0.0,0.0,0.0,0.7592,0.7462,0.7355,0.7305,0.0,0.0,0.0,0.0,0.0,0.7471,0.8377,0.9268,0.9247,0.9389,0.9784,1.0846,0.0,0.0,0.0,0.0,0.0,0.0,1.3263,1.3371,0.0,0.0,1.9321,0.0,0.0,2.5384,2.5756,0.0,2.8332,2.8173,2.9624,3.0568,3.0568,3.0568,3.0568,3.0568,3.0568,3.0568,3.0568,3.0568,3.0568,3.0568,3.0568,3.0568,3.0568,3.0568,3.0568,3.0568,3.0568,3.0568,3.0568,0.0,3.0568,3.0568,3.0447,3.0326,3.0312,3.0219,3.0172,3.0172,3.0172,3.0172,3.0172,0.0,0.0,0.0,0.0,0.0,0.0,0.0,0.0,0.0,0.0,0.0,0.0,0.0,0.0,0.0,0.0,0.0,0.0,0.7695,0.8525,0.9038,0.9116,0.976,1.0137,1.0137,0.9897,0.9668,0.9354,0.8801,0.8301,0.778,0.7795,0.8231,0.9,0.9132,0.954,1.0088,0.9677,0.9667,0.9873,0.0,0.0,0.0,0.0,0.0,0.0,0.0,0.0,0.0,0.0,0.7184,0.7026,0.7005,0.0,0.0,0.0,0.0,0.0,0.7196,0.7804,0.8594,0.9422,1.0347,1.1449,1.282,0.0,0.0,0.0,0.0,0.0,0.0,0.0,1.6041,1.8506,0.0,1.9009,2.1504,2.2427,2.3593,0.0,0.0,2.8086,2.916,3.006,3.0568,3.0568,3.0568,3.0568,3.0568,3.0568,3.0568,3.0568,3.0507,3.0447,3.0447,2.9979,3.0054,3.0568,3.0568,3.0507,3.0447,3.0447,3.0176,2.978,0.0,3.0068,2.9718,2.9656,2.9808,3.0097,2.931,2.917,2.9484,2.9107,2.898,2.898,0.0,0.0,0.0,0.0,0.0,0.0,0.0,0.0,0.0,0.0,0.0,0.0,0.0,0.0,0.0,0.0,0.0,0.0,0.7725,0.8525,0.9038,0.9173,0.9675,0.9933,0.9838,0.9441,0.8995,0.8555,0.8105,0.7653,0.7233,0.7492,0.8008,0.872,0.8604,0.9024,0.9734,0.903,0.8939,0.9226,0.0,0.0,0.0,0.0,0.0,0.0,0.0,0.0,0.0,0.0,0.0,0.0,0.0,0.0,0.0,0.6855,0.6846,0.6837,0.6936,0.7292,0.8054,0.9668,1.0869,1.2212,1.4491,0.0,0.0,0.0,0.0,0.0,0.0,1.6268,0.0,2.067,1.9443,1.9132,2.1825,2.1661,2.2569,2.6029,2.691,2.81,3.0364,3.0568,3.0568,3.0568,3.0568,3.0568,3.0568,3.0568,3.0568,3.0507,3.0251,3.0054,2.9993,2.9205,2.9331,3.0462,3.0129,2.9979,2.9993,2.9993,2.9656,2.9002,2.9623,2.9623,2.9205,2.8876,2.9156,2.9651,2.839,2.8182,2.862,2.8051,2.7855,2.7855,0.0,0.0,0.0,0.0,0.0,0.0,0.0,0.0,0.0,0.0,0.0,0.0,0.0,0.0,0.0,0.0,0.0,0.0,0.7802,0.8558,0.9038,0.9086,0.9582,0.9656,0.9366,0.9134,0.8621,0.7796,0.7602,0.7277,0.6751,0.6787,0.7212,0.7991,0.7907,0.8306,0.9056,0.8659,0.8548,0.8523,0.815,0.0,0.0,0.0,0.0,0.0,0.0,0.0,0.0,0.0,0.0,0.0,0.0,0.0,0.6407,0.672,0.659,0.6429,0.672,0.7467,0.8443,0.9626,0.9481,0.0,1.407,1.3303,0.0,1.54,0.0,0.0,0.0,1.6938,1.7496,1.7724,1.8899,2.0809,2.3686,0.0,2.5227,2.7953,2.8338,2.8958,3.0437,3.0568,3.0568,3.0568,3.0568,3.0568,3.0568,3.0568,3.0507,3.0312,2.9685,2.9282,2.9129,2.8427,2.8776,3.0111,2.8776,2.8492,2.9066,2.9066,2.9066,2.9002,2.9066,2.9421,2.9913,2.8427,2.8233,2.8803,2.7868,2.7537,2.7604,2.7537,2.7537,2.7537,0.0,0.0,0.0,0.0,0.0,0.0,0.0,0.0,0.0,0.0,0.0,0.0,0.0,0.0,0.0,0.0,0.0,0.7802,0.7869,0.8708,0.9052,0.8795,0.931,0.925,0.8526,0.8202,0.7725,0.7025,0.6633,0.6442,0.6432,0.6402,0.6825,0.7581,0.7266,0.7601,0.832,0.7661,0.7556,0.7772,0.7331,0.6985,0.0,0.0,0.0,0.0,0.0,0.0,0.0,0.0,0.6021,0.6183,0.6091,0.6029,0.6029,0.6153,0.6253,0.6315,0.6468,0.7492,0.8737,0.9644,0.0,0.0,0.0,0.0,0.0,0.0,0.0,0.0,0.0,0.0,2.0057,1.9047,2.0294,2.2058,2.4013,2.435,2.5354,2.7997,2.8326,2.8813,3.0165,3.028,3.028,3.028,3.028,3.028,3.028,3.028,3.0007,2.9532,2.9156,2.8712,2.8206,2.7391,2.7471,2.8468,2.8117,2.8038,2.8206,2.8698,2.8312,2.7458,2.8298,2.8363,2.7736,2.7124,2.7338,2.7934,2.7149,2.6539,2.6126,2.6126,2.6126,2.6126,0.0,0.0,0.0,0.0,0.0,0.0,0.0,0.0,0.0,0.0,0.0,0.0,0.0,0.0,0.0,0.0,0.7763,0.7881,0.8079,0.8681,0.894,0.8777,0.9003,0.8788,0.7994,0.7483,0.7001,0.6507,0.6043,0.592,0.6142,0.6185,0.6453,0.6908,0.6585,0.6827,0.7447,0.6754,0.6699,0.7017,0.662,0.6291,0.0,0.0,0.0,0.0,0.0,0.0,0.0,0.0,0.5679,0.5874,0.5749,0.5686,0.5655,0.578,0.625,0.6768,0.6868,0.7719,0.8872,0.0,0.0,0.0,0.0,0.0,0.0,0.0,1.7334,0.0,0.0,0.0,0.0,0.0,2.1139,2.2604,2.3754,2.4105,2.5043,2.7298,2.7897,2.8567,2.9711,2.9997,3.0111,3.0111,3.0111,3.0111,3.0111,2.9898,2.9414,2.874,2.817,2.7548,2.6752,2.6009,2.5832,2.6355,2.6541,2.6907,2.7311,2.7789,2.7404,2.6483,2.7391,2.7391,2.6688,2.6277,2.6333,2.6744,2.6264,2.5721,2.5312,2.5312,2.5312,2.5312,0.0,0.0,0.0,0.0,0.0,0.0,0.0,0.0,0.7695,0.7695,0.7695,0.0,0.0,0.0,0.0,0.0,0.7734,0.801,0.8456,0.8451,0.8628,0.9069,0.8661,0.8254,0.7895,0.7093,0.6557,0.6304,0.5964,0.5793,0.5814,0.6079,0.6078,0.5913,0.5842,0.6001,0.6366,0.6042,0.605,0.6263,0.6011,0.569,0.5358,0.0,0.0,0.0,0.0,0.0,0.0,0.0,0.5151,0.5055,0.5397,0.5404,0.5347,0.5686,0.6689,0.7763,0.8076,0.8206,0.0,0.0,0.0,0.0,0.0,0.0,0.0,0.0,0.0,1.9111,1.9436,0.0,0.0,1.978,2.1139,2.242,2.3027,2.361,2.4522,2.5939,2.7211,2.8324,2.9111,2.974,3.0097,3.0097,3.0097,3.0097,3.0097,2.9393,2.8663,2.7975,2.6608,2.5559,2.4796,2.4132,2.3773,2.3773,2.3773,2.4707,2.6402,2.6402,2.6402,2.6402,2.6414,2.6812,2.7338,2.5918,2.5312,2.5312,2.5312,2.5312,2.5312,2.5312,2.5312,2.5312,0.0,0.0,0.0,0.0,0.0,0.0,0.0,0.0,0.7695,0.7695,0.7695,0.0,0.0,0.0,0.0,0.0,0.0,0.0,0.8539,0.8565,0.8566,0.8659,0.8533,0.8236,0.7777,0.7054,0.6442,0.5964,0.565,0.5712,0.606,0.5724,0.5752,0.6102,0.5499,0.548,0.5905,0.564,0.5603,0.5655,0.5584,0.5376,0.5081,0.0,0.0,0.0,0.0,0.0,0.0,0.0,0.0,0.0,0.489,0.4852,0.4858,0.5023,0.5686,0.6397,0.6505,0.816,0.0,1.0374,0.0,0.0,0.0,0.0,0.0,0.0,0.0,1.928,1.9336,0.0,0.0,1.9961,2.1139,2.242,2.3027,2.361,2.4477,2.5823,2.6662,2.7455,2.8163,2.8389,2.8502,2.8502,2.8502,2.8502,2.8502,2.7834,2.7176,2.6459,2.5614,2.4778,2.4067,2.3893,2.3773,2.3773,2.3773,2.4062,2.4554,2.5049,2.5049,2.4646,2.5485,2.5702,2.5388,2.5284,2.5312,2.5312,2.5312,2.5312,2.5312,2.5312,2.5312,2.5312,0.0,0.0,0.0,0.0,0.0,0.0,0.0,0.0,0.7695,0.7695,0.7695,0.7666,0.0,0.0,0.0,0.0,0.0,0.0,0.8726,0.8425,0.8388,0.8686,0.8367,0.7893,0.7325,0.6693,0.6149,0.5774,0.5584,0.5675,0.5979,0.5515,0.5437,0.5693,0.5104,0.4982,0.5256,0.5132,0.5137,0.5232,0.5137,0.4979,0.4832,0.0,0.0,0.0,0.0,0.0,0.0,0.0,0.0,0.0,0.4704,0.4672,0.4796,0.5486,0.6103,0.6827,0.7904,0.0,0.0,1.2004,1.3113,1.4523,1.672,0.0,0.0,0.0,0.0,2.0194,2.0276,2.1234,0.0,2.0899,2.156,2.2297,2.2702,2.3267,2.3916,2.4669,2.5755,2.659,2.6979,2.7491,2.7776,2.7776,2.7776,2.7776,2.7776,2.7129,2.6391,2.5507,2.4784,2.4,2.3147,2.3147,2.3147,2.3147,2.3147,2.3147,2.3224,2.3989,2.4198,2.3851,2.4553,2.4621,2.4254,2.4783,2.4987,2.5011,2.5157,2.5241,2.5312,2.5241,2.5241,2.5312,0.0,0.0,0.8889,0.8572,0.0,0.0,0.0,0.0,0.7695,0.7695,0.7695,0.7666,0.0,0.0,0.0,0.0,0.0,0.0,0.8878,0.8219,0.8097,0.891,0.8126,0.7368,0.6766,0.616,0.5792,0.5745,0.5682,0.5648,0.5711,0.5378,0.5174,0.5023,0.4741,0.4604,0.4631,0.464,0.4762,0.496,0.4698,0.4596,0.4538,0.4377,0.0,0.0,0.0,0.0,0.0,0.0,0.0,0.0,0.4742,0.4774,0.5045,0.6412,0.7249,0.8327,1.0738,0.0,0.0,1.4873,1.5173,0.0,1.8334,1.9639,2.0366,2.1031,0.0,2.1463,2.1698,2.1812,2.1999,2.2185,2.2197,2.2197,2.2197,2.275,2.3148,2.3088,2.4773,2.5881,2.5823,2.6895,2.7607,2.7607,2.7607,2.7607,2.7549,2.6859,2.5928,2.4844,2.4088,2.3257,2.2197,2.2197,2.2197,2.2197,2.2197,2.2197,2.2221,2.3183,2.3652,2.3701,2.3701,2.3725,2.3809,2.4314,2.445,2.451,2.4908,2.5182,2.5241,2.5111,2.5182,2.5241,0.0,0.0,0.8174,0.7918,0.0,0.0,0.0,0.0,0.0,0.0,0.0,0.0,0.0,0.0,0.0,0.0,0.0,0.0,0.8521,0.8369,0.8328,0.8521,0.7753,0.7224,0.7079,0.6439,0.6096,0.6096,0.5441,0.5328,0.5679,0.5052,0.4909,0.5206,0.4807,0.4732,0.4916,0.4918,0.4826,0.4666,0.4628,0.4505,0.4344,0.4312,0.4312,0.0,0.0,0.0,0.0,0.0,0.0,0.0,0.4608,0.4634,0.4734,0.514,0.6363,0.7726,0.8406,1.0565,0.0,0.0,1.6133,1.8167,1.8818,2.0031,2.1031,2.1158,2.1423,2.1635,2.1698,2.1949,2.2123,2.2185,2.2197,2.2197,2.2197,2.3113,2.361,2.3148,2.4775,2.5688,2.5238,2.5883,2.6301,2.6301,2.6301,2.612,2.5627,2.494,2.4229,2.3504,2.2874,2.248,2.2197,2.2197,2.2197,2.2197,2.2197,2.2197,2.2197,2.2426,2.2763,2.3147,2.3147,2.3388,2.3809,2.419,2.4336,2.4384,2.472,2.4861,2.4921,2.4861,2.4861,2.4921,0.0,0.0,0.0,0.0,0.0,0.0,0.0,0.0,0.0,0.0,0.0,0.0,0.0,0.0,0.0,0.0,0.791,0.8163,0.8397,0.8181,0.7992,0.7821,0.7118,0.6738,0.6738,0.6227,0.5976,0.5976,0.5418,0.5282,0.5491,0.5013,0.4926,0.513,0.4666,0.4574,0.4788,0.4693,0.457,0.4441,0.4441,0.4409,0.435,0.4312,0.435,0.4382,0.4388,0.0,0.0,0.0,0.0,0.0,0.0,0.0,0.4568,0.5564,0.6272,0.7149,0.9052,0.0,0.0,1.4839,0.0,1.8977,1.8977,2.0161,2.1221,2.1221,2.1498,2.1698,2.1698,2.1949,2.2197,2.2197,2.2197,2.2197,2.2197,2.2763,2.31,2.3088,2.4195,2.4964,2.5005,2.5564,2.5893,2.5893,2.5619,2.5342,2.5005,2.4394,2.3728,2.3148,2.2811,2.2469,2.2197,2.2197,2.2123,2.2061,2.2061,2.1999,2.1949,2.2135,2.2279,2.2468,2.2468,2.2635,2.2805,2.325,2.3538,2.381,2.412,2.4495,2.4801,2.4718,2.4718,2.479,0.0,0.0,0.0,0.0,0.0,0.0,0.0,0.0,0.0,0.0,0.0,0.0,0.0,0.0,0.7696,0.0,0.0,0.0,0.8249,0.7858,0.7474,0.7202,0.6568,0.6184,0.6184,0.5847,0.5636,0.568,0.542,0.5276,0.5244,0.5011,0.4939,0.49,0.4521,0.4441,0.4538,0.4409,0.4344,0.4312,0.4312,0.435,0.4382,0.435,0.4382,0.4452,0.442,0.4388,0.4355,0.4172,0.0,0.0,0.0,0.0,0.4449,0.6132,0.6364,0.678,1.0056,0.0,1.3023,1.609,1.7901,0.0,1.8977,2.0161,2.1221,2.1221,2.1423,2.1624,2.1698,2.1949,2.2135,2.2185,2.2197,2.2197,2.2197,2.2309,2.2469,2.2919,2.3564,2.4208,2.4637,2.5203,2.5591,2.5591,2.5104,2.4765,2.4708,2.415,2.3564,2.298,2.2919,2.2702,2.2123,2.2123,2.2061,2.1874,2.1874,2.1812,2.1698,2.2011,2.1999,2.1874,2.1874,2.1812,2.1745,2.2262,2.269,2.3194,2.3491,2.4096,2.4646,2.449,2.4562,2.4718,0.0,0.0,0.0,0.0,0.0,0.0,0.0,0.0,0.0,0.0,0.7889,0.7821,0.0,0.7783,0.7712,0.7702,0.8079,0.8144,0.7802,0.0,0.0,0.7209,0.6568,0.6184,0.6184,0.5631,0.5463,0.568,0.542,0.5199,0.5045,0.4785,0.465,0.4638,0.4587,0.4473,0.4344,0.4505,0.4473,0.4312,0.435,0.435,0.4312,0.4382,0.435,0.435,0.4382,0.4221,0.3988,0.4075,0.3918,0.0,0.0,0.0,0.4291,0.4928,0.5941,0.7051,0.0,0.0,1.4059,0.0,1.7823,1.8977,0.0,0.0,2.1221,0.0,2.1348,2.1474,2.1698,2.1812,2.1999,2.2185,2.2197,2.2197,2.2197,2.2641,2.2811,2.2359,2.3339,2.3846,2.3386,2.3904,2.4253,2.4253,2.4208,2.3917,2.3386,2.3267,2.2919,2.2359,2.2309,2.2173,2.1925,2.1925,2.1874,2.1761,2.1761,2.1698,2.1698,2.1761,2.1761,2.1761,2.1761,2.1698,2.1745,2.2057,2.2492,2.298,2.3306,2.3741,2.4273,2.4273,2.4273,2.4273,0.0,0.0,0.0,0.0,0.0,0.0,0.0,0.0,0.0,0.0,0.0,0.8148,0.7864,0.7987,0.7989,0.7723,0.7883,0.7928,0.7727,0.721,0.6907,0.6907,0.627,0.5847,0.5712,0.5588,0.5507,0.5463,0.5366,0.5211,0.0,0.4719,0.4605,0.4604,0.4492,0.4441,0.4473,0.4441,0.4377,0.4312,0.435,0.4558,0.4875,0.4504,0.4637,0.4985,0.4565,0.0,0.0,0.3923,0.3691,0.3565,0.363,0.0,0.0,0.0,0.5211,0.0,0.9066,1.1498,1.3886,0.0,1.7638,1.8442,1.8442,0.0,2.056,2.056,2.0955,2.1348,2.1474,2.1737,2.1925,2.1999,2.2123,2.2197,2.2197,2.242,2.2641,2.2702,2.3148,2.3492,2.361,2.3846,2.4021,2.4021,2.3669,2.3374,2.3088,2.275,2.2469,2.2197,2.2061,2.1999,2.1925,2.1812,2.1686,2.1549,2.1486,2.1434,2.1434,2.1434,2.1486,2.1549,2.1549,2.1486,2.1446,2.1603,2.1932,2.2361,2.2811,2.3328,2.381,2.4097,2.42,2.42,0.0,0.0,0.0,0.0,0.0,0.0,0.0,0.0,0.0,0.0,0.0,0.8432,0.8033,0.0,0.0,0.0,0.7702,0.7656,0.7572,0.7027,0.6641,0.6556,0.6019,0.5593,0.5285,0.5507,0.5507,0.5285,0.5261,0.0,0.4996,0.4727,0.4587,0.0,0.4377,0.4377,0.4505,0.0,0.0,0.4329,0.4514,0.4908,0.5351,0.5001,0.5242,0.5717,0.4931,0.0,0.0,0.0,0.0,0.0,0.0,0.3467,0.0,0.0,0.0,0.0,0.0,0.0,1.2578,1.5384,1.6732,1.7488,0.0,0.0,2.0096,0.0,2.07,2.1221,2.1336,2.16,2.18,2.1862,2.1999,2.2123,2.2123,2.2185,2.2359,2.2811,2.2859,2.304,2.3505,2.3564,2.3564,2.3564,2.316,2.2859,2.2798,2.2347,2.2135,2.2073,2.1937,2.18,2.18,2.1624,2.1486,2.1336,2.1221,2.1221,2.1221,2.1221,2.1221,2.1336,2.1336,2.1273,2.1221,2.1221,2.1468,2.1973,2.2478,2.2995,2.3429,2.4005,2.42,2.42,0.0,0.0,0.0,0.0,0.0,0.0,0.0,0.0,0.0,0.0,0.0,0.8493,0.8459,0.8038,0.7718,0.7695,0.7709,0.7572,0.7258,0.6901,0.6556,0.6221,0.589,0.0,0.5285,0.5333,0.5333,0.5285,0.0,0.0,0.4996,0.4727,0.4484,0.4312,0.4312,0.4312,0.4312,0.0,0.0,0.0,0.0,0.0,0.0,0.0,0.0,0.0,0.0,0.0,0.0,0.0,0.0,0.0,0.0,0.0,0.0,0.0,0.0,0.0,0.0,0.8333,0.0,1.296,1.4639,0.0,0.0,0.0,2.0096,2.0096,2.07,2.1221,2.1221,2.1336,2.1463,2.1698,2.1812,2.1937,2.1937,2.2061,2.2197,2.2247,2.2247,2.2247,2.2309,2.2309,2.2309,2.2309,2.2247,2.2185,2.1987,2.1925,2.1874,2.1698,2.1698,2.1624,2.1451,2.1285,2.1233,2.1221,2.1221,2.1221,2.1221,2.1221,2.1221,2.1221,2.1221,2.1221,2.1221,2.1221,2.1468,2.1973,2.2478,2.2995,2.3429,2.4005,2.42,2.42,0.0,0.0,0.0,0.0,0.0,0.0,0.0,0.0,0.0,0.0,0.0,0.0,0.0,0.796,0.7941,0.7421,0.7176,0.7154,0.7363,0.6774,0.6264,0.5964,0.5804,0.5507,0.5116,0.542,0.5428,0.0,0.0,0.4931,0.4732,0.4524,0.4367,0.4312,0.4312,0.4312,0.4312,0.4312,0.0,0.0,0.0,0.0,0.0,0.0,0.0,0.0,0.0,0.0,0.0,0.0,0.0,0.0,0.0,0.0,0.0,0.0,0.0,0.0,0.0,0.0,0.0,1.1428,1.3368,1.4851,1.5496,1.7222,1.89,1.9309,1.9966,2.0635,2.1094,2.1336,2.1388,2.1474,2.1686,2.1761,2.1761,2.1824,2.1886,2.1886,2.1886,2.1886,2.1886,2.1937,2.1999,2.1999,2.1999,2.1999,2.1925,2.1812,2.1761,2.1698,2.1549,2.1411,2.1285,2.1221,2.1221,2.1221,2.1221,2.1221,2.1221,2.1221,2.1221,2.1221,2.1221,2.1221,2.1221,2.1221,2.1273,2.1479,2.1996,2.2501,2.3018,2.3523,2.3913,2.42,0.0,0.0,0.0,0.0,0.0,0.6624,0.6891,0.7067,0.7203,0.7334,0.0,0.0,0.0,0.0,0.7874,0.7148,0.689,0.682,0.6922,0.647,0.6007,0.5663,0.5588,0.5341,0.4881,0.5259,0.523,0.4799,0.485,0.4728,0.0,0.4361,0.4312,0.4312,0.4312,0.4312,0.0,0.0,0.0,0.4361,0.0,0.0,0.6153,0.0,0.0,0.0,0.0,0.0,0.0,0.0,0.0,0.0,0.0,0.0,0.0,0.0,0.0,0.0,0.6715,0.0,0.0,0.0,0.0,1.3087,1.4233,0.0,1.7573,1.8475,1.9243,1.9966,2.07,2.088,2.1071,2.1273,2.1474,2.1612,2.1612,2.1624,2.1698,2.1698,2.1698,2.1698,2.1698,2.1812,2.1874,2.1812,2.1874,2.1862,2.1726,2.1675,2.1561,2.1498,2.1411,2.1273,2.1221,2.1221,2.1221,2.1221,2.1221,2.1221,2.1221,2.1221,2.1221,2.1221,2.1221,2.1221,2.1221,2.1221,2.1221,2.1279,2.1732,2.2237,2.2742,2.3259,2.3764,2.4127,0.0,0.0,0.5643,0.5855,0.6072,0.6209,0.6209,0.6591,0.7005,0.7301,0.0,0.0,0.0,0.0,0.0,0.683,0.6799,0.6562,0.5843,0.602,0.5905,0.5313,0.5265,0.5079,0.4613,0.4853,0.4794,0.4395,0.4516,0.4498,0.4297,0.4289,0.4312,0.4312,0.4312,0.4312,0.4312,0.0,0.4312,0.4405,0.0,0.6121,0.5852,0.0,0.0,0.0,0.7236,0.7328,0.0,0.696,0.0,0.0,0.0,0.0,0.0,0.0,0.0,0.0,0.0,0.0,0.0,0.0,0.0,0.0,1.4004,1.5388,1.6334,1.7646,1.8479,1.9177,1.9901,2.0107,2.0302,2.1031,2.1273,2.1388,2.1388,2.1549,2.1698,2.1698,2.1698,2.1698,2.1698,2.1812,2.1812,2.1698,2.1812,2.1726,2.1388,2.1388,2.1336,2.1221,2.1221,2.1221,2.1221,2.1221,2.1221,2.1221,2.1221,2.1221,2.1221,2.1221,2.1221,2.1221,2.1221,2.1158,2.1158,2.1158,2.1158,2.1204,2.1644,2.2147,2.2719,2.3236,2.367,2.402,0.0,0.5251,0.5444,0.5723,0.5996,0.6188,0.6188,0.6505,0.6616,0.0,0.0,0.0,0.6329,0.6194,0.62,0.6416,0.5887,0.5597,0.5781,0.5508,0.5157,0.4803,0.4966,0.4812,0.4238,0.4747,0.4716,0.4171,0.4469,0.4488,0.4306,0.4312,0.4312,0.4312,0.4312,0.4312,0.4312,0.4312,0.0,0.4421,0.5997,0.646,0.0,0.0,0.0,0.0,0.0,0.775,0.7588,0.0,0.7362,0.6316,0.0,0.0,0.0,0.0,0.0,0.0,0.5596,0.0,0.0,0.0,0.0,0.0,1.0897,1.3182,1.5352,1.6379,1.738,1.8307,1.9177,1.977,2.0172,2.0366,2.0892,2.1285,2.1285,2.1296,2.136,2.136,2.136,2.136,2.136,2.1474,2.1526,0.0,2.1526,2.1526,2.1388,2.1336,2.1221,2.1221,2.1221,2.1221,2.1221,2.1221,2.1221,2.1221,2.1221,2.1221,2.1221,2.1221,2.1221,2.1221,2.1221,2.0892,2.0431,2.0431,2.0107,1.9649,2.0314,2.093,2.1486,2.2491,2.284,2.28,0.455,0.5034,0.5446,0.5435,0.5758,0.6031,0.6031,0.6027,0.5923,0.0,0.0,0.0,0.5726,0.559,0.5621,0.5786,0.5345,0.5107,0.5287,0.5016,0.4774,0.4623,0.4547,0.4309,0.3928,0.4146,0.412,0.3844,0.3951,0.4086,0.4183,0.4081,0.4145,0.4312,0.4312,0.4312,0.0,0.0,0.0,0.0,0.596,0.0,0.0,0.7719,0.8321,0.0,0.0,0.0,0.8393,0.8991,0.8204,0.0,0.0,0.0,0.0,0.0,0.0,0.0,0.0,0.0,0.0,0.0,0.0,0.0,1.0468,1.2423,1.4436,1.6071,1.693,1.7638,1.8432,1.89,1.9299,1.9573,2.0031,2.0495,2.1094,2.1221,2.1221,2.1221,2.1221,2.1221,2.1221,2.1336,2.1388,2.1336,2.14,2.1388,2.1336,2.1221,2.1221,2.1221,2.1221,2.1221,2.1221,2.1221,2.1221,2.1221,2.1221,2.1221,2.1221,2.1221,2.1221,2.1221,2.1221,2.0764,2.0107,1.977,1.9573,1.9507,1.9901,2.0599,2.1408,2.1756,2.2098,2.2136,0.0,0.4744,0.5332,0.5059,0.5385,0.5676,0.5716,0.5292,0.5103,0.0,0.537,0.5468,0.5774,0.5584,0.5341,0.5033,0.5018,0.4875,0.4587,0.4588,0.4548,0.4505,0.4023,0.3684,0.3554,0.3337,0.3263,0.3397,0.3303,0.3467,0.3896,0.3751,0.3881,0.4183,0.4215,0.4248,0.4248,0.0,0.0,0.4557,0.583,0.6266,0.0,0.0,0.8253,0.8259,0.8809,0.9135,0.9287,0.9569,0.9029,0.0,0.0,0.0,0.0,0.0,0.6477,0.0,0.0,0.0,0.0,0.0,0.7266,0.0,1.1118,1.2206,1.3343,1.5724,1.6346,1.6631,1.7349,1.7539,1.7803,1.8393,1.8647,1.9327,2.0741,2.1031,2.1094,2.1094,2.1158,2.1221,2.1221,2.1336,2.1336,2.1221,2.1336,2.1336,2.1221,2.1221,2.1221,2.1221,2.1221,2.1221,2.1221,2.1221,2.1221,2.1221,2.1221,2.1221,2.1221,2.1221,2.1221,2.1221,2.1221,2.0764,2.0031,1.9375,1.9441,1.9901,1.9966,2.0632,2.1506,2.1141,2.1421,2.1808,0.3736,0.4077,0.4436,0.4505,0.4596,0.4793,0.5105,0.5066,0.4931,0.4813,0.4643,0.4549,0.4621,0.4587,0.4537,0.4454,0.446,0.4438,0.4356,0.4056,0.3875,0.3875,0.3513,0.3124,0.2754,0.3056,0.3041,0.2706,0.3294,0.3528,0.3372,0.3588,0.3588,0.3438,0.3691,0.3816,0.3858,0.0,0.0,0.5484,0.5906,0.0,0.7009,0.8316,0.8999,0.9341,0.9599,0.9422,0.893,0.8482,0.8601,0.865,0.0,0.0,0.0,0.6702,0.0,0.0,0.0,0.0,0.0,0.0,0.0,0.0,0.8018,0.9455,1.0831,1.1739,1.2802,1.3753,1.4164,1.4648,1.5077,1.5189,1.6499,1.7978,1.9283,1.9966,2.0302,2.0302,2.0828,2.1221,2.1221,2.1221,2.1221,2.1221,2.1221,2.1221,2.1221,2.1221,2.1221,2.1221,2.1221,2.1221,2.1221,2.1221,2.1221,2.1221,2.1221,2.1221,2.1221,2.1221,2.1221,2.1221,2.1221,2.0764,2.0107,1.9966,1.9299,1.8432,1.8967,1.9362,1.9754,2.1163,2.142,2.0982,0.339,0.3688,0.3995,0.406,0.415,0.4379,0.475,0.4719,0.46,0.4481,0.4356,0.4312,0.4312,0.4312,0.4312,0.4312,0.4312,0.4312,0.4312,0.4016,0.3788,0.3658,0.3233,0.2838,0.251,0.2577,0.2577,0.251,0.2772,0.3003,0.3142,0.3171,0.338,0.3745,0.3725,0.3893,0.4255,0.0,0.4888,0.5435,0.6218,0.0,0.7903,0.8856,0.9443,0.9766,0.9879,0.969,0.9335,0.9173,0.8881,0.0,0.0,0.8183,0.7878,0.0,0.7285,0.7419,0.0,0.0,0.0,0.6416,0.0,0.0,0.0,0.9056,1.0205,1.1353,1.204,1.2619,1.3177,1.3377,1.3521,1.3746,1.509,1.6115,1.6055,1.8047,1.9704,2.0042,2.0096,2.0366,2.1094,2.0892,2.0635,2.0635,2.0302,2.0237,2.0624,2.0635,2.0828,2.1158,2.1221,2.1221,2.1221,2.1221,2.1221,2.1221,2.1221,2.1221,2.1221,2.1221,2.1221,2.1221,2.1221,2.0955,2.0635,2.0226,1.9441,1.8499,1.8844,1.9243,1.9605,2.0237,2.0543,2.0601,0.2766,0.3203,0.3558,0.3489,0.3733,0.4053,0.4365,0.4343,0.4312,0.4312,0.4499,0.4621,0.452,0.4646,0.4692,0.4621,0.455,0.4457,0.4395,0.4181,0.3981,0.3844,0.3119,0.271,0.2697,0.2214,0.2111,0.2377,0.2247,0.2414,0.2907,0.2779,0.3121,0.0,0.0,0.0,0.0,0.0,0.0,0.5545,0.0,0.7575,0.8188,0.8947,0.941,0.9674,0.9852,0.9922,0.99,0.9983,0.9225,0.836,0.8805,0.8504,0.0,0.0,0.0,0.0,0.0,0.0,0.0,0.0,0.0,0.7165,0.0,0.0,0.0,1.1266,0.0,0.0,0.0,0.0,0.0,1.2171,0.0,0.0,0.0,1.5525,0.0,1.8817,1.8984,1.9401,2.0295,1.9882,1.9673,1.9879,1.9123,1.9026,1.9824,1.9901,2.0237,2.0955,2.0955,2.1031,2.1221,2.1221,2.1221,2.1221,2.1221,2.1221,2.1221,2.1221,2.1221,2.1221,2.1221,2.1221,2.1158,2.056,1.977,1.8977,1.8977,1.9375,1.9835,1.9375,1.9873,2.0608,0.1431,0.1988,0.2457,0.2614,0.3015,0.3402,0.3756,0.4096,0.4312,0.4312,0.5239,0.5701,0.5224,0.0,0.0,0.0,0.0,0.0,0.4758,0.444,0.44,0.4644,0.3314,0.2788,0.3373,0.2412,0.1947,0.1978,0.2311,0.2377,0.2217,0.2547,0.2572,0.0,0.3497,0.0,0.0,0.0,0.6212,0.0,0.7569,0.7284,0.0,0.7655,0.828,0.8786,0.962,0.9922,0.9825,0.0,0.9018,0.8738,0.0,0.8375,0.9004,0.708,0.0,0.0,0.0,0.0,0.0,0.0,0.6453,0.0,0.0,0.0,0.7495,0.8111,0.0,0.0,0.0,0.0,0.0,0.0,0.0,0.0,0.9929,1.207,1.3942,1.4596,1.7256,1.8622,1.7638,1.7532,1.7987,1.9017,1.8051,1.7884,1.9048,1.911,1.9441,2.0172,2.0226,2.056,2.1158,2.1221,2.1221,2.1221,2.1221,2.1221,2.1221,2.1221,2.1221,2.1221,2.1221,2.1221,2.1158,2.1094,2.0237,1.8977,1.8977,1.9044,1.9177,1.977,2.0464,2.0975,0.1108,0.1675,0.2139,0.2453,0.2676,0.297,0.3495,0.3751,0.4003,0.4264,0.4593,0.4728,0.0,0.0,0.0,0.0,0.0,0.4947,0.0,0.0,0.4227,0.4108,0.3048,0.259,0.2874,0.2221,0.1911,0.1911,0.2111,0.2145,0.1981,0.2147,0.2437,0.0,0.3199,0.0,0.496,0.0,0.6241,0.0,0.0,0.0,0.0,0.8361,0.9152,0.9383,0.9782,0.9922,0.9873,0.0,0.9135,0.0,0.0,0.0,0.0,0.7847,0.0,0.0,0.0,0.0,0.0,0.0,0.0,0.0,0.6681,0.0,0.707,0.0,0.0,0.0,0.0,0.0,0.0,0.0,0.9128,0.0,0.0,0.0,1.2465,1.3141,0.0,0.0,1.6367,1.7222,1.7841,1.8402,1.7537,1.7402,1.8345,1.8442,1.8977,2.0031,2.0096,2.0431,2.1158,2.1221,2.1221,2.1221,2.1221,2.1221,2.1221,2.1221,2.1221,2.1221,2.1221,2.1221,2.1221,2.1221,2.056,1.9639,1.9639,1.9166,1.8509,1.9166,1.9901,2.0529,0.0875,0.0,0.0,0.2278,0.2408,0.2706,0.3434,0.3569,0.3775,0.4226,0.0,0.0,0.4285,0.4786,0.0,0.0,0.5107,0.5128,0.0,0.0,0.4333,0.3949,0.3011,0.2578,0.2769,0.2176,0.1845,0.1845,0.1878,0.1928,0.1923,0.1923,0.2326,0.3028,0.0,0.3976,0.5374,0.0,0.6337,0.6802,0.7757,0.7795,0.7521,0.898,0.9696,0.9922,0.9922,0.9922,0.9965,0.999,0.9282,0.0,0.9896,0.9295,0.8269,0.0,0.0,0.0,0.7012,0.0,0.0,0.0,0.0,0.0,0.0,0.0,0.0,0.0,0.0,0.0,0.0,0.0,0.0,0.0,0.0,0.8731,0.0,0.9219,0.0,0.0,0.0,0.0,0.0,1.5663,1.6328,1.6949,1.6318,1.6397,1.7472,1.756,1.8094,1.9288,1.9628,2.0096,2.0816,2.1083,2.1221,2.1221,2.1221,2.1221,2.1221,2.1221,2.1221,2.1221,2.1221,2.1221,2.1158,2.1094,2.07,2.0096,1.9911,1.9177,1.8297,1.8844,1.9441,2.0096,0.0471,0.0908,0.0,0.0,0.2175,0.2673,0.3467,0.3649,0.3839,0.0,0.0,0.0,0.0,0.0,0.0,0.0,0.0,0.5994,0.5135,0.0,0.4956,0.4763,0.3489,0.3076,0.0,0.2382,0.1709,0.1709,0.1709,0.1793,0.1997,0.1997,0.2134,0.2386,0.3277,0.3761,0.4066,0.5743,0.6912,0.7634,0.8544,0.9222,0.9717,0.0,0.9125,0.9922,0.9922,0.0,0.0,0.9546,0.9411,0.0,0.0,0.0,0.0,0.0,0.0,0.0,0.0,0.0,0.0,0.668,0.0,0.0,0.0,0.0,0.6751,0.0,0.0,0.0,0.0,0.0,0.0,0.0,0.0,0.0,0.0,0.0,0.0,0.0,0.0,0.0,0.0,1.168,1.2238,0.0,1.3794,1.4328,1.628,1.6342,1.6673,1.7472,1.8355,1.9156,1.9857,2.0752,2.1221,2.1221,2.1221,2.1221,2.1221,2.1221,2.1221,2.1221,2.1221,2.1221,2.1158,2.0764,2.0431,2.0042,1.9396,1.9054,1.8977,1.8977,1.9441,2.0031,0.0403,0.0,0.0,0.0,0.0,0.0,0.3208,0.352,0.0,0.0,0.5219,0.0,0.0,0.631,0.6503,0.0,0.0,0.6041,0.5162,0.5115,0.0,0.4209,0.3341,0.2964,0.0,0.0,0.1837,0.1902,0.1837,0.1893,0.199,0.2028,0.2125,0.2255,0.0,0.366,0.0,0.0,0.0,0.0,0.0,0.9007,0.9238,0.0,0.9642,0.9922,0.9922,0.9922,0.0,1.0081,0.9816,0.9512,1.0093,0.9771,0.913,0.9388,0.9286,0.8962,0.0,0.0,0.8812,0.7578,0.0,0.0,0.0,0.0,0.0,0.0,0.0,0.0,0.0,0.0,0.0,0.6671,0.0,0.0,0.0,0.0,0.0,0.0,0.0,0.0,0.0,0.0,0.0,1.3211,1.4097,1.4869,1.5534,1.6061,1.6682,1.756,1.7901,1.8432,1.9288,2.0096,2.0495,2.0495,2.0967,2.1221,2.1158,2.0892,2.0828,2.0764,2.0571,2.0495,2.0431,2.0302,2.0172,2.0107,1.9846,1.9452,1.9065,1.9065,1.933,1.9726,0.037,0.0562,0.0,0.0,0.0,0.0,0.0,0.0,0.0,0.0,0.5104,0.0,0.5877,0.0,0.6372,0.0,0.6413,0.6248,0.5397,0.5243,0.0,0.3978,0.3349,0.0,0.0,0.0,0.0,0.0,0.1745,0.185,0.1909,0.1947,0.2044,0.2211,0.0,0.3262,0.4478,0.4961,0.6071,0.0,0.0,0.9238,0.0,0.0,0.976,0.9577,0.0,0.9916,1.0067,1.0368,1.0199,0.9955,1.0801,1.0411,0.9681,1.02,0.9989,0.9518,0.9178,0.9478,0.0,0.8416,0.8596,0.0,0.7566,0.0,0.7412,0.0,0.0,0.0,0.0,0.0,0.0,0.6736,0.673,0.0,0.0,0.5836,0.0,0.0,0.0,0.0,0.0,0.0,1.1336,1.2213,1.3201,1.408,1.4958,1.5409,1.6114,1.7028,1.7295,1.7765,1.8297,1.9299,1.9835,1.9835,2.0495,2.0828,2.0828,2.0571,2.0442,2.0431,2.0161,2.0096,2.0107,1.9977,1.9977,2.0107,1.9846,1.9649,1.9462,1.9198,1.9208,1.9407,0.0367,0.0511,0.0,0.0,0.2332,0.0,0.0,0.0,0.3973,0.0,0.5256,0.5381,0.5982,0.6492,0.6661,0.6233,0.6693,0.6664,0.577,0.5407,0.0,0.0,0.3492,0.2765,0.1809,0.0,0.0,0.0,0.0,0.0,0.1713,0.1715,0.1908,0.219,0.2195,0.0,0.346,0.4268,0.5607,0.7314,0.9155,0.9825,0.9798,0.9906,0.948,0.8953,0.9663,0.9992,1.0218,1.0443,1.0588,1.0812,1.1037,1.1111,1.1111,1.1111,1.1111,1.0948,1.02,0.9928,0.9808,0.9132,0.893,0.0,0.0,0.0,0.8133,0.0,0.0,0.0,0.0,0.0,0.0,0.6812,0.6712,0.0,0.0,0.0,0.5058,0.0,0.0,0.0,0.0,0.7455,0.8673,1.0968,1.1138,1.2094,0.0,1.4554,1.4925,1.5726,1.6603,1.7079,1.7079,1.8489,1.9233,1.9233,1.977,2.0031,2.0031,2.0096,2.0107,2.0096,2.0042,2.0031,2.0042,1.9736,1.9791,1.9977,1.933,1.9462,1.9977,1.933,1.9142,1.9142,0.0176,0.0844,0.1435,0.0,0.2405,0.2909,0.0,0.0,0.0,0.0,0.6819,0.7593,0.7871,0.8041,0.7967,0.7623,0.7473,0.0,0.0,0.0,0.0,0.4488,0.335,0.2504,0.2052,0.1588,0.0,0.1127,0.0,0.0,0.1848,0.2001,0.2052,0.2046,0.0,0.0,0.3349,0.3603,0.4891,0.685,0.8699,0.917,0.878,0.0,0.948,0.8953,0.9663,0.9922,0.9992,1.0218,1.0443,1.0588,1.0812,1.0962,1.1111,1.1111,1.1111,1.1063,1.0864,1.081,1.0622,0.9958,0.982,0.9611,0.0,0.0,0.0,0.0,0.0,0.0,0.0,0.0,0.0,0.0,0.0,0.0,0.0,0.0,0.0,0.4491,0.0,0.0,0.0,0.7153,0.8363,0.8817,1.041,1.177,1.283,1.3401,1.416,1.51,1.5912,1.6403,1.6473,1.7413,1.7881,1.7881,1.8957,1.9507,1.9507,1.966,1.9736,1.9736,1.9462,1.933,1.933,1.9264,1.9264,1.933,1.9198,1.9198,1.9396,1.9473,1.9473,1.9473,0.0084,0.0981,0.0,0.1809,0.0,0.0,0.3436,0.4413,0.0,0.6192,0.7295,0.0,0.8544,0.8774,0.8714,0.8423,0.7865,0.0,0.6565,0.0,0.0,0.4887,0.3725,0.267,0.1764,0.1573,0.0,0.0741,0.0,0.1509,0.1762,0.1874,0.1915,0.0,0.0,0.2435,0.2936,0.396,0.5348,0.6984,0.8665,0.9173,0.0,0.9697,0.9669,0.9378,0.9776,0.9922,0.9922,1.0143,1.0293,1.0519,1.0738,1.0962,1.1111,1.1111,1.1111,1.1111,1.1111,1.1111,1.1003,1.0627,1.0518,1.0374,0.9699,0.9513,0.9513,0.0,0.9288,0.9054,0.0,0.0,0.0,0.0,0.0,0.0,0.0,0.0,0.0,0.0,0.465,0.0,0.4311,0.6886,0.8282,0.7602,0.8956,1.0108,1.085,1.1917,1.3018,1.419,1.501,1.563,1.607,1.6376,1.6706,1.707,1.8307,1.8854,1.8854,1.9198,1.9407,1.9341,1.9208,1.9075,1.9075,1.9075,1.9075,1.9065,1.8865,1.8875,1.9065,1.9075,1.9008,1.9075,0.0084,0.1043,0.0,0.0,0.0,0.0,0.0,0.4432,0.0,0.653,0.0,0.808,0.8506,0.8906,0.9081,0.8636,0.0,0.7509,0.7102,0.625,0.5617,0.5259,0.4312,0.2976,0.1332,0.1669,0.1368,0.0,0.0752,0.119,0.1609,0.1609,0.0,0.0,0.0,0.0,0.0,0.4817,0.6277,0.7298,0.8709,0.9473,0.9771,0.9846,0.9922,0.9922,0.9922,0.9922,0.9916,1.0067,1.0293,1.0513,1.0738,1.0887,1.1111,1.1111,1.1111,1.1111,1.1111,1.1111,1.1111,1.1111,1.1111,1.093,1.038,1.0214,1.0214,1.0214,0.9792,0.9446,0.9863,0.0,0.0,0.0,0.0,0.0,0.0,0.0,0.0,0.0,0.0,0.0,0.0,0.642,0.7996,0.6749,0.7231,0.7982,0.8901,0.0,1.164,1.3179,1.4069,1.4925,1.5647,1.5542,1.5816,1.6542,1.7647,1.8202,1.8202,1.8798,1.9075,1.9075,1.9075,1.9075,1.9075,1.9075,1.9075,1.9065,1.8607,1.8674,1.9075,1.8472,1.8269,1.8269,0.0251,0.0,0.0,0.0,0.0,0.4866,0.4662,0.6201,0.747,0.7623,0.8536,0.9072,0.8699,0.905,0.902,0.8273,0.838,0.0,0.0,0.0,0.0,0.5521,0.419,0.2815,0.1332,0.107,0.0703,0.0224,0.0683,0.1154,0.1609,0.1642,0.0,0.0,0.0,0.0,0.3647,0.5053,0.0,0.6897,0.8585,0.9165,0.9008,0.9614,0.9922,0.9922,0.9922,0.9922,0.9922,0.9922,1.0218,1.0519,1.0519,1.0812,1.1111,1.1111,1.1111,1.1111,1.1111,1.1111,1.1111,1.1111,1.1111,1.1075,1.0936,1.09,1.09,1.09,1.0791,1.0586,1.0006,0.0,0.0,0.0,0.0,0.0,0.0,0.0,0.0,0.0,0.0,0.5701,0.0,0.0,0.5798,0.5343,0.5939,0.7019,0.856,0.0,1.0044,0.0,1.3531,1.4463,0.0,1.5417,1.5788,1.5938,1.7038,1.7579,1.7579,1.8596,1.9075,1.9075,1.9075,1.9075,1.9075,1.9075,1.9075,1.9075,1.8998,1.9008,1.9075,1.8472,1.7998,1.7647,0.0,0.0,0.0,0.0,0.0,0.0,0.0,0.8387,0.8926,0.763,0.8724,0.9393,0.8733,0.895,0.8998,0.8627,0.8246,0.794,0.7557,0.6945,0.6325,0.5622,0.4613,0.3207,0.1332,0.1123,0.0742,0.0224,0.0419,0.0895,0.1609,0.1642,0.0,0.165,0.0,0.2764,0.0,0.0,0.0,0.7236,0.8501,0.9013,0.9089,0.969,0.9922,0.9922,0.9922,0.9922,0.9922,0.9922,1.0143,1.0513,1.0513,1.0812,1.1111,1.1111,1.1111,1.1111,1.1111,1.1111,1.1111,1.1111,1.1111,1.1111,1.1111,1.1111,1.1111,1.1111,1.1111,1.087,1.0079,0.9214,0.0,0.0,0.0,0.0,0.0,0.0,0.6919,0.0,0.0,0.0,0.0,0.0,0.0,0.0,0.0,0.6283,0.7695,0.0,0.9216,0.0,0.0,0.0,1.4401,0.0,1.489,1.5797,1.6899,1.7373,1.7451,1.8596,1.9075,1.9075,1.9075,1.9075,1.9065,1.8808,1.8674,1.8607,1.8046,1.7978,1.8124,1.7647,1.7226,1.7097,0.0,0.1962,0.0,0.0,0.5596,0.6803,0.8308,0.958,0.9783,0.8142,0.8986,0.9446,0.8842,0.8877,0.8851,0.8699,0.8093,0.771,0.7484,0.6945,0.6325,0.5622,0.5007,0.36,0.1332,0.1332,0.1006,0.0292,0.0227,0.074,0.175,0.1654,0.165,0.0,0.0,0.0,0.0,0.0,0.6034,0.7447,0.8351,0.8856,0.9246,0.962,0.9846,0.9922,0.9922,0.9922,0.9916,1.0067,1.0293,1.0513,1.0663,1.0887,1.1111,1.1335,1.126,1.1111,1.1111,1.1111,1.1111,1.1111,1.1111,1.1111,1.1111,1.1111,1.1111,1.1111,1.1111,1.087,1.0079,0.949,0.0,0.0,0.0,0.0,0.0,0.0,0.0,0.0,0.0,0.0,0.4983,0.0,0.0,0.0,0.0,0.0,0.6767,0.0,0.0,0.0,1.0739,1.1969,1.3581,0.0,1.4104,1.5677,1.6715,1.7235,1.7235,1.8259,1.8731,1.8731,1.8731,1.8731,1.8731,1.8269,1.8134,1.7998,1.7088,1.7028,1.7304,1.6811,1.6603,1.6673,0.0,0.0,0.0,0.0,0.0,0.7104,0.6593,0.8436,1.0168,1.0677,0.992,0.9319,0.9244,0.8954,0.847,0.771,0.8246,0.8246,0.7561,0.6945,0.6325,0.5622,0.5007,0.36,0.1332,0.1332,0.1115,0.0662,0.0356,0.0895,0.2209,0.1799,0.1786,0.0,0.0,0.0,0.4237,0.5242,0.6028,0.6805,0.8147,0.8703,0.878,0.917,0.9549,0.9922,0.9922,0.9922,0.9992,1.0513,1.0588,1.0663,1.1335,1.1335,1.126,1.2003,1.1706,1.1111,1.1111,1.1111,1.1111,1.1111,1.1111,1.1111,1.1111,1.1111,1.1111,1.1111,1.1111,1.087,1.0079,1.0459,1.0659,0.0,0.0,0.0,0.0,0.0,0.9773,0.8289,0.0,0.0,0.6093,0.5314,0.0,0.0,0.5033,0.0,0.0,0.0,0.0,0.8798,0.9656,1.0547,1.1548,1.3267,1.4462,1.5274,1.6234,1.6673,1.6673,1.7304,1.7579,1.7579,1.7579,1.7579,1.7579,1.751,1.751,1.7442,1.7382,1.7373,1.7304,1.6811,1.6603,1.6542,0.0,0.0,0.0,0.0,0.0,0.0,0.0,0.928,1.0045,1.0351,0.9528,0.8927,0.8927,0.8394,0.7863,0.7557,0.748,0.7326,0.6945,0.6325,0.5705,0.5085,0.4854,0.36,0.1332,0.1332,0.0896,0.0,0.0,0.063,0.1465,0.1808,0.2174,0.2487,0.2703,0.3322,0.4236,0.5235,0.6027,0.6718,0.7868,0.8475,0.878,0.917,0.9549,0.9922,0.9922,0.9922,0.9992,1.0594,1.0962,1.126,1.1484,1.1632,1.1855,1.2224,1.1706,1.1186,1.1706,1.1484,1.1111,1.1111,1.1111,1.1111,1.1111,1.1111,1.1111,1.1111,1.1111,1.1015,1.0701,1.0514,1.0459,1.0616,0.0,0.0,0.0,0.0,0.0,0.932,0.0,0.7931,0.7202,0.6056,0.0,0.0,0.0,0.0,0.0,0.0,0.0,0.8429,0.0,1.0148,1.1192,1.2334,1.347,1.4583,1.5694,1.6378,1.6603,1.7166,1.7373,1.7373,1.7373,1.7373,1.7373,1.7028,1.689,1.689,1.6551,1.6421,1.6421,1.6211,1.614,1.607,0.4749,0.0,0.6211,0.0,0.7409,0.7803,0.9045,0.9216,0.9291,0.9523,0.8846,0.8394,0.8466,0.7931,0.7399,0.7015,0.6556,0.6328,0.6328,0.5702,0.5162,0.4701,0.4545,0.0,0.1332,0.1332,0.0909,-0.0,0.0252,0.0,0.1669,0.215,0.253,0.286,0.3113,0.3555,0.4169,0.5159,0.5857,0.6402,0.7484,0.825,0.8699,0.9013,0.9468,0.9922,0.9922,0.9922,0.9992,1.0594,1.1254,1.1922,1.2063,1.2291,1.2526,1.2592,1.2077,1.1558,1.1855,1.1558,1.1111,1.1111,1.1111,1.1111,1.1111,1.1111,1.1111,1.1111,1.1111,1.1111,1.1111,1.0659,1.0441,1.0918,0.0,0.0,0.0,1.0176,0.0,0.9442,0.8747,0.8229,0.7942,0.6812,0.0,0.0,0.0,0.0,0.0,0.0,0.0,0.0,0.0,0.0,1.058,1.1568,1.2702,1.3926,1.5059,1.5792,1.6234,1.6697,1.6899,1.6899,1.6899,1.6899,1.6899,1.6542,1.6333,1.6342,1.5938,1.5805,1.5805,1.5805,1.5805,1.5805,0.6841,0.6762,0.6487,0.7346,0.7472,0.7472,0.7557,0.7561,0.7787,0.8623,0.8016,0.7553,0.7761,0.7838,0.723,0.5777,0.5622,0.5622,0.5622,0.5085,0.4701,0.0,0.0,0.3056,0.1332,0.1332,0.1331,0.1251,0.0,0.0,0.3342,0.2985,0.2962,0.322,0.3224,0.3424,0.3912,0.5079,0.5622,0.5699,0.7019,0.8016,0.8703,0.8703,0.9236,0.9922,0.9922,0.9922,0.9992,1.0594,1.1471,1.2418,1.3375,1.3317,1.2966,1.339,1.2952,1.2077,1.1335,1.1111,1.1111,1.1111,1.1111,1.1111,1.1111,1.1111,1.1111,1.1111,1.1111,1.1111,1.1111,1.1105,1.1015,1.0767,0.0,0.0,0.0,0.9874,0.0,0.8435,0.8297,0.8291,0.8291,0.77,0.0,0.0,0.0,0.0,0.0,0.0,0.0,0.8285,0.8297,0.0,0.9294,1.1193,1.2474,1.3132,1.417,1.4872,1.5232,1.5625,1.5805,1.5805,1.5805,1.5805,1.5805,1.5797,1.5797,1.5797,1.5805,1.5805,1.5805,1.5805,1.5805,1.5805,0.5622,0.6625,0.7142,0.7443,0.7484,0.7484,0.7484,0.7484,0.7242,0.6454,0.6601,0.6056,0.4203,0.5761,0.6626,0.0,0.5237,0.501,0.0,0.4387,0.4075,0.4075,0.3919,0.3292,0.2117,0.1568,0.1332,0.1332,0.0,0.0,0.3269,0.3152,0.3277,0.3593,0.3593,0.3656,0.3841,0.5082,0.5622,0.5699,0.7249,0.825,0.8703,0.9013,0.9468,0.9922,0.9922,0.9922,0.9992,1.0594,1.1254,1.2063,1.3018,1.3462,1.3753,1.4106,1.3745,1.3025,1.2799,1.2365,1.1781,1.126,1.1111,1.1111,1.1111,1.1111,1.1111,1.1111,1.1111,1.1111,1.1111,1.0966,1.0816,1.0731,1.0417,0.0,0.9892,0.0,0.9478,0.9142,0.9033,0.9033,0.91,0.8409,0.0,0.0,0.0,0.0,0.0,0.0,0.0,0.0,0.8819,0.0,0.9408,1.092,1.1914,1.2402,1.3702,1.4615,1.5215,1.5343,1.5548,1.5805,1.5805,1.5805,1.5805,1.5805,1.5805,1.5805,1.5805,1.5805,1.5805,1.5805,1.5805,1.5805,0.4278,0.6073,0.7169,0.6069,0.6304,0.6461,0.5915,0.5838,0.5523,0.459,0.4892,0.4428,0.2422,0.3826,0.0,0.4059,0.3912,0.3761,0.3444,0.3054,0.2978,0.3294,0.3294,0.2901,0.2038,0.1568,0.0,0.0784,0.1179,0.2071,0.3428,0.3428,0.3548,0.3763,0.3763,0.3763,0.3841,0.4851,0.524,0.5392,0.7092,0.8016,0.8394,0.9089,0.9549,0.9922,0.9922,0.9922,0.9992,1.0293,1.0887,1.1484,1.2285,1.3164,1.3897,1.397,1.3753,1.339,1.2725,1.2218,1.1706,1.126,1.1335,1.1558,1.1558,1.1335,1.1111,1.1111,1.1111,1.1081,1.0985,1.0828,1.0653,1.0459,1.0152,0.9838,0.9742,0.9586,0.937,0.907,0.8967,0.8967,0.9034,0.8538,0.8149,0.0,0.0,0.0,0.0,0.0,0.8138,0.8741,0.922,0.9484,0.9484,1.0836,1.15,1.1518,1.2989,1.4076,1.4804,1.4816,1.5068,1.5521,1.5155,1.507,1.5355,1.5355,1.5355,1.5355,1.5655,1.5805,1.5805,1.5805,1.5867,1.5938,0.2958,0.5292,0.6461,0.3579,0.4358,0.4825,0.3348,0.3115,0.3036,0.296,0.2958,0.2728,0.2033,0.2033,0.18,0.1175,0.0,0.0,0.1332,0.1332,0.1646,0.2353,0.2431,0.2038,0.1332,0.1254,0.0784,-0.0,0.1646,0.2902,0.3684,0.3763,0.3763,0.3763,0.3763,0.3763,0.3841,0.4465,0.4701,0.4857,0.656,0.7415,0.788,0.8899,0.9519,0.9894,0.9894,0.9884,0.9943,0.9943,1.031,1.0887,1.126,1.2358,1.3528,1.3112,1.3324,1.331,1.17,1.126,1.126,1.1111,1.1632,1.2231,1.2231,1.1632,1.1111,1.1111,1.1099,1.1009,1.0767,1.0689,1.0508,0.9952,0.9856,0.976,0.952,0.9484,0.9208,0.8459,0.0,0.0,0.8375,0.8211,0.8428,0.0,0.0,0.0,0.0,0.0,0.7704,0.946,0.9484,0.9484,0.9484,1.0773,1.1149,1.0611,1.2228,1.3355,1.3992,1.3969,1.436,1.5027,1.3968,1.389,1.453,1.453,1.453,1.4681,1.5426,1.5726,1.5805,1.5805,1.5938,1.6061,0.0,0.0,0.5212,0.3426,0.4358,0.4825,0.3348,0.3115,0.2727,0.1561,0.1405,0.0938,-0.0314,0.0157,0.0157,-0.0628,0.0706,0.1489,0.1332,0.1332,0.141,0.1568,0.1568,0.1489,0.1332,0.0627,0.0235,-0.0,0.1646,0.2588,0.2824,0.3528,0.3763,0.3763,0.3763,0.3763,0.3841,0.4465,0.4701,0.4862,0.6602,0.7442,0.7616,0.8795,0.9502,0.9907,0.9907,1.0037,1.0207,1.0207,1.0455,1.0812,1.0887,1.1687,1.2785,1.3738,1.4545,1.4919,1.3382,1.2945,1.2652,1.1403,1.126,1.1409,1.1409,1.126,1.1111,1.1111,1.0954,1.0797,1.0731,1.0393,1.0079,0.9892,0.9706,0.9556,0.9496,0.9484,0.9412,0.0,0.9128,0.9128,0.9196,0.8566,0.8025,0.0,0.0,0.7448,0.7565,0.7578,0.8176,0.946,0.9484,0.9484,0.9484,1.0295,1.0905,1.1274,1.1659,1.2145,1.2546,1.2766,1.3157,1.3561,1.3539,1.36,1.3745,1.3745,1.4106,1.4601,1.4824,1.5275,1.5805,1.5805,1.5938,1.6061,-0.0,0.2261,0.3581,0.1483,0.2338,0.2813,0.1347,0.1111,0.0798,-0.0,-0.0081,-0.0566,-0.1863,-0.1522,-0.1591,-0.247,-0.0552,0.0549,0.0157,0.0078,0.0314,0.0705,0.0705,0.0705,0.0705,0.0235,-0.0,-0.0,0.094,0.1568,0.196,0.2823,0.3215,0.3214,0.3606,0.3787,0.3905,0.4223,0.433,0.4537,0.5969,0.6566,0.6735,0.8212,0.9068,0.9481,0.9821,1.0155,1.0449,1.0449,1.0523,1.0543,1.0543,1.1208,1.2057,1.2785,1.3528,1.3825,1.2725,1.2432,1.2285,1.1781,1.1335,1.1186,1.1558,1.1335,1.1111,1.1111,1.09,1.0683,1.0562,1.0212,0.9832,0.9712,0.9268,0.9064,0.943,0.9166,0.9076,0.9442,0.9414,0.9414,0.9484,0.9017,0.8524,0.8193,0.804,0.0,0.816,0.8406,0.8845,0.9472,0.9484,0.9484,0.9484,0.9862,1.0534,1.1516,1.1212,1.1304,1.1802,1.1938,1.2244,1.2782,1.2532,1.2579,1.2952,1.2952,1.3171,1.36,1.4314,1.4903,1.5275,1.5275,1.5346,1.548,-0.1026,0.0864,0.1884,-0.0793,-0.0079,0.0398,-0.106,-0.1309,-0.1318,-0.1512,-0.1515,-0.1935,-0.2938,-0.2886,-0.3179,-0.3991,-0.1913,-0.0943,-0.1649,-0.1649,-0.1333,-0.0626,-0.047,-0.0392,-0.0392,-0.0235,-0.0235,-0.0235,-0.0078,0.0392,0.1097,0.1888,0.2366,0.2523,0.3322,0.3766,0.392,0.392,0.3965,0.412,0.5131,0.5555,0.5722,0.7322,0.8408,0.8986,0.9582,1.0141,1.0686,1.0686,1.0536,1.0342,1.0304,1.0758,1.1241,1.1198,1.1484,1.1706,1.1335,1.1186,1.126,1.1929,1.1632,1.126,1.1929,1.1558,1.1099,1.1057,1.0846,1.058,1.0321,0.9988,0.9688,0.9304,0.8807,0.8651,0.9172,0.0,0.8723,0.94,0.9484,0.9484,0.9484,0.928,0.921,0.9285,0.9215,0.921,0.9285,0.942,0.9484,0.9484,0.9484,0.9484,0.9484,0.9484,1.0104,1.1205,1.0598,1.0661,1.1226,1.1142,1.1546,1.2119,1.1379,1.1484,1.215,1.215,1.2157,1.2445,1.3738,1.4314,1.4458,1.4458,1.4537,1.4609,-0.129,0.0081,0.0729,-0.0996,-0.0166,0.0332,-0.1088,-0.1341,-0.1593,-0.2435,-0.2603,-0.2938,-0.3859,-0.393,-0.4006,-0.4172,-0.3676,-0.3356,-0.3446,-0.3443,-0.3363,-0.3205,-0.2506,-0.2117,-0.2117,-0.1413,-0.1099,-0.1099,-0.0392,0.0078,0.0235,0.104,0.1856,0.2583,0.2717,0.3247,0.4014,0.4014,0.4024,0.4042,0.4881,0.5258,0.5355,0.6579,0.7846,0.8974,0.9234,0.9984,1.0929,1.0929,1.0778,1.0552,1.0353,1.0344,1.0423,1.043,1.0513,1.0887,1.1632,1.1484,1.1111,1.126,1.1186,1.1111,1.126,1.1186,1.1051,1.0828,1.0574,1.0309,0.9976,0.9718,0.9238,0.8297,0.8795,0.9028,0.8255,0.0,0.9346,0.9466,0.9484,0.9484,0.9484,0.8952,0.8554,0.8431,0.8554,0.8554,0.8431,0.9087,0.9484,0.9484,0.9484,0.9484,0.9484,0.9484,0.9606,0.9792,0.9734,0.9734,0.981,1.0288,1.0534,1.0628,1.0955,1.1186,1.126,1.126,1.1706,1.2298,1.2592,1.3098,1.3673,1.3673,1.3745,1.389,-0.1324,-0.0745,-0.0498,-0.1177,-0.0757,-0.0591,-0.1283,-0.1798,-0.232,-0.2779,-0.3303,-0.3994,-0.4863,-0.4981,-0.5119,-0.563,-0.5515,-0.5417,-0.5361,-0.436,-0.383,-0.383,-0.2978,-0.2289,-0.184,-0.1459,-0.1306,-0.1306,-0.0897,-0.0734,-0.0652,0.0082,0.0992,0.1901,0.2423,0.3128,0.411,0.411,0.4136,0.4181,0.457,0.4676,0.4856,0.57,0.6691,0.765,0.8711,0.9269,0.9709,1.0228,1.0253,1.0053,0.9953,1.0088,1.0272,1.0231,1.0405,1.0663,1.1335,1.126,1.0962,1.1037,1.1111,1.1075,1.093,1.09,1.0828,1.0562,1.0303,1.0079,0.9892,0.9658,0.9322,0.8837,0.8801,0.8819,0.8759,0.8801,0.8998,0.943,0.9484,0.9484,0.9484,0.8888,0.8619,0.8888,0.8624,0.8619,0.8888,0.9285,0.9484,0.9484,0.9484,0.9484,0.9484,0.9484,0.9484,0.9484,0.9484,0.9556,0.9706,1.0152,1.0405,1.0562,1.0942,1.1111,1.1111,1.1111,1.1335,1.1706,1.2157,1.2519,1.2879,1.2879,1.2879,1.2952,-0.1356,-0.1358,-0.136,-0.1282,-0.1539,-0.1719,-0.1746,-0.2535,-0.3251,-0.3484,-0.4202,-0.5003,-0.5897,-0.5897,-0.6189,-0.689,-0.6841,-0.6753,-0.6753,-0.5283,-0.4449,-0.4449,-0.3423,-0.2333,-0.1313,-0.1336,-0.1263,-0.1263,-0.1263,-0.1263,-0.1263,-0.0676,0.0085,0.1016,0.1955,0.2927,0.394,0.4114,0.424,0.43,0.43,0.43,0.4387,0.5015,0.5719,0.6505,0.7918,0.8452,0.854,0.9331,0.9488,0.9347,0.9297,0.9461,0.98,0.9911,1.0187,1.0443,1.0887,1.0887,1.0812,1.0962,1.1037,1.1039,1.0707,1.0647,1.0628,1.0309,1.0012,0.985,0.9796,0.9622,0.94,0.9154,0.0,0.8634,0.8874,0.8735,0.8735,0.9215,0.9414,0.9484,0.9484,0.8888,0.8689,0.9215,0.8624,0.8554,0.9215,0.9285,0.935,0.9484,0.9484,0.9484,0.9484,0.9484,0.9484,0.9484,0.9484,0.9622,0.988,1.0212,1.0472,1.0731,1.0997,1.1111,1.1111,1.1111,1.1111,1.1186,1.1781,1.2003,1.2003,1.2003,1.2003,1.2003,-0.1382,-0.1386,-0.1396,-0.1424,-0.2141,-0.2767,-0.2771,-0.357,-0.4461,-0.5361,-0.5542,-0.5985,-0.6874,-0.6953,-0.7034,-0.7034,-0.6993,-0.6912,-0.6912,-0.6672,-0.6499,-0.6499,-0.4836,-0.3093,-0.1344,-0.1263,-0.1263,-0.1263,-0.1263,-0.1263,-0.1264,-0.1288,-0.078,0.0173,0.106,0.2051,0.304,0.3933,0.4293,0.43,0.43,0.43,0.43,0.4659,0.5277,0.6157,0.6776,0.7478,0.8269,0.854,0.8623,0.8578,0.8406,0.8213,0.8269,0.8829,0.9488,0.9992,1.0438,1.0663,1.0738,1.0588,1.0812,1.0971,1.0562,1.0575,1.0574,1.0073,0.9886,0.9796,0.9556,0.9496,0.916,0.8177,0.0,0.0,0.7295,0.8443,0.9215,0.8613,0.9151,0.9484,0.9484,0.8888,0.849,0.8554,0.7907,0.7777,0.8554,0.8554,0.8882,0.9484,0.9484,0.9484,0.9484,0.9484,0.9484,0.9484,0.9484,0.9622,0.988,1.0212,1.0472,1.0731,1.0997,1.1111,1.1111,1.1111,1.1111,1.1111,1.1186,1.1186,1.1186,1.1186,1.1186,1.1186,-0.1592,-0.186,-0.2131,-0.1522,-0.2329,-0.3042,-0.3042,-0.4552,-0.5708,-0.5894,-0.6432,-0.6877,-0.7054,-0.7139,-0.7139,-0.7139,-0.7092,-0.7058,-0.7058,-0.7004,-0.6632,-0.5951,-0.4756,-0.3512,-0.223,-0.1653,-0.1402,-0.1402,-0.1402,-0.1402,-0.1402,-0.1413,-0.0886,-0.0,0.0357,0.1433,0.2957,0.3314,0.3762,0.43,0.43,0.43,0.43,0.4389,0.4746,0.5366,0.6071,0.6425,0.6602,0.7221,0.7489,0.7654,0.7505,0.78,0.8193,0.8711,0.9024,0.9311,0.9916,1.0293,1.0443,1.0513,1.0738,1.0822,1.0344,1.0242,1.0166,0.967,0.9472,0.9332,0.9361,0.9408,0.9277,0.8944,0.0,0.8626,0.8,0.8075,0.8107,0.7842,0.8037,0.8172,0.8172,0.7577,0.7381,0.7772,0.7186,0.7316,0.8425,0.8888,0.9215,0.9484,0.9484,0.9484,0.9484,0.9484,0.9484,0.9484,0.9646,0.9862,1.0188,1.0453,1.0713,1.0966,1.1069,1.1111,1.1111,1.1111,1.1111,1.1111,1.1111,1.1111,1.1111,1.1111,1.1111,1.1111,-0.2596,-0.2598,-0.2777,-0.2418,-0.3041,-0.3753,-0.402,-0.5706,-0.6776,-0.6605,-0.7058,-0.7415,-0.7234,-0.7231,-0.7231,-0.7319,-0.7231,-0.7231,-0.7231,-0.7143,-0.6611,-0.5647,-0.4688,-0.3765,-0.2893,-0.1869,-0.1436,-0.1436,-0.1436,-0.1436,-0.1436,-0.1436,-0.1076,-0.0448,-0.009,0.0717,0.1971,0.2329,0.2955,0.3851,0.3851,0.403,0.43,0.43,0.4389,0.4659,0.5453,0.5542,0.5369,0.6166,0.652,0.67,0.67,0.7208,0.7777,0.8011,0.8204,0.8548,0.9327,0.9614,0.9841,1.0218,1.0519,1.0599,1.0132,1.0016,0.9939,0.9524,0.9053,0.8848,0.9157,0.8818,0.8689,0.9022,0.849,0.7967,0.7832,0.7577,0.7256,0.7125,0.7256,0.7386,0.7386,0.6793,0.6597,0.6994,0.6404,0.6597,0.7767,0.8624,0.9151,0.9215,0.9285,0.935,0.9414,0.9484,0.9526,0.9604,0.979,1.0048,1.0459,1.0641,1.0864,1.1111,1.1111,1.1111,1.1111,1.1111,1.1111,1.1111,1.1111,1.1111,1.1111,1.1111,1.1111,1.1111,-0.4289,-0.358,-0.3223,-0.4111,-0.4469,-0.4914,-0.598,-0.7139,-0.7768,-0.7507,-0.7507,-0.7507,-0.7507,-0.7507,-0.7591,-0.7856,-0.768,-0.7507,-0.7507,-0.7234,-0.6697,-0.5719,-0.4823,-0.3844,-0.2957,-0.1883,-0.1436,-0.1436,-0.1436,-0.1436,-0.1436,-0.1436,-0.1436,-0.1345,-0.0448,-0.0,0.009,0.0985,0.197,0.2867,0.2867,0.3494,0.43,0.43,0.43,0.4387,0.4832,0.501,0.5099,0.5552,0.5733,0.5733,0.5733,0.6168,0.6766,0.6475,0.6944,0.777,0.8521,0.8699,0.8851,0.969,1.0218,1.0375,0.9918,0.993,0.9933,0.9496,0.8778,0.8441,0.8868,0.7842,0.7186,0.8037,0.7447,0.6793,0.6465,0.6854,0.6985,0.6465,0.699,0.7386,0.7386,0.6793,0.6334,0.6079,0.5686,0.5686,0.6334,0.7512,0.8296,0.849,0.8818,0.9081,0.9274,0.9414,0.9616,0.9874,0.9874,1.0143,1.0719,1.0725,1.0864,1.1111,1.1111,1.1111,1.1111,1.1111,1.1111,1.1111,1.1111,1.1111,1.1111,1.1111,1.1111,1.1111,-0.5087,-0.5087,-0.5262,-0.4821,-0.5534,-0.6245,-0.6514,-0.7584,-0.83,-0.8028,-0.8028,-0.794,-0.7768,-0.7768,-0.7856,-0.7856,-0.7856,-0.768,-0.7507,-0.7234,-0.6962,-0.6697,-0.5179,-0.42,-0.3844,-0.2239,-0.1436,-0.1436,-0.1436,-0.1436,-0.1436,-0.1436,-0.1436,-0.1346,-0.1076,-0.0628,-0.0,0.0269,0.1343,0.2867,0.2867,0.3494,0.43,0.43,0.43,0.43,0.4659,0.4924,0.501,0.5371,0.5552,0.5733,0.5733,0.5821,0.594,0.643,0.6627,0.6907,0.7671,0.7851,0.8156,0.9533,1.0067,1.0045,0.9225,0.9005,0.8777,0.7929,0.7403,0.7197,0.74,0.7074,0.6854,0.7251,0.6662,0.6137,0.6071,0.5745,0.5484,0.5289,0.5488,0.555,0.555,0.5422,0.5223,0.5226,0.555,0.5807,0.6067,0.6859,0.7316,0.7381,0.7967,0.8096,0.7642,0.8231,0.8952,0.9746,0.9582,0.9898,1.0725,1.0906,1.1033,1.1111,1.1111,1.1111,1.1111,1.1111,1.1111,1.1111,1.1111,1.1111,1.1111,1.1111,1.1111,1.1111,-0.6334,-0.6239,-0.6328,-0.6154,-0.6511,-0.6956,-0.7309,-0.8028,-0.8476,-0.8201,-0.8201,-0.8113,-0.8028,-0.8028,-0.8028,-0.8208,-0.8116,-0.794,-0.768,-0.7411,-0.7234,-0.7234,-0.5716,-0.4645,-0.4289,-0.2776,-0.1793,-0.1436,-0.1436,-0.1436,-0.1436,-0.1436,-0.1436,-0.1436,-0.1436,-0.1076,-0.0538,-0.0538,0.0358,0.1792,0.1792,0.2329,0.3223,0.3582,0.3762,0.3851,0.448,0.4748,0.4924,0.5285,0.5471,0.5744,0.5741,0.5601,0.5689,0.6063,0.6093,0.6121,0.6838,0.7057,0.731,0.8613,0.9069,0.8993,0.8385,0.8214,0.7948,0.7212,0.674,0.6506,0.6786,0.6283,0.5966,0.6376,0.5785,0.5286,0.5415,0.5024,0.4761,0.4764,0.4831,0.4831,0.4831,0.4831,0.4831,0.4831,0.5153,0.5415,0.5481,0.6071,0.64,0.6531,0.7051,0.7218,0.6835,0.7105,0.7812,0.8927,0.881,0.9325,1.0369,1.0525,1.0812,1.1111,1.1111,1.1111,1.1111,1.1111,1.1111,1.1111,1.1111,1.1111,1.1111,1.1111,1.1111,1.1111,-0.8032,-0.7309,-0.7037,-0.7937,-0.7492,-0.7397,-0.8197,-0.8644,-0.8736,-0.8376,-0.846,-0.846,-0.846,-0.8372,-0.8464,-0.8652,-0.838,-0.8113,-0.7944,-0.768,-0.7507,-0.7507,-0.6435,-0.5361,-0.4289,-0.3401,-0.2419,-0.1436,-0.1436,-0.1436,-0.1436,-0.1436,-0.1436,-0.1436,-0.1436,-0.1436,-0.1436,-0.1436,-0.0897,-0.0,-0.0,0.0537,0.1522,0.2418,0.2777,0.2956,0.4032,0.448,0.4661,0.5114,0.5389,0.5486,0.5479,0.5565,0.5633,0.5589,0.5472,0.5521,0.6112,0.6208,0.6331,0.7084,0.731,0.731,0.7387,0.7387,0.7263,0.6962,0.6399,0.6124,0.6565,0.5483,0.4763,0.5596,0.4934,0.4451,0.4712,0.4634,0.4628,0.4764,0.4764,0.4764,0.4764,0.4764,0.4764,0.4764,0.4628,0.4628,0.4764,0.5223,0.5554,0.576,0.6156,0.6439,0.6611,0.6091,0.6522,0.781,0.7852,0.8565,0.9771,0.9846,1.0293,1.1037,1.1037,1.1111,1.1111,1.1037,1.0962,1.0962,1.0887,1.0962,1.0962,1.0962,1.1037,1.1111,-0.8736,-0.8811,-0.924,-0.9423,-0.9331,-0.9331,-0.9506,-1.0202,-1.0463,-0.9598,-1.0197,-1.0631,-1.0631,-0.9941,-0.9598,-0.9602,-0.8723,-0.8201,-0.8113,-0.794,-0.768,-0.7507,-0.7238,-0.6251,-0.4378,-0.3401,-0.2419,-0.1436,-0.1436,-0.1436,-0.1436,-0.1436,-0.1436,-0.1436,-0.1436,-0.1436,-0.1436,-0.1436,-0.0897,-0.0,-0.0,0.0537,0.1431,0.1611,0.17,0.179,0.2237,0.2862,0.3669,0.4931,0.4661,0.3762,0.3585,0.4484,0.5725,0.5686,0.554,0.5464,0.549,0.5408,0.5442,0.5503,0.5553,0.5705,0.6318,0.6468,0.6307,0.5591,0.5275,0.5121,0.5244,0.4913,0.4684,0.4899,0.4652,0.4502,0.4571,0.4422,0.4367,0.4434,0.4434,0.4434,0.4434,0.4434,0.4434,0.4434,0.4367,0.4367,0.4434,0.4498,0.4675,0.4768,0.5385,0.5523,0.5179,0.5791,0.6672,0.7733,0.7327,0.7816,0.9008,0.9614,0.9992,1.0218,1.0812,1.1111,1.1037,1.0443,1.0143,1.0067,0.9458,0.9609,1.0143,1.0143,1.0588,1.1141,-1.0033,-1.0294,-1.0549,-1.0549,-1.0549,-1.0549,-1.0549,-1.0982,-1.1149,-1.0636,-1.0982,-1.1327,-1.1327,-1.0895,-1.0549,-1.0549,-0.9593,-0.8986,-0.8986,-0.8376,-0.794,-0.768,-0.7591,-0.652,-0.4378,-0.3846,-0.2865,-0.1436,-0.1436,-0.1436,-0.1436,-0.1436,-0.1436,-0.1436,-0.1436,-0.1436,-0.1436,-0.1436,-0.1076,-0.0628,-0.0628,-0.0358,0.009,0.0537,0.0717,0.0806,0.1432,0.2149,0.2867,0.2957,0.2327,0.1522,0.2238,0.3226,0.4204,0.5403,0.5608,0.5518,0.5325,0.5233,0.5159,0.5045,0.5018,0.5093,0.5553,0.5628,0.5476,0.5093,0.4966,0.492,0.492,0.4822,0.4738,0.4738,0.4637,0.4626,0.4626,0.4507,0.4447,0.4387,0.4382,0.436,0.4306,0.43,0.43,0.43,0.43,0.4325,0.4379,0.4382,0.4436,0.4624,0.4906,0.4971,0.4738,0.5244,0.5907,0.6659,0.6504,0.7003,0.8169,0.8546,0.916,0.9922,0.9911,1.0137,1.0443,0.969,0.9311,0.9311,0.8856,0.8932,0.9387,0.9771,1.0443,1.1148,-1.1408,-1.1494,-1.158,-1.1585,-1.158,-1.158,-1.158,-1.1752,-1.1752,-1.158,-1.1666,-1.1757,-1.1757,-1.1666,-1.1494,-1.1327,-1.0549,-1.0115,-1.0115,-0.9244,-0.8548,-0.8116,-0.794,-0.6782,-0.4556,-0.4376,-0.3309,-0.1436,-0.1436,-0.1436,-0.1436,-0.1436,-0.1436,-0.1436,-0.1436,-0.1436,-0.1436,-0.1436,-0.1436,-0.1436,-0.1436,-0.1436,-0.1345,-0.0538,-0.0269,-0.0179,0.0627,0.1254,0.1615,0.0807,-0.009,-0.0538,0.0985,0.17,0.2327,0.4482,0.5227,0.5391,0.5436,0.5311,0.5189,0.5075,0.5031,0.5018,0.5018,0.5018,0.5018,0.5018,0.5018,0.5018,0.5018,0.4934,0.4866,0.4866,0.4762,0.4683,0.4683,0.4737,0.4687,0.4512,0.4501,0.4463,0.4371,0.436,0.436,0.436,0.436,0.4401,0.4496,0.4501,0.4556,0.4678,0.4683,0.4743,0.4863,0.4863,0.5143,0.5637,0.5786,0.6402,0.733,0.7407,0.8322,0.969,0.9008,0.916,0.9846,0.8851,0.8475,0.847,0.8322,0.8475,0.8775,0.9765,1.0513,1.1154,-1.1992,-1.2248,-1.2681,-1.2528,-1.2687,-1.276,-1.276,-1.3451,-1.3711,-1.2845,-1.3294,-1.3743,-1.3743,-1.2966,-1.2186,-1.1413,-1.1149,-1.1149,-1.1149,-1.0977,-1.0366,-0.9061,-0.8973,-0.7918,-0.5539,-0.4734,-0.3309,-0.1436,-0.1436,-0.1436,-0.1436,-0.1436,-0.1436,-0.1436,-0.1436,-0.1436,-0.1436,-0.1436,-0.1436,-0.1436,-0.1436,-0.1436,-0.1346,-0.1256,-0.1256,-0.1166,-0.1076,-0.0986,-0.0718,0.0179,-0.0269,-0.1256,-0.0986,-0.0,0.1342,0.2327,0.3303,0.4343,0.5394,0.5529,0.5317,0.5195,0.5089,0.5018,0.5018,0.5018,0.5018,0.5018,0.5018,0.5018,0.5018,0.5004,0.4991,0.4991,0.489,0.4809,0.4809,0.4719,0.472,0.4701,0.4698,0.4693,0.4679,0.4676,0.4676,0.4676,0.4676,0.4684,0.4698,0.4698,0.4683,0.4806,0.4809,0.4868,0.4991,0.5143,0.5384,0.5637,0.5786,0.6099,0.649,0.7176,0.8016,0.8856,0.878,0.916,0.9765,0.8241,0.7633,0.7561,0.6872,0.7484,0.8851,1.0357,1.1037,1.1184,-1.3782,-1.4028,-1.4364,-1.3886,-1.3795,-1.3789,-1.3964,-1.4307,-1.4391,-1.3964,-1.423,-1.4412,-1.4237,-1.3822,-1.3307,-1.2875,-1.2357,-1.21,-1.21,-1.1585,-1.0712,-0.9492,-0.9405,-0.8352,-0.5983,-0.5534,-0.4554,-0.3041,-0.1972,-0.1436,-0.1436,-0.1436,-0.1436,-0.1436,-0.1436,-0.1436,-0.1436,-0.1436,-0.1436,-0.1436,-0.1436,-0.1436,-0.1436,-0.1436,-0.1436,-0.1436,-0.1436,-0.1436,-0.1345,-0.0718,-0.0897,-0.1436,-0.1436,-0.0896,-0.009,0.1164,0.1878,0.2581,0.3928,0.4394,0.4575,0.4994,0.5071,0.5094,0.5031,0.5018,0.5018,0.5018,0.5018,0.5018,0.5018,0.5018,0.5018,0.5018,0.4972,0.4936,0.4936,0.489,0.483,0.4762,0.4694,0.4726,0.4726,0.4726,0.4726,0.4726,0.4726,0.4681,0.4751,0.4754,0.4811,0.4934,0.4936,0.4961,0.5018,0.5093,0.5326,0.5637,0.5712,0.5948,0.6338,0.6644,0.7253,0.8016,0.7561,0.7787,0.8475,0.733,0.6795,0.6799,0.6416,0.7253,0.8775,0.9528,1.0357,1.119]},{"header":{"parameterUnit":"m.s-1","parameterCategory":1,"la1":30.6,"la2":28.766,"lo1":-90.7593,"lo2":-88.6598,"dy":0.0162,"dx":0.0183,"nx":116,"ny":114,"refTime":"2024-05-14T12:00:00:Z","depth":0,"parameterNumber":3,"parameterNumberName":"V-component_of_WINDS"},"data":[0.0,0.0,0.0,0.0,0.0,0.0,0.0,0.0,0.0,0.0,0.0,0.0,0.0,0.0,0.0,0.0,0.0,0.0,0.0,0.0,0.0,0.0,0.0,0.0,0.0,0.0,0.0,0.0,0.0,0.0,0.0,0.0,0.0,0.0,0.0,0.0,0.0,0.0,0.0,0.0,0.0,0.0,0.0,0.0,0.0,0.0,0.0,0.0,0.0,0.0,0.0,0.0,0.0,0.0,0.0,0.0,0.0,0.0,0.0,0.0,0.0,0.0,0.0,0.0,0.0,0.0,0.0,0.0,0.0,0.0,0.0,0.0,0.0,0.0,0.0,0.0,0.0,0.0,0.0,0.0,0.0,0.0,0.0,0.0,0.0,0.0,0.0,0.0,0.0,0.0,0.0,0.0,0.0,0.0,0.0,0.0,0.0,0.0,0.0,0.0,0.0,0.0,0.0,0.0,0.0,0.0,0.0,0.0,0.0,0.0,0.0,0.0,0.0,0.0,0.0,0.0,0.0,0.0,0.0,0.0,0.0,0.0,0.0,0.0,0.0,0.0,0.0,0.0,0.0,0.0,0.0,0.0,0.0,0.0,0.0,0.0,0.0,0.0,0.0,0.0,0.0,0.0,0.0,0.0,0.0,0.0,0.0,0.0,0.0,0.0,0.0,0.0,0.0,0.0,0.0,0.0,0.0,0.0,0.0,0.0,0.0,0.0,0.0,0.0,0.0,0.0,0.0,0.0,0.0,0.0,0.0,0.0,0.0,0.0,0.0,0.0,0.0,0.0,0.0,0.0,0.0,0.0,0.0,0.0,0.0,0.0,0.0,0.0,0.0,0.0,0.0,0.0,0.0,0.0,0.0,0.0,0.0,0.0,0.0,0.0,0.0,0.0,0.0,0.0,0.0,0.0,0.0,0.0,0.0,0.0,0.0,0.0,0.0,0.0,0.0,0.0,0.0,0.0,0.0,0.0,0.0,0.0,0.0,0.0,0.0,0.0,0.0,0.0,0.0,0.0,0.0,0.0,0.0,0.0,0.0,0.0,0.0,0.0,0.0,0.0,0.0,0.0,0.0,0.0,0.0,0.0,0.0,0.0,0.0,0.0,0.0,0.0,0.0,0.0,0.0,0.0,0.0,0.0,0.0,0.0,0.0,0.0,0.0,0.0,0.0,0.0,0.0,0.0,0.0,0.0,0.0,0.0,0.0,0.0,0.0,0.0,0.0,0.0,0.0,0.0,0.0,0.0,0.0,0.0,0.0,0.0,0.0,0.0,0.0,0.0,0.0,0.0,0.0,0.0,0.0,0.0,0.0,0.0,0.0,0.0,0.0,0.0,0.0,0.0,0.0,0.0,0.0,0.0,0.0,0.0,0.0,0.0,0.0,0.0,0.0,0.0,0.0,0.0,0.0,0.0,0.0,0.0,0.0,0.0,0.0,0.0,0.0,0.0,0.0,0.0,0.0,0.0,0.0,0.0,0.0,0.0,0.0,0.0,0.0,0.0,0.0,0.0,0.0,0.0,0.0,0.0,0.0,0.0,0.0,0.0,0.0,0.0,0.0,0.0,0.0,0.0,0.0,0.0,0.0,0.0,0.0,0.0,0.0,0.0,0.0,0.0,0.0,0.0,0.0,0.0,0.0,0.0,0.0,0.0,0.0,0.0,0.0,0.0,0.0,0.0,0.0,0.0,0.0,0.0,0.0,0.0,0.0,0.0,0.0,0.0,0.0,0.0,0.0,0.0,0.0,0.0,0.0,0.0,0.0,0.0,0.0,0.0,0.0,0.0,0.0,0.0,0.0,0.0,0.0,0.0,0.0,0.0,0.0,0.0,0.0,0.0,0.0,0.0,0.0,0.0,0.0,0.0,0.0,0.0,0.0,0.0,0.0,0.0,0.0,0.0,0.0,0.0,0.0,0.0,0.0,0.0,0.0,0.0,0.0,0.0,0.0,0.0,0.0,0.0,0.0,0.0,0.0,0.0,0.0,0.0,0.0,0.0,0.0,0.0,0.0,0.0,0.0,0.0,0.0,0.0,0.0,0.0,0.0,0.0,0.0,0.0,0.0,0.0,0.0,0.0,0.0,0.0,0.0,0.0,0.0,0.0,0.0,0.0,0.0,0.0,0.0,0.0,0.0,0.0,0.0,0.0,0.0,0.0,0.0,0.0,0.0,0.0,0.0,0.0,0.0,0.0,0.0,0.0,0.0,0.0,0.0,0.0,0.0,0.0,0.0,0.0,0.0,0.0,0.0,0.0,0.0,0.0,0.0,0.0,0.0,0.0,0.0,0.0,0.0,0.0,0.0,0.0,0.0,0.0,0.0,0.0,0.0,0.0,0.0,0.0,0.0,0.0,0.0,0.0,0.0,0.0,0.0,0.0,0.0,0.0,0.0,0.0,0.0,0.0,0.0,0.0,0.0,0.0,0.0,0.0,0.0,0.0,0.0,0.0,0.0,0.0,0.0,0.0,0.0,0.0,0.0,0.0,0.0,0.0,0.0,0.0,0.0,0.0,0.0,0.0,0.0,0.0,0.0,0.0,0.0,0.0,0.0,0.0,0.0,0.0,0.0,0.0,0.0,0.0,0.0,0.0,0.0,0.0,0.0,0.0,0.0,0.0,0.0,0.0,0.0,0.0,0.0,0.0,0.0,0.0,0.0,0.0,0.0,0.0,0.0,0.0,0.0,0.0,0.0,0.0,0.0,0.0,0.0,0.0,0.0,0.0,0.0,0.0,0.0,0.0,0.0,0.0,0.0,0.0,0.0,0.0,0.0,0.0,0.0,0.0,0.0,0.0,0.0,0.0,0.0,0.0,0.0,0.0,0.0,0.0,0.0,0.0,0.0,0.0,0.0,0.0,0.0,0.0,0.0,0.0,0.0,0.0,0.0,0.0,0.0,0.0,0.0,0.0,0.0,0.0,0.0,0.0,0.0,0.0,0.0,0.0,0.0,0.0,0.0,0.0,0.0,0.0,0.0,0.0,0.0,0.0,0.0,0.0,0.0,0.0,0.0,0.0,0.0,0.0,0.0,0.0,0.0,0.0,0.0,0.0,0.0,0.0,0.0,0.0,0.0,0.0,0.0,0.0,0.0,0.0,0.0,0.0,0.0,0.0,0.0,0.0,0.0,0.0,0.0,0.0,0.0,0.0,0.0,0.0,0.0,0.0,0.0,0.0,0.0,0.0,0.0,0.0,0.0,0.0,0.0,0.0,0.0,0.0,0.0,0.0,0.0,0.0,0.0,0.0,0.0,0.0,0.0,0.0,0.0,0.0,0.0,0.0,0.0,0.0,0.0,0.0,0.0,0.0,0.0,0.0,0.0,0.0,0.0,0.0,0.0,0.0,0.0,0.0,0.0,0.0,0.0,0.0,0.0,0.0,0.0,0.0,0.0,0.0,0.0,0.0,0.0,0.0,0.0,0.0,0.0,0.0,0.0,0.0,0.0,0.0,0.0,0.0,0.0,0.0,0.0,0.0,0.0,0.0,0.0,0.0,0.0,0.0,0.0,0.0,0.0,0.0,0.0,0.0,0.0,0.0,0.0,0.0,0.0,0.0,0.0,0.0,0.0,0.0,0.0,0.0,0.0,0.0,0.0,0.0,0.0,0.0,0.0,0.0,0.0,0.0,0.0,0.0,0.0,0.0,0.0,0.0,0.0,0.0,0.0,0.0,0.0,0.0,0.0,0.0,0.0,0.0,0.0,0.0,0.0,0.0,0.0,0.0,0.0,0.0,0.0,0.0,0.0,0.0,0.0,0.0,0.0,0.0,0.0,0.0,0.0,0.0,0.0,0.0,0.0,0.0,0.0,0.0,0.0,0.0,0.0,0.0,0.0,0.0,0.0,0.0,0.0,0.0,0.0,0.0,0.0,0.0,0.0,0.0,0.0,0.0,0.0,0.0,0.0,0.0,0.0,0.0,0.0,0.0,0.0,0.0,0.0,0.0,0.0,0.0,0.0,0.0,0.0,0.0,0.0,0.0,0.0,0.0,0.0,0.0,0.0,0.0,0.0,0.0,0.0,0.0,0.0,0.0,0.0,0.0,0.0,0.0,0.0,0.0,0.0,0.0,0.0,0.0,0.0,0.0,0.0,0.0,0.0,0.0,0.0,0.0,0.0,0.0,0.0,0.0,0.0,0.0,0.0,0.0,0.0,0.0,0.0,0.0,0.0,0.0,0.0,0.0,0.0,0.0,0.0,0.0,0.0,0.0,0.0,0.0,0.0,0.0,0.0,0.0,0.0,0.0,0.0,0.0,0.0,0.0,0.0,0.0,0.0,0.0,0.0,0.0,0.0,0.0,0.0,0.0,0.0,0.0,0.0,0.0,0.0,0.0,0.0,0.0,0.0,0.0,0.0,0.0,0.0,0.0,0.0,0.0,0.0,0.0,0.0,0.0,0.0,0.0,0.0,0.0,0.0,0.0,0.0,0.0,0.0,0.0,0.0,0.0,0.0,0.0,0.0,0.0,0.0,0.0,0.0,0.0,0.0,0.0,0.0,0.0,0.0,0.0,0.0,0.0,0.0,0.0,0.0,0.0,0.0,0.0,0.0,0.0,0.0,0.0,0.0,0.0,0.0,0.0,0.0,0.0,0.0,0.0,0.0,0.0,0.0,0.0,0.0,0.0,0.0,0.0,0.0,0.0,0.0,0.0,0.0,0.0,0.0,0.0,0.0,0.0,0.0,0.0,0.0,0.0,0.0,0.0,0.0,0.0,0.0,0.0,0.0,0.0,0.0,0.0,0.0,0.0,0.0,0.0,0.0,0.0,0.0,0.0,0.0,0.0,0.0,0.0,0.0,0.0,0.0,0.0,0.0,0.0,0.0,0.0,0.0,0.0,0.0,0.0,0.0,0.0,0.0,0.0,0.0,0.0,0.0,0.0,0.0,0.0,0.0,0.0,0.0,0.0,0.0,0.0,0.0,0.0,0.0,0.0,0.0,0.0,0.0,0.0,0.0,0.0,0.0,0.0,0.0,0.0,0.0,0.0,0.0,0.0,0.0,0.0,0.0,0.0,0.0,0.0,0.0,0.0,0.0,0.0,0.0,0.0,0.0,0.0,0.0,0.0,0.0,0.0,0.0,0.0,0.0,0.0,0.0,0.0,0.0,0.0,0.0,0.0,0.0,0.0,0.0,0.0,0.0,0.0,0.0,0.0,0.0,0.0,0.0,0.0,0.0,0.0,0.0,0.0,0.0,0.0,0.0,0.0,0.0,0.0,0.0,0.0,0.0,0.0,0.0,0.0,0.0,0.0,0.0,0.0,0.0,0.0,0.0,0.0,0.0,0.0,0.0,0.0,0.0,0.0,0.0,0.0,0.0,0.0,0.0,0.0,0.0,0.0,0.0,0.0,0.0,0.0,0.0,0.0,0.0,0.0,0.0,0.0,0.0,0.0,0.0,0.0,0.0,0.0,0.0,0.0,0.0,0.0,0.0,0.0,0.0,0.0,0.0,0.0,0.0,0.0,0.0,0.0,0.0,0.0,0.0,0.0,0.0,0.0,0.0,0.0,0.0,0.0,0.0,0.0,0.0,0.0,0.0,0.0,0.0,0.0,0.0,0.0,0.0,0.0,0.0,0.0,0.0,0.0,0.0,0.0,0.0,0.0,0.0,0.0,0.0,0.0,0.0,0.0,0.0,0.0,0.0,0.0,0.0,0.0,0.0,0.0,0.0,0.0,0.0,0.0,0.0,0.0,0.0,0.0,0.0,0.0,0.0,0.0,0.0,0.0,0.0,0.0,0.0,0.0,0.0,0.0,0.0,0.0,0.0,0.0,0.0,0.0,0.0,0.0,0.0,0.0,0.0,0.0,0.0,0.0,0.0,0.0,0.0,0.0,0.0,0.0,0.0,0.0,0.0,0.0,0.0,0.0,0.0,0.0,0.0,0.0,0.0,0.0,0.0,0.0,0.0,0.0,0.0,0.0,0.0,0.0,0.0,0.0,0.0,0.0,0.0,0.0,0.0,0.0,0.0,0.0,0.0,0.0,0.0,0.0,0.0,0.0,0.0,0.0,0.0,0.0,0.0,0.0,0.0,0.0,0.0,0.0,0.0,0.0,0.0,0.0,0.0,0.0,0.0,0.0,0.0,0.0,0.0,0.0,-1.0384,0.0,0.0,0.0,0.0,0.0,0.0,0.0,0.0,0.0,0.0,0.0,0.0,0.0,0.0,0.0,0.0,0.0,0.0,0.0,0.0,0.0,0.0,0.0,0.0,0.1682,0.0841,0.0706,-0.0269,-0.0976,-0.1246,0.0,0.0,0.0,0.0,0.0,0.0,0.0,-0.0645,-0.0418,0.033,0.1459,0.2915,0.2711,0.0,0.0,0.0,0.0,0.0,0.0,0.0,0.0,0.0,0.0,0.0,0.0,0.0,0.0,0.0,0.0,0.0,0.0,0.0,0.0,0.0,0.0,0.0,0.0,0.0,0.0,0.0,0.0,0.0,0.0,0.0,0.0,0.0,0.0,0.0,0.0,0.0,0.0,0.0,0.0,0.0,0.0,0.0,0.0,0.0,0.0,0.0,0.0,0.0,0.0,0.0,0.0,0.0,0.0,0.0,0.0,0.0,0.0,0.0,0.0,0.0,0.0,0.0,0.0,0.0,0.0,0.0,0.0,0.0,0.0,0.0,0.0,0.0,-1.018,0.0,0.0,0.0,0.0,0.0,0.0,0.0,0.0,0.0,0.0,0.0,0.0,0.0,0.0,0.0,0.0,0.0,0.0,0.0,0.0,0.0,0.2918,0.2814,0.138,0.0303,0.0034,-0.1279,-0.2089,-0.2065,-0.1907,-0.1813,-0.1795,-0.1801,-0.169,-0.1487,-0.1079,-0.1043,-0.1387,0.0616,0.2534,0.431,0.4144,0.0,0.0,0.0,0.0,0.0,0.0,0.0,0.0,0.0,0.0,0.0,0.0,0.0,0.0,0.0,0.0,0.0,0.0,0.0,0.0,0.0,0.0,0.0,0.0,0.0,0.0,0.0,0.0,0.0,0.0,0.0,0.0,0.0,0.0,0.0,0.0,0.0,0.0,0.0,0.0,0.0,0.0,0.0,0.0,0.0,0.0,0.0,0.0,0.0,0.0,0.0,0.0,0.0,0.0,0.0,0.0,0.0,0.0,0.0,0.0,0.0,0.0,0.0,0.0,0.0,0.0,-1.0242,-0.9868,-0.9767,-0.9194,-0.9415,-1.0363,-1.06,-1.1104,-1.1567,-0.988,0.0,0.0,0.0,0.0,0.0,0.0,0.0,0.0,0.0,0.0,0.0,0.0,0.0,0.0,0.0,0.0,0.0,0.0,0.0,0.3149,0.3149,0.1311,0.0034,0.0,-0.1279,-0.2019,-0.1853,-0.192,-0.1922,-0.1816,-0.1746,-0.1761,-0.1825,-0.1659,-0.1486,-0.1313,0.0651,0.254,0.4276,0.3441,0.3473,0.4089,0.3548,0.0,0.0,0.0,0.0,0.0,0.0,0.0,0.0,0.0,0.0,0.0,0.0,0.0,0.0,0.0,0.0,0.0,0.0,0.0,0.0,0.0,0.0,0.0,0.0,0.0,0.0,0.0,0.0,0.0,0.0,0.0,0.0,0.0,0.0,0.0,0.0,0.0,0.0,0.0,0.0,0.0,0.0,0.0,-1.231,-1.2329,0.0,0.0,0.0,0.0,0.0,0.0,0.0,0.0,0.0,0.0,0.0,0.0,0.0,-1.1223,-1.0549,-1.1428,-1.1574,-1.1017,-1.1713,-1.2054,-1.2054,-1.1873,-1.1753,-1.1721,-1.198,0.0,-1.0436,-1.0333,0.0,0.0,0.0,0.0,0.0,0.0,0.0,0.0,0.0,0.0,0.0,0.0,0.0,0.0,0.0,0.0,0.0,0.0,0.0,0.0,0.0,0.0248,-0.0626,-0.0995,-0.1394,-0.1721,-0.185,-0.1812,-0.177,-0.1801,-0.176,-0.1783,-0.1848,-0.2106,-0.1926,-0.1265,-0.0113,0.0922,0.1911,0.2061,0.2918,0.4285,0.4047,0.3748,0.3477,0.3119,0.0,0.0,0.0,0.0,0.0,0.0,0.0,0.0,0.0,0.0,0.0,0.0,0.0,0.0,0.0,0.0,0.0,0.0,0.0,0.0,0.0,0.0,0.0,0.0,0.0,0.0,0.0,0.0,0.0,0.0,0.0,0.0,0.0,0.0,0.0,0.0,0.0,0.0,0.0,-1.175,-1.1724,-1.1797,-1.1393,-1.0699,0.0,0.0,0.0,0.0,0.0,0.0,0.0,0.0,0.0,-1.2632,-1.2554,-1.2547,-1.2711,-1.2802,-1.2722,-1.2429,-1.2267,-1.219,-1.2063,-1.1797,-1.149,-1.122,-1.1245,-1.0889,-1.0299,-1.0448,-0.9804,-0.8721,0.0,0.0,0.0,0.0,-1.0173,-1.0957,0.0,0.0,0.0,0.0,0.0,0.0,0.0,0.0,0.0,0.0,0.0,0.0,-0.0245,-0.0615,-0.1221,-0.208,-0.1859,-0.1822,-0.2205,-0.2101,-0.1996,-0.1876,-0.2059,-0.2076,-0.191,-0.2259,-0.2312,-0.2037,-0.1097,-0.0516,-0.0269,0.1009,0.2154,0.31,0.336,0.3477,0.3516,0.3229,0.2883,0.0,0.0,0.0,0.0,0.0,0.0,0.0,0.0,0.0,0.0,0.0,0.0,0.0,0.0,0.0,0.0,0.0,0.0,0.0,0.0,0.0,0.0,0.0,0.0,0.0,0.0,0.0,0.0,0.0,0.0,0.0,0.0,0.0,0.0,0.0,0.0,0.0,0.0,-1.1979,-1.187,-1.1554,-1.1656,-1.1236,0.0,0.0,0.0,0.0,0.0,0.0,-1.2411,-1.1936,-1.228,-1.3571,-1.3577,-1.3798,-1.4403,-1.4005,-1.3732,-1.3546,-1.2804,-1.2276,-1.189,-1.1594,-1.1354,-1.1136,-1.0994,-1.1096,-1.122,-1.0641,-1.0186,-0.9736,-0.9077,-0.9249,-0.994,-1.0593,-1.1222,-1.2008,0.0,0.0,0.0,0.0,0.0,0.0,0.0,0.0,0.0,0.0,0.0,-0.0854,-0.0854,-0.0886,-0.1468,-0.2896,-0.2862,-0.2842,-0.3129,-0.3186,-0.2893,-0.2131,-0.276,-0.2845,-0.2194,-0.1893,-0.2574,-0.4339,-0.2121,-0.1074,-0.1005,0.0739,0.0941,-0.0202,0.0805,0.2203,0.3833,0.359,0.3447,0.3372,0.0,0.0,0.0,0.0,0.0,0.0,0.0,0.0,0.0,0.0,0.0,0.0,0.0,0.0,0.0,0.0,0.0,0.0,0.0,0.0,0.0,0.0,0.0,0.0,0.0,0.0,0.0,0.0,0.0,0.0,0.0,0.0,0.0,0.0,0.0,0.0,0.0,0.0,0.0,-1.2268,-1.301,0.0,0.0,0.0,0.0,-1.1816,-1.1761,-1.222,-1.3392,-1.3267,-1.3589,-1.4423,-1.4818,-1.4701,-1.4158,-1.4466,-1.4311,-1.3711,-1.3661,-1.3271,-1.2542,-1.2354,-1.2362,-1.2497,-1.2272,-1.2736,-1.3349,-1.1191,-1.0525,-1.0948,-1.0854,-1.1048,-1.1411,-1.2485,-1.2878,-1.3058,0.0,0.0,0.0,0.0,0.0,-0.0033,-0.0066,-0.1489,-0.2636,-0.2922,-0.2359,-0.2117,-0.2587,-0.2279,-0.2516,-0.3685,-0.3285,-0.3147,-0.3556,-0.3385,-0.3209,-0.3142,-0.3086,-0.3149,-0.3364,-0.3547,-0.3854,-0.4356,-0.344,-0.2348,-0.1072,-0.0201,-0.0,-0.0471,-0.0403,0.0067,0.0736,0.2078,0.2666,0.2625,0.2778,0.2053,0.0,0.0,0.0,0.0,0.0,0.0,0.0,0.0,0.0,0.0,0.0,0.0,0.0,0.0,0.0,0.0,0.0,0.0,0.0,0.0,0.0,0.0,0.0,0.0,0.0,0.0,0.0,0.0,0.0,0.0,0.0,0.0,0.0,0.0,0.0,0.0,0.0,-1.2609,-1.333,0.0,-1.1843,-1.2529,-1.2925,-1.256,-1.3221,-1.3877,-1.4483,-1.446,-1.4708,-1.5249,-1.5404,-1.5342,-1.5141,-1.4833,-1.4575,-1.4304,-1.4136,-1.3902,-1.3637,-1.3716,-1.3738,-1.3653,-1.3439,-1.3553,-1.3719,-1.2793,-1.2466,-1.2633,-1.2696,-1.2834,-1.3091,-1.3544,-1.3797,-1.3996,0.0,0.0,0.0,0.2028,0.0033,-0.1342,-0.1255,-0.2413,-0.3369,-0.3677,-0.3257,-0.3115,-0.3725,-0.3297,-0.3343,-0.4237,-0.386,-0.3646,-0.389,-0.3888,-0.3715,-0.3407,-0.3261,-0.362,-0.4483,-0.4478,-0.454,-0.4752,-0.4087,-0.3084,-0.1942,-0.1073,-0.0672,-0.0742,-0.101,-0.1076,-0.1008,0.0738,0.1623,0.1899,0.2502,0.1957,0.0708,0.0,0.0,0.0,0.0,0.0,0.0,0.0,0.0,0.0,0.0,0.0,0.0,0.0,0.0,0.0,0.0,0.0,0.0,0.0,0.0,0.0,0.0,0.0,0.0,0.0,0.0,0.0,0.0,0.0,0.0,0.0,0.0,0.0,0.0,0.0,-1.4122,-1.2946,-1.3737,-1.3869,-1.2531,-1.3637,-1.4344,-1.3993,-1.4819,-1.5378,-1.5536,-1.5482,-1.5603,-1.5863,-1.6085,-1.6224,-1.6224,-1.5963,-1.5824,-1.5824,-1.5651,-1.5409,-1.5133,-1.5291,-1.5324,-1.5235,-1.5,-1.5117,-1.5313,-1.5141,-1.4965,-1.4815,-1.4239,-1.421,-1.451,-1.4637,-1.4738,-1.4909,0.0,0.4238,0.2983,0.0659,-0.0854,-0.2003,-0.2639,-0.3458,-0.3966,-0.3847,-0.3757,-0.3813,-0.4122,-0.385,-0.3904,-0.4463,-0.4522,-0.4431,-0.4133,-0.4819,-0.45,-0.2933,-0.3373,-0.426,-0.5469,-0.4465,-0.4491,-0.5617,-0.4015,-0.3351,-0.3553,-0.1876,-0.1141,-0.1079,-0.1079,-0.1078,-0.1076,-0.0336,0.047,0.1264,0.1713,0.1179,0.0115,0.0,0.0,0.0,0.0,0.0,0.0,0.0,0.0,0.0,0.0,0.0,0.0,0.0,0.0,0.0,0.0,0.0,0.0,0.0,0.0,0.0,0.0,0.0,0.0,0.0,0.0,0.0,0.0,0.0,0.0,0.0,0.0,0.0,-1.4807,-1.5214,-1.5003,-1.3313,-1.4374,-1.4753,-1.3627,-1.4888,-1.5911,-1.6084,-1.636,-1.6475,-1.6494,-1.6357,-1.6239,-1.6249,-1.6919,-1.7204,-1.7204,-1.7797,-1.8128,-1.8128,-1.8128,-1.7746,-1.7052,-1.7052,-1.7052,-1.7052,-1.7052,-1.7437,-1.8128,-1.8128,-1.788,-1.7323,-1.5466,-1.5142,-1.5707,-1.5707,-1.5698,-1.5689,0.4413,0.2634,0.0976,-0.0329,-0.2137,-0.3334,-0.3298,-0.3881,-0.4376,-0.4375,-0.4086,-0.4172,-0.4963,-0.4643,-0.4618,-0.5234,-0.541,-0.5352,-0.4943,-0.5085,-0.4787,-0.3926,-0.4818,-0.5307,-0.5258,-0.5315,-0.5496,-0.5822,-0.5153,-0.4353,-0.3487,-0.2414,-0.1613,-0.1079,-0.1079,-0.1079,-0.1078,-0.0875,-0.0672,-0.0335,0.0851,0.0624,-0.0526,0.0,0.0,0.0,0.0,0.0,0.0,0.0,0.0,0.0,0.0,0.0,0.0,0.0,0.0,0.0,0.0,0.0,0.0,0.0,0.0,0.0,0.0,0.0,0.0,0.0,0.0,0.0,0.0,0.0,0.0,0.0,-1.5715,-1.6456,-1.5664,-1.5892,-1.5904,-1.5465,-1.5668,-1.5692,-1.54,-1.6023,-1.6427,-1.6418,-1.6471,-1.6546,-1.6796,-1.7026,-1.7252,-1.7546,-1.7934,-1.8061,-1.8061,-1.8082,-1.8128,-1.8128,-1.8128,-1.797,-1.7821,-1.7821,-1.7821,-1.7821,-1.7821,-1.7895,-1.8128,-1.8128,-1.8054,-1.7816,-1.7035,-1.6506,-1.6147,-1.6147,-1.5955,-1.5689,0.2393,0.0709,-0.0718,-0.1735,-0.3313,-0.4328,-0.3946,-0.4366,-0.4717,-0.4611,-0.4473,-0.4592,-0.528,-0.5214,-0.5258,-0.5789,-0.5686,-0.543,-0.5077,-0.4936,-0.492,-0.5148,-0.5604,-0.5835,-0.5705,-0.5932,-0.602,-0.602,-0.576,-0.4888,-0.3487,-0.295,-0.2149,-0.1078,-0.1078,-0.1279,-0.1481,-0.1277,-0.1344,-0.1545,-0.047,-0.0522,-0.124,-0.1545,-0.2759,-0.4411,-0.5277,-0.6029,-0.6619,-0.6699,0.0,0.0,0.0,0.0,0.0,0.0,0.0,0.0,0.0,0.0,0.0,0.0,0.0,0.0,0.0,0.0,0.0,0.0,0.0,0.0,0.0,0.0,0.0,0.0,-1.6914,-1.7635,-1.7198,-1.7047,-1.688,-1.6591,-1.6427,-1.6338,-1.6338,-1.6748,-1.7015,-1.7116,-1.73,-1.7514,-1.7889,-1.8139,-1.8379,-1.862,-1.8813,-1.8882,-1.8882,-1.8768,-1.8709,-1.8709,-1.8623,-1.8614,-1.8614,-1.8614,-1.8614,-1.8614,-1.8614,-1.8614,-1.8614,-1.8614,-1.8522,0.0,0.0,0.0,0.0,0.0,-1.6551,-1.6193,-0.0097,-0.1174,-0.2055,-0.3259,-0.4321,-0.4909,-0.4547,-0.4808,-0.4958,-0.4683,-0.4879,-0.5097,-0.5313,-0.5504,-0.5754,-0.6059,-0.5567,-0.5167,-0.496,-0.4688,-0.5085,-0.6308,-0.6017,-0.605,-0.6408,-0.6346,-0.621,-0.6214,-0.602,-0.5087,-0.3553,-0.3553,-0.2683,-0.1143,-0.1143,-0.1545,-0.2147,-0.1679,-0.188,-0.2482,-0.2082,-0.195,-0.2132,-0.2086,-0.3313,-0.5089,-0.5882,-0.6611,-0.7206,-0.7511,0.0,0.0,0.0,0.0,0.0,0.0,0.0,0.0,0.0,0.0,0.0,0.0,0.0,0.0,0.0,0.0,0.0,0.0,0.0,0.0,0.0,0.0,0.0,0.0,-1.8263,-1.921,-1.8861,-1.838,-1.783,-1.7137,-1.6897,-1.6807,-1.6807,-1.7246,-1.7676,-1.8047,-1.8477,-1.8877,-1.9268,0.0,0.0,0.0,0.0,-1.9697,-1.9697,-1.9684,-1.9645,-1.9566,-1.939,-1.9301,-1.9301,-1.9301,-1.9301,-1.9301,-1.9301,-1.9301,-1.9301,-1.9301,-1.9091,-1.8733,-1.8293,-1.8128,-1.8082,-1.7706,-1.7339,-1.7037,-0.127,-0.1768,-0.2593,-0.4151,-0.4535,-0.4712,-0.4985,-0.4788,-0.4697,-0.4985,-0.5101,-0.5246,-0.5537,-0.5782,-0.5972,-0.6116,-0.5802,-0.5517,-0.5411,-0.5831,-0.611,-0.6178,-0.6643,-0.6823,-0.6675,-0.6609,-0.6544,-0.635,-0.6214,-0.5348,-0.3882,-0.382,-0.2954,-0.148,-0.148,-0.1882,-0.2551,-0.2484,-0.2817,-0.348,-0.348,-0.3482,-0.334,-0.3348,-0.4748,-0.6749,-0.7192,-0.8014,-0.8794,-0.8559,-0.8559,-0.8864,-0.958,0.0,0.0,0.0,0.0,0.0,0.0,0.0,0.0,0.0,0.0,0.0,0.0,0.0,0.0,0.0,0.0,0.0,0.0,0.0,0.0,-1.6995,-1.882,-1.9946,-1.9144,-1.9137,-1.8754,-1.7605,-1.7366,-1.7256,-1.7256,-1.7949,-1.8428,-1.8516,-1.8916,-1.9199,-1.9287,-1.9609,-1.9795,-1.9795,-2.0062,-2.0139,-2.0139,-1.9982,-1.9794,-1.9566,0.0,0.0,-1.9301,-1.9301,-1.9301,-1.9301,-1.9301,-1.9301,-1.9301,-1.9301,-1.9256,-1.9118,-1.8403,-1.8128,-1.8109,-1.8036,-1.7954,-1.7834,-0.2715,-0.3216,-0.397,-0.5318,-0.5463,-0.5446,-0.5619,-0.5358,-0.5113,-0.5047,-0.5187,-0.5244,-0.5047,-0.5485,-0.578,-0.5832,-0.6102,-0.6112,-0.5707,-0.6293,-0.6667,-0.6678,-0.6848,-0.6872,-0.6675,-0.6675,-0.6609,-0.642,-0.6412,-0.5811,-0.455,-0.4087,-0.3286,-0.215,-0.215,-0.2552,-0.3288,-0.3418,-0.388,-0.4475,-0.4414,-0.4613,-0.4942,-0.4998,-0.6056,-0.7521,-0.8102,-0.8882,-0.9539,-0.9382,-0.9768,-1.0326,-1.0724,-1.0858,-1.0813,0.0,0.0,0.0,0.0,0.0,0.0,0.0,0.0,0.0,0.0,0.0,0.0,0.0,0.0,-1.5869,-1.6391,0.0,-1.7947,-1.8623,-1.9741,-2.0373,-1.9913,-2.0044,-1.9649,-1.8187,-1.8005,-1.8008,-1.8008,-1.8584,-1.9043,-1.9258,-1.9473,-1.9697,-1.9912,-2.0127,-2.0244,-2.0244,-2.0372,-2.0411,-2.0411,-2.0177,-2.0029,-1.9951,-1.9724,-1.9557,-1.9469,-1.9469,-1.9469,-1.9478,-1.9548,-1.9618,-1.9627,-1.9469,-1.9548,-1.958,-1.9034,-1.8681,-1.8421,-1.8421,-1.8368,-1.823,-0.4258,-0.4833,-0.5453,-0.6229,-0.6299,-0.6237,-0.6221,-0.6014,-0.5672,-0.5099,-0.529,-0.5201,-0.4569,-0.5152,-0.5651,-0.5675,-0.6445,-0.6668,-0.6098,-0.6678,-0.7113,-0.7377,-0.7003,-0.6806,-0.6806,-0.6806,-0.6675,-0.6486,-0.6613,-0.621,-0.5153,-0.4417,-0.3685,-0.3019,-0.2885,-0.3286,-0.4154,-0.4411,-0.5008,-0.5675,-0.5477,-0.5873,-0.6662,-0.6907,-0.7367,-0.7972,-0.8753,-0.9408,-0.9862,-0.9983,-1.0724,-1.1578,-1.1888,-1.1807,-1.1494,-1.093,-1.0948,0.0,0.0,0.0,0.0,0.0,0.0,0.0,0.0,0.0,-1.4502,-1.6161,-1.6497,-1.6798,-1.7827,-1.8319,-1.8983,-2.0441,-2.0765,-2.0846,-2.0818,-2.0885,-2.0414,-1.9008,-1.8819,-1.8803,-1.875,-1.915,-1.9551,-1.9893,-1.999,-2.0195,-2.0547,-2.0566,-2.0566,-2.0566,-2.0566,-2.0566,-2.0566,-2.042,-2.0381,-2.0389,-1.9995,-1.9837,-1.9757,-1.9757,-1.972,-1.9645,-1.9872,-1.9863,-1.9863,-1.9715,-1.9715,-1.9863,-1.9715,-1.9353,-1.8911,-1.8911,-1.8852,-1.8704,-0.5746,-0.6067,-0.626,-0.6307,-0.6153,-0.6168,-0.6579,-0.6358,-0.5924,-0.5255,-0.5449,-0.5381,-0.4603,-0.5421,-0.5997,-0.5964,-0.6801,-0.7149,-0.671,-0.7406,-0.7906,-0.7917,-0.7591,-0.733,-0.7134,-0.7134,-0.7073,-0.6815,-0.6741,-0.6276,-0.5547,-0.4686,-0.422,-0.4087,-0.3418,-0.3949,-0.5213,-0.5415,-0.6075,-0.7003,-0.7265,-0.7777,-0.8474,-0.8994,-0.8818,-0.8511,-0.9081,-0.96,-0.9983,-1.0174,-1.08,-1.1545,-1.1888,-1.2364,-1.2597,-1.1545,0.0,-1.0449,-0.9391,-0.9886,-1.0904,-1.1729,-1.2457,-1.3762,0.0,0.0,-1.7235,-1.897,-1.9346,-1.9535,-2.024,-2.0351,-2.0614,-2.1292,-2.1807,-2.1998,-2.1699,-2.1558,-2.1244,-2.0521,-1.9928,-1.9474,-1.9242,-1.959,-1.9863,-1.9912,-2.0273,-2.0508,-2.0566,-2.0566,-2.0566,-2.0566,-2.0566,-2.0566,-2.0566,-2.0566,-2.0683,-2.0813,-2.0813,-2.0652,-2.05,-2.05,-2.0301,-1.9863,-1.9863,-1.9863,-1.9863,-1.9863,-1.9863,-1.9863,-1.9863,-1.9835,-1.9797,-1.9797,-1.9769,-1.9674,-0.6097,-0.6665,-0.7139,-0.688,-0.6579,-0.6548,-0.6948,-0.682,-0.6529,-0.6127,-0.5928,-0.5611,-0.5023,-0.5384,-0.5819,-0.6109,-0.7385,-0.7991,-0.7494,-0.8288,-0.8565,-0.8112,-0.7717,-0.733,-0.7012,-0.7138,-0.7073,-0.6881,-0.6942,-0.6741,-0.6346,-0.5481,-0.5084,-0.5017,-0.468,-0.4942,-0.5866,-0.6465,-0.7125,-0.7847,-0.8242,-0.863,-0.9005,-1.0015,-1.0205,-0.9914,-0.9836,-0.9854,0.0,0.0,-1.1186,-1.1537,-1.2442,-1.2445,-1.2007,-1.1172,-1.0795,0.0,-1.1558,0.0,0.0,0.0,-1.3886,-1.486,-1.6627,-1.7199,-1.7787,-1.9484,-2.0075,-2.0376,-2.0668,-2.0983,-2.133,0.0,-2.2159,-2.2318,-2.2344,-2.2542,-2.2274,-2.1235,-2.1124,-2.073,-1.9777,-2.0039,-2.0293,-2.0293,-2.0469,-2.0566,-2.0566,-2.0566,-2.0566,-2.0566,-2.0566,-2.0684,-2.0947,-2.0957,-2.1092,-2.152,-2.1327,-2.1245,-2.1081,-2.1081,-2.0943,-2.062,-2.0439,-2.0333,-2.0333,-2.0177,-2.0177,-2.0333,-2.0177,-2.0177,-2.0255,-2.002,-2.002,-2.0079,-0.6605,-0.72,-0.7753,-0.755,-0.7277,-0.7139,-0.7305,-0.7344,-0.7209,-0.6877,-0.6505,-0.6162,-0.5784,-0.5795,-0.603,-0.6507,-0.7905,-0.8602,-0.8259,-0.8997,-0.9172,-0.8613,-0.8172,-0.7722,-0.7204,-0.7335,-0.7335,-0.7073,-0.7138,-0.7138,-0.6946,-0.6079,-0.5811,-0.5947,-0.5675,-0.587,-0.6523,-0.7256,-0.7852,-0.8436,-0.9011,-0.9338,-0.9588,-1.0654,-1.0986,-1.0823,-1.053,-1.0272,0.0,0.0,-1.097,-1.1164,-1.1909,-1.1789,-1.1148,-1.0526,-1.0343,-1.0644,-1.2194,0.0,0.0,-1.4134,-1.5175,-1.6081,-1.6849,-1.7639,-1.8532,-1.977,-2.0489,-2.0995,-2.1091,-2.1443,-2.1895,-2.2447,-2.2535,-2.2568,-2.2689,-2.3145,-2.2953,-2.1541,-2.1871,-2.1638,-2.023,-2.0381,-2.0566,-2.0566,-2.0566,-2.0566,-2.0566,-2.0566,-2.0566,-2.0566,-2.0684,-2.0908,-2.123,-2.1357,-2.1631,-2.206,-2.1864,-2.1771,-2.1762,-2.1655,-2.1457,-2.1221,-2.0889,-2.0684,-2.0566,-2.0411,-2.0498,-2.0566,-2.042,-2.0498,-2.0566,-2.0255,-2.0177,-2.0411,-0.7744,-0.782,-0.7907,-0.8223,-0.8135,-0.7982,-0.7715,-0.7966,-0.7937,-0.728,-0.722,-0.7153,-0.6889,-0.6854,-0.7005,-0.742,-0.8096,-0.8709,-0.9135,-0.9468,-0.9616,-0.9494,-0.9139,-0.863,-0.7987,-0.7987,-0.7787,-0.7461,-0.7265,-0.7204,-0.7204,-0.6272,-0.6207,-0.6815,-0.6207,-0.6465,-0.7456,-0.7596,-0.8122,-0.8835,-0.9524,-1.0098,-1.0624,-1.1115,-1.1027,-1.0632,-1.084,0.0,0.0,-0.9755,-0.9798,-1.0172,-0.9739,-0.9977,0.0,-0.9617,-0.9513,-0.9674,-0.9882,0.0,-1.2981,-1.43,-1.5859,-1.7423,-1.8401,-1.9419,-2.0212,-2.0586,-2.1079,-2.1631,-2.2171,-2.2272,-2.2472,-2.2965,-2.3053,-2.3005,-2.2739,-2.3145,-2.2953,-2.1541,-2.1871,-2.1765,0.0,-2.0557,-2.0566,-2.0566,-2.0566,-2.0566,-2.0566,-2.0566,-2.0566,-2.0566,-2.0986,-2.1221,-2.123,-2.165,-2.208,-2.249,-2.249,-2.249,-2.248,-2.207,-2.165,-2.123,-2.1221,-2.0967,-2.0566,-2.0566,-2.0566,-2.0566,-2.0566,-2.0566,-2.0566,-2.0566,-2.0566,-2.0566,-0.8333,-0.864,-0.8887,-0.9019,-0.9019,-0.9035,-0.9031,-0.8821,-0.8585,-0.8355,-0.8123,0.0,0.0,0.0,0.0,0.0,-0.9225,-0.9782,-1.0155,-1.0327,-1.0311,-1.0044,-0.9556,-0.9011,-0.8317,-0.8317,-0.8252,-0.8182,-0.7857,-0.7727,-0.7727,-0.7064,-0.6872,-0.7073,-0.6741,-0.7064,-0.7977,-0.8042,-0.863,-0.9664,-1.011,-1.0611,-1.1114,-1.1519,-1.1751,-1.1748,0.0,0.0,0.0,-0.9994,-0.9879,-0.9707,-1.0702,-1.0363,-0.954,-0.9288,-0.9466,-1.0154,-1.1695,0.0,-1.3801,-1.5701,-1.6852,-1.7844,-1.9014,-1.9855,-2.0561,-2.1142,-2.0765,-2.0426,-2.0614,-2.0953,-2.128,-2.1468,-2.2422,-2.3017,-2.2848,-2.3578,-2.3729,-2.2457,-2.3151,0.0,0.0,0.0,0.0,-2.0566,-2.0566,-2.0566,-2.0566,-2.0566,-2.0703,-2.0996,-2.1152,-2.1504,-2.208,-2.2227,-2.251,-2.293,-2.293,-2.293,-2.291,-2.249,-2.2217,-2.2051,-2.1475,-2.1152,-2.0986,-2.0684,-2.0566,-2.0566,-2.0566,-2.0566,-2.0644,-2.1165,-2.1385,-2.1318,0.0,-0.9008,-0.9408,-0.9408,-0.9593,0.0,0.0,0.0,0.0,0.0,0.0,0.0,0.0,0.0,0.0,0.0,0.0,-1.0994,-1.1303,-1.1284,-1.1192,-1.0939,-1.0109,-0.9369,-0.8676,-0.8193,-0.7924,-0.7811,-0.7761,-0.769,-0.7571,-0.7486,-0.7396,-0.733,-0.7204,-0.7657,-0.8495,-0.8495,-0.9035,-0.9858,-1.0248,-1.0495,-1.0666,-1.0962,-1.1226,0.0,0.0,0.0,-0.8863,-0.9512,-0.9367,-0.9141,-1.0316,-1.0146,-0.9487,-0.9417,-0.9908,-1.0937,-1.2986,-1.3859,-1.4758,-1.7015,-1.798,-1.8672,-1.998,-2.0717,-2.12,-2.1719,-2.0891,-2.0112,-2.0112,-2.0413,-2.0517,-1.9886,-2.1343,-2.2426,-2.2051,-2.3145,-2.3628,-2.2919,-2.3723,-2.4047,0.0,0.0,0.0,-2.1011,-2.1011,-2.0867,-2.0644,-2.0713,-2.0937,-2.1221,-2.1614,-2.2046,-2.2595,-2.2837,-2.313,-2.3319,-2.3319,-2.3319,-2.3299,-2.312,-2.2913,-2.2735,-2.2099,-2.1595,-2.1281,-2.1076,-2.0869,-2.0731,-2.0809,-2.1021,-2.1318,-2.1832,-2.2134,-2.2199,0.0,0.0,-0.9475,0.0,0.0,0.0,0.0,0.0,0.0,0.0,0.0,0.0,0.0,0.0,0.0,0.0,0.0,0.0,-1.2366,-1.2268,0.0,-1.1967,-1.0728,-0.9723,-0.9014,-0.7811,-0.699,-0.6616,-0.7106,-0.7156,-0.6827,-0.7583,-0.7752,-0.7426,-0.7426,-0.8004,-0.8897,-0.8897,-0.9175,-0.9616,-0.9833,-0.9777,-0.9455,-0.9684,0.0,0.0,0.0,0.0,0.0,-0.8464,-0.8467,-0.8653,-0.8849,-0.9456,-1.0111,-1.0093,-1.0878,-1.2048,-1.3611,-1.4616,-1.5758,-1.818,-1.9076,-1.9813,-2.1225,-2.1831,-2.2135,-2.2189,-2.133,-2.0567,0.0,0.0,-2.0024,-1.8455,-2.01,-2.1325,-2.0623,-2.194,-2.2959,0.0,0.0,0.0,0.0,0.0,0.0,-2.1983,0.0,-2.1461,-2.0789,-2.1066,-2.124,-2.135,-2.2413,-2.2954,-2.2983,-2.3553,-2.3841,-2.3841,-2.3841,-2.3841,-2.3841,-2.3841,-2.3695,-2.3311,-2.3123,-2.2529,-2.1789,-2.162,-2.1372,-2.0984,-2.1205,-2.1711,-2.2435,-2.251,-2.2872,-2.3147,0.0,0.0,0.0,0.0,0.0,0.0,0.0,0.0,0.0,0.0,0.0,0.0,0.0,0.0,0.0,0.0,0.0,0.0,-1.2146,-1.2246,-1.2085,-1.1643,0.0,0.0,0.0,0.0,0.0,-0.8131,-0.8028,-0.7604,-0.694,-0.7028,-0.6912,-0.6697,-0.6797,-0.7263,-0.7984,-0.7984,-0.8457,-0.9313,0.0,-0.9621,-0.9972,0.0,0.0,0.0,0.0,0.0,0.0,0.0,0.0,0.0,0.0,-1.1667,-1.1816,-1.2362,-1.2903,-1.3641,-1.5267,-1.6027,-1.6863,-1.8966,-1.9602,-2.0133,-2.1711,-2.2151,-2.2026,-2.1255,-1.9886,-1.8455,0.0,0.0,0.0,-1.8279,-2.074,0.0,-2.2464,-2.3178,0.0,-2.3838,0.0,-2.4879,-2.4755,-2.4719,0.0,0.0,-2.2424,-2.1983,-2.236,-2.1597,-2.1689,-2.2816,-2.3515,-2.3729,-2.3584,-2.4341,-2.4798,-2.4798,-2.4798,-2.4798,-2.4798,-2.4798,-2.4735,-2.4609,-2.4923,-2.4679,-2.4081,-2.3122,-2.2478,-2.1993,-2.2069,-2.222,-2.2499,-2.3683,-2.4192,-2.4264,0.0,0.0,0.0,0.0,0.0,0.0,0.0,0.0,0.0,0.0,0.0,0.0,0.0,0.0,0.0,0.0,0.0,0.0,0.0,-1.3449,-1.3074,-1.2389,0.0,0.0,0.0,0.0,0.0,0.0,0.0,0.0,-0.6988,-0.7093,-0.6978,-0.6781,-0.6972,-0.7396,-0.8044,-0.8217,0.0,0.0,0.0,0.0,0.0,0.0,0.0,0.0,0.0,0.0,0.0,0.0,0.0,-1.2384,-1.2874,-1.3258,-1.3608,-1.3995,0.0,-1.5148,-1.6293,-1.7126,-1.8025,-1.9737,-2.0511,-2.1013,-2.15,-2.1594,-2.1204,-1.9913,-1.8396,0.0,-1.6156,-1.7326,0.0,0.0,0.0,0.0,-2.2083,-2.2749,-2.3517,0.0,-2.4821,0.0,-2.5557,-2.5535,-2.5382,0.0,-2.361,-2.2872,-2.3021,-2.2787,-2.3033,-2.3913,-2.4811,-2.5048,-2.4659,-2.5557,-2.5797,-2.5389,-2.5797,-2.5808,-2.5389,-2.5797,-2.5797,-2.5452,0.0,-2.5949,-2.5453,-2.4482,-2.3842,-2.3381,-2.3172,-2.339,-2.3756,-2.4636,-2.5158,-2.5382,0.0,0.0,0.0,0.0,0.0,0.0,0.0,0.0,0.0,0.0,-1.226,-1.2092,0.0,0.0,0.0,0.0,0.0,0.0,0.0,0.0,-1.4465,-1.3631,-1.2396,0.0,0.0,0.0,0.0,0.0,0.0,0.0,0.0,0.0,0.0,0.0,0.0,0.0,0.0,0.0,0.0,0.0,0.0,0.0,0.0,0.0,0.0,0.0,0.0,0.0,0.0,0.0,-1.4511,-1.4227,-1.4238,-1.4831,-1.5543,-1.5481,-1.5942,-1.6569,-1.7159,-1.807,-1.9124,-2.0394,-2.1527,-2.202,-2.1024,-2.0772,-2.0229,-1.8443,0.0,-1.6245,-1.6113,-1.7323,-1.7963,-1.6736,0.0,-2.1292,-2.1029,-2.182,-2.2952,-2.435,-2.4892,-2.5358,-2.5849,-2.591,-2.591,-2.591,-2.4933,-2.407,-2.349,-2.4139,-2.469,-2.5105,-2.6105,-2.6472,-2.6152,-2.6894,-2.6894,-2.6152,-2.6894,-2.6894,-2.6152,-2.6905,-2.6894,-2.6235,-2.6894,-2.6944,-2.6528,-2.5842,-2.5249,-2.4734,-2.4388,-2.4707,-2.5312,-2.5453,-2.5828,-2.627,0.0,0.0,0.0,0.0,0.0,0.0,0.0,0.0,0.0,0.0,-1.2727,-1.2572,0.0,0.0,0.0,0.0,0.0,0.0,0.0,0.0,0.0,-1.4013,-1.3456,0.0,0.0,0.0,0.0,0.0,0.0,0.0,0.0,0.0,0.0,0.0,0.0,0.0,0.0,0.0,0.0,0.0,0.0,0.0,0.0,0.0,0.0,0.0,0.0,0.0,0.0,0.0,-1.5948,-1.6629,-1.7264,-1.7624,-1.7787,-1.7879,-1.7813,-1.7928,-1.865,-1.9131,-1.9765,-2.1051,-2.1838,-2.2078,-2.1268,-2.1118,0.0,0.0,-1.6784,-1.6297,-1.4698,-1.5667,-1.7079,-1.8187,-1.9748,-2.1255,-2.2523,-2.2874,-2.3317,0.0,-2.4558,-2.495,-2.5812,-2.591,0.0,0.0,-2.5688,-2.5729,-2.6022,-2.5314,-2.5689,-2.747,-2.7209,-2.7313,-2.8039,-2.8211,-2.8211,-2.8051,-2.8211,-2.8211,-2.8051,-2.8211,-2.8131,-2.8051,-2.8882,0.0,-2.8334,-2.7143,-2.6315,-2.5815,-2.529,-2.5158,-2.5382,-2.6025,-2.6383,-2.6465,0.0,0.0,0.0,0.0,0.0,0.0,0.0,-1.2732,-1.3023,-1.2707,-1.2437,-1.2445,-1.2804,-1.238,-1.231,0.0,0.0,0.0,0.0,0.0,0.0,0.0,0.0,0.0,0.0,0.0,0.0,0.0,0.0,0.0,0.0,0.0,0.0,0.0,0.0,0.0,0.0,0.0,0.0,0.0,0.0,0.0,0.0,0.0,0.0,0.0,0.0,0.0,0.0,0.0,-1.6539,-1.8304,-1.8758,-1.8874,-1.8886,-1.8951,-1.8898,-1.8833,-1.9226,-1.9824,-2.0575,-2.1516,-2.235,-2.249,-2.0524,0.0,0.0,0.0,-1.5723,-1.5652,-1.4731,-1.5853,0.0,-1.7701,-1.9664,-2.1294,-2.1788,-2.2657,0.0,-2.4541,-2.4678,-2.5049,0.0,-2.6188,-2.6188,-2.6188,-2.6188,-2.6355,-2.6685,-2.6863,-2.7478,-2.873,-2.8621,-2.8462,-2.8462,-2.8961,-2.8961,-2.8542,-2.8961,-2.8961,-2.8542,-2.8961,-2.8961,-2.8542,-2.9456,-2.9465,-2.8813,-2.7928,-2.7237,-2.6635,-2.6165,-2.5955,-2.5955,-2.6383,-2.6533,-2.6533,0.0,0.0,0.0,0.0,0.0,0.0,-1.2171,-1.264,-1.2824,-1.2252,-1.209,-1.2191,-1.2596,-1.2482,-1.2675,0.0,0.0,0.0,0.0,0.0,0.0,0.0,0.0,0.0,0.0,0.0,0.0,0.0,0.0,0.0,0.0,0.0,0.0,0.0,0.0,0.0,0.0,0.0,0.0,0.0,0.0,0.0,0.0,0.0,0.0,0.0,0.0,0.0,0.0,0.0,-1.6394,-1.8403,-1.8674,-1.8908,-1.9133,-1.9308,-1.9207,-1.9144,-1.9544,-2.0453,-2.1356,-2.1788,-2.2871,-2.3002,-1.9919,-1.9293,0.0,0.0,-1.4937,-1.5134,-1.5134,-1.6161,-1.7012,0.0,-1.8941,-2.0472,-2.0765,-2.1964,-2.3296,0.0,-2.482,0.0,-2.642,-2.6533,0.0,-2.6533,-2.6634,-2.6739,-2.7001,-2.8102,-2.8961,-2.9496,-2.9689,-2.9456,-2.8791,-2.9456,-2.9456,-2.8791,-2.9456,-2.9456,-2.8791,-2.9468,-2.9456,-2.8791,-2.9468,-2.9465,-2.8888,-2.8335,-2.7855,-2.7301,-2.6817,-2.6602,-2.6602,-2.6602,-2.6602,-2.6521,0.0,0.0,0.0,0.0,0.0,0.0,-1.2808,-1.2473,-1.2188,-1.2121,-1.2105,-1.2106,-1.2156,-1.2042,-1.2271,0.0,0.0,0.0,0.0,0.0,0.0,0.0,0.0,0.0,0.0,0.0,0.0,0.0,0.0,0.0,0.0,0.0,0.0,0.0,0.0,0.0,0.0,0.0,0.0,0.0,0.0,0.0,0.0,0.0,0.0,0.0,0.0,0.0,0.0,0.0,0.0,-1.5469,-1.6385,-1.7316,-1.8164,-1.8891,0.0,0.0,-1.9984,-2.1118,-2.1843,-2.1898,-2.3141,-2.359,-2.028,0.0,0.0,-1.5784,-1.5329,-1.5477,-1.5329,-1.5309,0.0,0.0,0.0,-1.7835,-2.0823,-2.1046,-2.1927,-2.4506,0.0,0.0,-2.642,-2.6533,-2.6533,-2.6533,-2.6917,-2.7444,-2.7923,-2.8525,-2.9113,-2.9767,-2.9792,-2.9792,-2.9702,-2.9792,-2.9792,-2.9702,-2.9792,-2.9792,-2.9702,-2.9792,-2.9792,-2.9702,-2.9792,-2.9465,0.0,-2.8495,-2.8096,-2.7538,-2.7105,-2.6956,-2.6956,-2.6956,-2.6875,-2.6658,0.0,0.0,0.0,0.0,0.0,0.0,-1.2556,-1.2723,-1.2722,-1.2284,-1.2073,-1.1992,-1.204,-1.191,-1.2188,-1.307,-1.4105,0.0,0.0,0.0,0.0,0.0,0.0,0.0,0.0,0.0,-1.5769,-1.4947,-1.4835,0.0,0.0,0.0,0.0,0.0,0.0,0.0,0.0,0.0,0.0,0.0,0.0,0.0,0.0,0.0,0.0,0.0,0.0,0.0,0.0,0.0,0.0,0.0,-1.4241,-1.4634,0.0,0.0,-1.8777,-1.9131,-2.0283,-2.1615,-2.2671,-2.2671,-2.3097,-2.2953,-2.0803,0.0,-1.8309,-1.6037,-1.5726,-1.5797,-1.5668,-1.561,-1.5698,0.0,0.0,0.0,-1.8197,-1.9969,-2.1617,-2.2694,-2.4004,0.0,0.0,0.0,-2.6533,-2.6533,-2.6666,-2.703,-2.7582,-2.8448,-2.9202,-2.9779,-2.9792,-2.9792,-2.9792,-2.9792,-2.9869,-3.0011,-3.0011,-3.0011,-3.0152,-3.0152,-2.9974,-2.9656,-2.9656,-2.906,0.0,-2.8112,-2.7704,-2.7194,-2.7046,-2.7024,-2.7024,-2.7024,-2.6943,-2.6875,0.0,0.0,0.0,0.0,0.0,-1.2831,-1.2638,-1.2888,-1.2905,-1.2365,-1.2138,-1.1941,-1.1725,-1.1992,-1.2371,-1.2806,-1.3689,0.0,0.0,0.0,0.0,0.0,0.0,0.0,0.0,0.0,-1.667,-1.6203,-1.6145,-1.6006,0.0,0.0,0.0,0.0,0.0,0.0,0.0,0.0,0.0,0.0,0.0,0.0,0.0,0.0,0.0,0.0,0.0,0.0,0.0,0.0,0.0,0.0,0.0,0.0,0.0,0.0,-1.8194,-1.9014,-2.0274,-2.2092,-2.3547,-2.3547,-2.3406,-2.2828,0.0,0.0,-1.7831,-1.6262,-1.5955,-1.5983,-1.5942,-1.5913,-1.577,0.0,0.0,-1.6663,-1.6529,-1.8346,-2.0034,0.0,0.0,-2.3803,0.0,-2.6005,-2.6521,-2.6533,-2.6521,-2.6773,-2.7339,-2.8107,-2.8787,-2.9277,-2.9378,-2.9378,-2.9378,-2.9441,-2.9505,-2.9643,-2.9643,-2.9718,-2.9869,-2.9869,-2.9651,-2.9193,-2.9193,-2.8715,0.0,-2.7888,-2.7567,-2.7079,-2.7146,-2.7146,-2.7146,-2.7146,-2.7146,-2.7079,0.0,0.0,0.0,0.0,0.0,-1.3155,-1.3363,-1.2787,-1.2314,-1.2297,-1.2297,-1.1964,-1.1104,-1.224,-1.2788,-1.2091,-1.3408,0.0,0.0,0.0,0.0,0.0,0.0,0.0,-1.6993,-1.7052,-1.696,-1.6696,-1.6696,-1.6538,-1.6301,-1.6231,-1.6052,0.0,0.0,0.0,0.0,0.0,0.0,0.0,0.0,0.0,0.0,0.0,0.0,0.0,0.0,0.0,0.0,0.0,0.0,0.0,0.0,-1.3268,-1.4571,0.0,-1.6346,-1.7455,-1.9847,-2.2377,-2.4369,-2.4369,-2.4264,-2.3567,0.0,-1.9968,-1.8349,-1.6407,-1.5996,-1.5996,-1.5996,-1.5926,-1.59,-1.59,-1.4905,0.0,-1.6826,-1.6157,-1.6587,0.0,0.0,-2.0953,-2.3753,-2.5618,-2.6658,-2.6533,-2.6589,0.0,-2.7563,-2.7601,-2.7784,-2.8109,-2.828,-2.8439,-2.8439,-2.8545,-2.8592,-2.8592,-2.8592,-2.8677,-2.8715,-2.8677,-2.8592,-2.8592,-2.8592,-2.826,0.0,-2.804,-2.7786,-2.7335,-2.7469,-2.7456,-2.7456,-2.7456,-2.7403,-2.7268,0.0,0.0,0.0,0.0,0.0,0.0,-1.3346,-1.321,-1.3057,-1.3057,-1.2941,-1.2556,-1.1837,-1.2556,-1.2822,-1.2139,-1.2939,0.0,0.0,0.0,0.0,0.0,0.0,0.0,-1.7076,-1.7183,-1.6783,-1.581,-1.6584,-1.6457,-1.5487,-1.6057,-1.6191,-1.594,-1.6123,0.0,0.0,0.0,0.0,0.0,0.0,0.0,0.0,0.0,0.0,0.0,0.0,0.0,0.0,0.0,0.0,0.0,0.0,0.0,0.0,-1.3879,-1.4929,-1.6166,-1.7418,-1.8917,-2.02,-2.0703,-2.0347,-1.9824,-1.9645,-1.8238,-1.6801,-1.6205,-1.6095,-1.6123,-1.6067,-1.6039,-1.5998,-1.5928,-1.559,0.0,0.0,0.0,0.0,-1.9316,-2.1851,-2.4236,0.0,0.0,-2.6875,-2.6807,-2.6875,-2.6965,-2.7212,-2.7224,-2.7576,-2.8409,-2.852,-2.852,-2.852,-2.8579,-2.8664,-2.8846,-2.8846,-2.899,-2.9132,-2.9119,-2.8827,-2.8425,-2.8425,-2.8114,-2.7595,-2.7663,-2.7559,-2.7469,-2.7469,-2.7523,-2.7523,-2.7523,-2.7469,-2.7469,0.0,0.0,0.0,0.0,0.0,0.0,-1.3363,-1.3396,-1.3396,-1.3396,-1.3295,-1.2941,-1.2172,-1.2706,-1.2822,-1.2155,-1.2706,0.0,0.0,0.0,0.0,0.0,0.0,0.0,-1.7076,-1.7208,-1.6792,-1.5702,-1.6499,-1.6394,-1.548,-1.6032,-1.6302,-1.6313,-1.649,-1.6543,0.0,0.0,0.0,0.0,0.0,0.0,-1.6633,0.0,0.0,0.0,0.0,0.0,0.0,0.0,0.0,0.0,0.0,0.0,0.0,0.0,-1.3597,-1.4591,-1.6062,-1.7512,-1.8753,-1.9525,-1.8891,-1.8266,-1.8987,-1.7608,-1.6191,-1.6301,-1.6262,-1.6222,-1.6289,-1.6179,-1.5991,-1.5664,-1.5551,-1.5535,0.0,0.0,0.0,-1.9488,0.0,0.0,0.0,-2.6706,-2.7079,-2.7024,-2.7079,-2.7079,-2.7079,-2.7079,-2.7456,-2.8138,-2.8164,-2.8094,-2.8094,-2.8164,-2.8247,-2.8412,-2.8412,-2.8482,-2.8621,-2.8621,-2.8412,-2.8059,-2.8059,-2.7863,0.0,-2.7523,-2.7523,-2.7523,-2.7523,-2.7523,-2.7523,-2.7523,-2.7523,-2.7523,0.0,0.0,0.0,0.0,0.0,0.0,0.0,-1.3396,-1.3396,-1.3396,-1.3396,-1.3092,-1.2288,-1.2757,-1.2856,-1.2255,-1.2757,0.0,0.0,0.0,0.0,0.0,0.0,-1.7043,-1.7043,-1.7224,-1.695,-1.6219,-1.6415,-1.6337,-1.603,-1.6014,-1.6305,-1.6751,-1.6777,-1.6767,0.0,0.0,0.0,0.0,-1.6841,-1.6696,0.0,0.0,0.0,0.0,0.0,0.0,0.0,0.0,0.0,0.0,0.0,0.0,0.0,0.0,0.0,0.0,0.0,-1.749,-1.9107,-1.9902,-1.9108,-1.8345,-1.9108,-1.7768,0.0,-1.667,-1.6463,-1.6289,-1.6543,-1.6328,-1.5897,-1.527,-1.5072,-1.533,0.0,-1.655,0.0,0.0,-2.2485,0.0,-2.4471,-2.6194,-2.7214,-2.7011,-2.7214,-2.7335,-2.7335,-2.7335,-2.7403,-2.7523,-2.7403,-2.7335,-2.7335,-2.7469,-2.7523,-2.7523,-2.7523,-2.7523,-2.7523,-2.7523,-2.7523,0.0,-2.7523,-2.7523,-2.7523,-2.7523,-2.7523,-2.7523,-2.7523,-2.7523,-2.7523,-2.7523,-2.7523,-2.7523,0.0,0.0,0.0,0.0,0.0,0.0,0.0,0.0,0.0,0.0,-1.3396,-1.3312,-1.3126,-1.3244,-1.3278,0.0,0.0,0.0,0.0,0.0,0.0,0.0,-1.7156,-1.7415,-1.7532,-1.7432,-1.7037,-1.6354,-1.6502,-1.6115,-1.525,-1.5359,-1.5648,-1.612,-1.6334,-1.6832,0.0,0.0,0.0,0.0,-1.7216,-1.7167,0.0,0.0,0.0,0.0,-1.6359,-1.5692,0.0,0.0,0.0,0.0,0.0,0.0,0.0,0.0,-1.2829,-1.3048,-1.3517,0.0,-1.4304,-1.5697,-1.5844,-1.5957,0.0,-1.7141,-1.6926,-1.6926,0.0,-1.6517,-1.6596,-1.6371,-1.6105,-1.5881,-1.5811,-1.6174,-1.7461,0.0,0.0,-2.2359,-2.4151,-2.5166,-2.4927,-2.6453,-2.7403,-2.7403,-2.7403,-2.7469,-2.7469,-2.7469,-2.7469,-2.7523,-2.7469,-2.7469,-2.7469,-2.7469,-2.7523,-2.7523,-2.7523,-2.7523,-2.7523,-2.7523,-2.7523,-2.7523,-2.7523,-2.7523,-2.7523,-2.7523,-2.7523,-2.7523,-2.7523,-2.7523,-2.7523,-2.7523,-2.7523,-2.7523,0.0,0.0,0.0,0.0,0.0,0.0,0.0,0.0,0.0,0.0,-1.3396,-1.3396,-1.3396,-1.3396,-1.3396,0.0,0.0,0.0,0.0,0.0,0.0,-1.649,-1.7073,-1.7408,-1.7479,-1.7439,-1.7107,-1.6398,-1.6567,-1.6181,-1.5276,-1.5691,-1.602,-1.6293,-1.6798,-1.7339,0.0,0.0,0.0,0.0,-1.7526,0.0,0.0,0.0,0.0,0.0,-1.6273,-1.5499,0.0,-1.3878,-1.333,-1.3053,0.0,0.0,0.0,0.0,-1.3015,-1.3102,-1.3034,-1.2778,-1.288,-1.4421,-1.4825,-1.5201,-1.6529,0.0,0.0,0.0,0.0,-1.649,-1.6738,-1.7246,-1.7207,-1.5906,-1.7456,0.0,0.0,0.0,-2.1688,-2.3014,-2.4295,-2.5328,0.0,-2.6987,-2.7523,-2.7523,-2.7523,-2.7523,-2.7523,-2.7523,-2.7523,-2.7523,-2.7523,-2.7523,-2.7523,-2.7523,-2.7523,-2.7523,-2.7523,-2.7523,-2.7523,-2.7523,-2.7523,-2.7523,-2.7523,-2.7523,-2.7523,-2.7523,-2.7523,-2.7523,-2.7523,-2.7523,-2.7523,-2.7523,-2.7523,-2.7523,0.0,0.0,0.0,0.0,0.0,0.0,0.0,0.0,0.0,0.0,0.0,0.0,0.0,0.0,0.0,0.0,0.0,0.0,0.0,0.0,-1.5806,-1.6258,-1.6915,-1.7288,-1.7288,-1.7439,-1.7248,-1.6631,-1.6564,-1.6224,-1.5673,-1.6041,-1.6326,-1.658,-1.7352,-1.782,-1.7961,-1.79,-1.7856,-1.7772,-1.7755,0.0,0.0,0.0,0.0,0.0,0.0,0.0,0.0,-1.3582,-1.3329,-1.3345,-1.3345,0.0,0.0,0.0,0.0,0.0,-1.3312,-1.3372,-1.3674,-1.4723,-1.4984,-1.5342,-1.6743,0.0,0.0,0.0,0.0,0.0,0.0,-1.8195,0.0,0.0,0.0,0.0,-2.0984,-2.0983,-2.1539,-2.3057,-2.3903,0.0,-2.6961,-2.7379,-2.7523,-2.7523,-2.7523,-2.7523,-2.7523,-2.7523,-2.7523,-2.7523,-2.7523,-2.7523,-2.7523,-2.7523,-2.7523,-2.7523,-2.7523,-2.7523,-2.7523,-2.7523,-2.7523,-2.7523,0.0,0.0,-2.7523,-2.7523,-2.7523,-2.7523,-2.7603,-2.759,-2.759,-2.759,-2.759,-2.759,0.0,0.0,0.0,0.0,0.0,0.0,0.0,0.0,0.0,0.0,0.0,0.0,0.0,0.0,0.0,0.0,0.0,0.0,0.0,-1.4766,-1.5646,-1.5724,-1.7002,-1.7721,-1.7721,-1.7687,-1.7698,-1.7747,-1.6369,-1.5775,-1.5903,-1.4537,-1.4582,-1.5798,-1.6546,-1.7241,-1.7833,-1.7833,-1.7772,-1.7732,-1.7893,0.0,0.0,0.0,0.0,0.0,0.0,0.0,0.0,-1.3768,-1.3461,-1.3475,-1.3524,0.0,0.0,0.0,0.0,0.0,-1.3478,-1.4806,-1.6052,-1.5543,-1.5321,-1.5581,-1.6943,0.0,0.0,0.0,0.0,0.0,0.0,-1.8006,-1.7115,0.0,0.0,-2.1553,0.0,0.0,-2.3983,-2.3293,0.0,-2.5511,-2.5367,-2.6674,-2.7523,-2.7523,-2.7523,-2.7523,-2.7523,-2.7523,-2.7523,-2.7523,-2.7523,-2.7523,-2.7523,-2.7523,-2.7523,-2.7523,-2.7523,-2.7523,-2.7523,-2.7523,-2.7523,-2.7523,0.0,-2.7523,-2.7523,-2.7656,-2.7789,-2.7776,-2.7934,-2.8013,-2.8013,-2.8013,-2.8013,-2.8013,0.0,0.0,0.0,0.0,0.0,0.0,0.0,0.0,0.0,0.0,0.0,0.0,0.0,0.0,0.0,0.0,0.0,0.0,-1.3396,-1.4766,-1.5576,-1.5553,-1.7076,-1.7917,-1.7917,-1.7492,-1.7352,-1.7501,-1.6379,-1.5694,-1.5435,-1.5055,-1.5399,-1.6404,-1.7265,-1.7755,-1.7922,-1.8103,-1.8086,-1.7997,0.0,0.0,0.0,0.0,0.0,0.0,0.0,0.0,0.0,0.0,-1.3655,-1.3715,-1.3748,0.0,0.0,0.0,0.0,0.0,-1.3605,-1.4298,-1.5424,-1.7175,-1.8382,-1.9437,-2.0616,0.0,0.0,0.0,0.0,0.0,0.0,0.0,-2.0531,-2.3686,0.0,-2.2061,-2.3263,-2.3224,-2.3084,0.0,0.0,-2.5288,-2.6255,-2.7066,-2.7523,-2.7523,-2.7523,-2.7523,-2.7523,-2.7523,-2.7523,-2.7523,-2.759,-2.7656,-2.7656,-2.8078,-2.8026,-2.7523,-2.7523,-2.759,-2.7656,-2.7656,-2.7894,-2.826,0.0,-2.8039,-2.8325,-2.839,-2.8287,-2.8066,-2.8803,-2.8917,-2.8597,-2.898,-2.9107,-2.9107,0.0,0.0,0.0,0.0,0.0,0.0,0.0,0.0,0.0,0.0,0.0,0.0,0.0,0.0,0.0,0.0,0.0,0.0,-1.3379,-1.4766,-1.5576,-1.5496,-1.7101,-1.7919,-1.7749,-1.7209,-1.6917,-1.6882,-1.6168,-1.5433,-1.4748,-1.5533,-1.6238,-1.6841,-1.7838,-1.8198,-1.8117,-1.8413,-1.8327,-1.8009,0.0,0.0,0.0,0.0,0.0,0.0,0.0,0.0,0.0,0.0,0.0,0.0,0.0,0.0,0.0,-1.3824,-1.3806,-1.3789,-1.3761,-1.4083,-1.5228,-1.8572,-2.0123,-2.1366,-2.3418,0.0,0.0,0.0,0.0,0.0,0.0,-2.149,0.0,-2.6457,-2.4664,-2.3209,-2.4239,-2.3331,-2.2867,-2.3747,-2.423,-2.5301,-2.734,-2.7523,-2.7523,-2.7523,-2.7523,-2.7523,-2.7523,-2.7523,-2.7523,-2.759,-2.7842,-2.8026,-2.8091,-2.8826,-2.8698,-2.7669,-2.7973,-2.8078,-2.8091,-2.8091,-2.839,-2.9002,-2.8481,-2.8481,-2.8826,-2.9129,-2.8903,-2.8509,-2.9656,-2.9827,-2.938,-2.995,-3.0133,-3.0133,0.0,0.0,0.0,0.0,0.0,0.0,0.0,0.0,0.0,0.0,0.0,0.0,0.0,0.0,0.0,0.0,0.0,0.0,-1.3312,-1.4748,-1.5576,-1.5502,-1.7109,-1.7693,-1.6983,-1.6998,-1.6738,-1.6254,-1.5415,-1.4595,-1.3918,-1.4893,-1.5644,-1.6203,-1.7152,-1.7914,-1.8465,-1.8569,-1.8124,-1.7378,-1.7577,0.0,0.0,0.0,0.0,0.0,0.0,0.0,0.0,0.0,0.0,0.0,0.0,0.0,-1.4058,-1.3933,-1.3973,-1.4026,-1.3933,-1.5481,-1.7504,-1.9098,-1.7831,0.0,-2.2737,-2.2811,0.0,-2.2831,0.0,0.0,0.0,-2.2477,-2.2394,-2.2686,-2.3974,-2.5244,-2.6191,0.0,-2.5896,-2.5839,-2.5853,-2.6304,-2.7406,-2.7523,-2.7523,-2.7523,-2.7523,-2.7523,-2.7523,-2.7523,-2.759,-2.7776,-2.8417,-2.8776,-2.8876,-2.9566,-2.9282,-2.8079,-2.9282,-2.9504,-2.8939,-2.8939,-2.8939,-2.9002,-2.8939,-2.8661,-2.8262,-2.9566,-2.9752,-2.931,-3.0147,-3.045,-3.0389,-3.045,-3.045,-3.045,0.0,0.0,0.0,0.0,0.0,0.0,0.0,0.0,0.0,0.0,0.0,0.0,0.0,0.0,0.0,0.0,0.0,-1.3312,-1.3227,-1.4637,-1.5522,-1.5624,-1.7236,-1.7864,-1.7289,-1.6817,-1.6288,-1.5686,-1.4899,-1.4641,-1.488,-1.5845,-1.658,-1.7128,-1.8213,-1.8351,-1.7843,-1.8157,-1.7692,-1.6762,-1.696,-1.6556,0.0,0.0,0.0,0.0,0.0,0.0,0.0,0.0,-1.4185,-1.4136,-1.4177,-1.4203,-1.4203,-1.415,-1.4127,-1.41,-1.403,-1.562,-1.7621,-1.9133,0.0,0.0,0.0,0.0,0.0,0.0,0.0,0.0,0.0,0.0,-2.5672,-2.4379,-2.5859,-2.6998,-2.6553,-2.6457,-2.637,-2.6222,-2.6184,-2.6635,-2.7762,-2.7868,-2.7868,-2.7868,-2.7868,-2.7868,-2.7868,-2.7868,-2.8105,-2.8519,-2.8903,-2.9345,-2.9723,-3.0555,-3.051,-2.9608,-2.9889,-2.9936,-2.9723,-2.9331,-2.9704,-3.0495,-2.969,-2.9628,-3.0269,-3.0793,-3.0629,-3.0086,-3.0822,-3.1349,-3.1694,-3.1694,-3.1694,-3.1694,0.0,0.0,0.0,0.0,0.0,0.0,0.0,0.0,0.0,0.0,0.0,0.0,0.0,0.0,0.0,0.0,-1.3312,-1.3379,-1.3579,-1.4811,-1.5722,-1.6081,-1.7574,-1.8118,-1.7542,-1.6808,-1.6102,-1.5422,-1.4958,-1.5028,-1.5592,-1.6766,-1.7375,-1.7536,-1.8595,-1.8382,-1.7229,-1.7596,-1.7115,-1.6138,-1.6284,-1.5869,0.0,0.0,0.0,0.0,0.0,0.0,0.0,0.0,-1.4325,-1.4268,-1.4319,-1.4344,-1.4356,-1.4306,-1.4724,-1.5202,-1.5157,-1.6183,-1.7794,0.0,0.0,0.0,0.0,0.0,0.0,0.0,-2.6189,0.0,0.0,0.0,0.0,0.0,-2.7057,-2.8039,-2.6967,-2.6654,-2.6505,-2.6362,-2.6357,-2.6756,-2.7706,-2.7973,-2.8079,-2.8079,-2.8079,-2.8079,-2.8079,-2.8249,-2.8529,-2.874,-2.9299,-2.9671,-2.9973,-3.0723,-3.0923,-3.0452,-3.0264,-3.028,-3.06,-3.0194,-3.0569,-3.1422,-3.0555,-3.0555,-3.1248,-3.1595,-3.1522,-3.1175,-3.158,-3.2048,-3.2398,-3.2398,-3.2398,-3.2398,0.0,0.0,0.0,0.0,0.0,0.0,0.0,0.0,-1.3396,-1.3396,-1.3396,0.0,0.0,0.0,0.0,0.0,-1.3329,-1.3598,-1.4355,-1.5324,-1.6228,-1.6967,-1.8157,-1.8431,-1.7629,-1.7019,-1.6331,-1.5506,-1.564,-1.5704,-1.5759,-1.7407,-1.7779,-1.7051,-1.7981,-1.7805,-1.6803,-1.6943,-1.64,-1.5501,-1.5559,-1.5117,-1.4428,0.0,0.0,0.0,0.0,0.0,0.0,0.0,-1.4545,-1.4578,-1.4434,-1.4453,-1.4494,-1.4344,-1.5854,-1.7538,-1.7418,-1.74,0.0,0.0,0.0,0.0,0.0,0.0,0.0,0.0,0.0,-2.5827,-2.5559,0.0,0.0,-2.5318,-2.7057,-2.8186,-2.7565,-2.7041,-2.6644,-2.6511,-2.6508,-2.6644,-2.7147,-2.7733,-2.8066,-2.8066,-2.8066,-2.8066,-2.8066,-2.8634,-2.8789,-2.8344,-2.9552,-2.9926,-2.9421,-3.0068,-3.0428,-3.0428,-3.0428,-3.0784,-3.1465,-3.1465,-3.1465,-3.1465,-3.148,-3.1116,-3.0629,-3.1864,-3.2398,-3.2398,-3.2398,-3.2398,-3.2398,-3.2398,-3.2398,-3.2398,0.0,0.0,0.0,0.0,0.0,0.0,0.0,0.0,-1.3396,-1.3396,-1.3396,0.0,0.0,0.0,0.0,0.0,0.0,0.0,-1.4282,-1.5216,-1.6195,-1.7179,-1.8196,-1.8717,-1.8659,-1.8024,-1.7004,-1.564,-1.5735,-1.6356,-1.7475,-1.7485,-1.7969,-1.878,-1.7987,-1.7379,-1.6909,-1.638,-1.5607,-1.4733,-1.4739,-1.4671,-1.4549,0.0,0.0,0.0,0.0,0.0,0.0,0.0,0.0,0.0,-1.4614,-1.4606,-1.4624,-1.4589,-1.491,-1.5256,-1.5232,-1.74,0.0,-2.0361,0.0,0.0,0.0,0.0,0.0,0.0,0.0,-2.5701,-2.5659,0.0,0.0,-2.5549,-2.7057,-2.8186,-2.7565,-2.7041,-2.6712,-2.6624,-2.6315,-2.6283,-2.6843,-2.7058,-2.7166,-2.7166,-2.7166,-2.7166,-2.7166,-2.7713,-2.8141,-2.8498,-2.9207,-2.9793,-3.0121,-3.0308,-3.0428,-3.0428,-3.0428,-3.0523,-3.0731,-3.0253,-3.0253,-3.0708,-3.0779,-3.0904,-3.1213,-3.2072,-3.2398,-3.2398,-3.2398,-3.2398,-3.2398,-3.2398,-3.2398,-3.2398,0.0,0.0,0.0,0.0,0.0,0.0,0.0,0.0,-1.3396,-1.3396,-1.3396,-1.3413,0.0,0.0,0.0,0.0,0.0,0.0,-1.474,-1.5517,-1.6463,-1.7711,-1.8466,-1.8822,-1.8715,-1.839,-1.7734,-1.6768,-1.6812,-1.7337,-1.8265,-1.79,-1.8067,-1.8622,-1.7371,-1.6552,-1.6056,-1.5562,-1.5025,-1.4474,-1.4508,-1.4563,-1.4654,0.0,0.0,0.0,0.0,0.0,0.0,0.0,0.0,0.0,-1.4695,-1.4705,-1.4871,-1.571,-1.5796,-1.5986,-1.7753,0.0,0.0,-2.3059,-2.5057,-2.7029,-2.8527,0.0,0.0,0.0,0.0,-2.692,-2.6907,-2.7798,0.0,-2.6749,-2.7596,-2.8284,-2.791,-2.7363,-2.7033,-2.7039,-2.6554,-2.6359,-2.6744,-2.678,-2.6823,-2.6823,-2.6823,-2.6823,-2.6823,-2.7367,-2.7811,-2.8204,-2.8764,-2.9244,-2.9627,-2.9627,-2.9627,-2.9627,-2.9627,-2.9627,-2.9592,-2.9757,-3.0015,-3.0391,-3.0456,-3.0677,-3.1043,-3.172,-3.1982,-3.2013,-3.2345,-3.2453,-3.2398,-3.2453,-3.2453,-3.2398,0.0,0.0,-1.2636,-1.2829,0.0,0.0,0.0,0.0,-1.3396,-1.3396,-1.3396,-1.3413,0.0,0.0,0.0,0.0,0.0,0.0,-1.5533,-1.6045,-1.6976,-1.8471,-1.8914,-1.8824,-1.8218,-1.8411,-1.851,-1.8503,-1.8441,-1.8472,-1.8535,-1.8451,-1.8042,-1.7374,-1.6399,-1.5543,-1.48,-1.4716,-1.4656,-1.4611,-1.4677,-1.4688,-1.4727,-1.4776,0.0,0.0,0.0,0.0,0.0,0.0,0.0,0.0,-1.4703,-1.4693,-1.5077,-1.7036,-1.7609,-1.8485,-2.2512,0.0,0.0,-2.7971,-2.8387,0.0,-3.0066,-3.0097,-2.9633,-2.9213,0.0,-2.8873,-2.8794,-2.8684,-2.8541,-2.8396,-2.8411,-2.8411,-2.8411,-2.7845,-2.7464,-2.7515,-2.6917,-2.6567,-2.6624,-2.6662,-2.666,-2.666,-2.666,-2.666,-2.672,-2.7332,-2.7683,-2.7592,-2.8203,-2.8465,-2.8411,-2.8411,-2.8411,-2.8411,-2.8411,-2.8411,-2.8442,-2.9673,-3.0274,-3.0335,-3.0335,-3.0366,-3.0474,-3.112,-3.1435,-3.1512,-3.2315,-3.2523,-3.2453,-3.2578,-3.2523,-3.2453,0.0,0.0,-1.3018,-1.3243,0.0,0.0,0.0,0.0,0.0,0.0,0.0,0.0,0.0,0.0,0.0,0.0,0.0,0.0,-1.5776,-1.6604,-1.7559,-1.8697,-1.907,-1.9193,-1.906,-1.9244,-1.9335,-1.9335,-1.8819,-1.8892,-1.9482,-1.8219,-1.7853,-1.8155,-1.5972,-1.5239,-1.5591,-1.4913,-1.4635,-1.4687,-1.4678,-1.4737,-1.4785,-1.4794,-1.4794,0.0,0.0,0.0,0.0,0.0,0.0,0.0,-1.4726,-1.4697,-1.4788,-1.5251,-1.647,-1.7874,-1.877,-2.1662,0.0,0.0,-2.837,-2.9939,-3.041,-2.9837,-2.9213,-2.9121,-2.8951,-2.8842,-2.8794,-2.8604,-2.8444,-2.8396,-2.8411,-2.8411,-2.8411,-2.7545,-2.7041,-2.7464,-2.6221,-2.5577,-2.6021,-2.5658,-2.5398,-2.5398,-2.5398,-2.5556,-2.6078,-2.6629,-2.7147,-2.752,-2.8122,-2.8388,-2.8411,-2.8411,-2.8411,-2.8411,-2.8411,-2.8411,-2.8411,-2.8704,-2.9135,-2.9627,-2.9627,-2.9935,-3.0474,-3.1241,-3.1573,-3.1634,-3.2509,-3.2843,-3.2773,-3.2843,-3.2843,-3.2773,0.0,0.0,0.0,0.0,0.0,0.0,0.0,0.0,0.0,0.0,0.0,0.0,0.0,0.0,0.0,0.0,-1.4418,-1.5192,-1.648,-1.7153,-1.795,-1.9,-1.9295,-1.9431,-1.9431,-1.9601,-1.9699,-1.9699,-1.9374,-1.9209,-1.915,-1.7925,-1.7321,-1.718,-1.5504,-1.4961,-1.5303,-1.4883,-1.4717,-1.4756,-1.4756,-1.4766,-1.4804,-1.4794,-1.4804,-1.4794,-1.4813,0.0,0.0,0.0,0.0,0.0,0.0,0.0,-1.4942,-1.5931,-1.6128,-1.674,-1.9978,0.0,0.0,-2.8056,0.0,-3.0518,-3.0518,-2.975,-2.9075,-2.9075,-2.892,-2.8794,-2.8794,-2.8604,-2.8411,-2.8411,-2.8411,-2.8411,-2.8411,-2.786,-2.753,-2.7515,-2.652,-2.5851,-2.5893,-2.5342,-2.5005,-2.5005,-2.5286,-2.5564,-2.5893,-2.639,-2.6938,-2.7464,-2.7795,-2.8122,-2.8411,-2.8411,-2.8444,-2.8493,-2.8493,-2.8541,-2.8604,-2.846,-2.8645,-2.9018,-2.9018,-2.9234,-2.972,-3.0437,-3.0954,-3.1311,-3.2154,-3.2654,-3.2912,-3.2951,-3.2951,-3.2897,0.0,0.0,0.0,0.0,0.0,0.0,0.0,0.0,0.0,0.0,0.0,0.0,0.0,0.0,-1.3956,0.0,0.0,0.0,-1.7294,-1.7753,-1.8383,-1.9264,-1.9489,-1.9614,-1.9614,-1.9738,-1.982,-1.9807,-1.988,-1.9352,-1.8286,-1.7622,-1.6809,-1.5903,-1.514,-1.4756,-1.4727,-1.4766,-1.4785,-1.4794,-1.4794,-1.4804,-1.4794,-1.4804,-1.4794,-1.4794,-1.4803,-1.4813,-1.4823,-1.4794,0.0,0.0,0.0,0.0,-1.5141,-1.6848,-1.6155,-1.607,-2.1688,0.0,-2.4752,-3.0421,-3.1162,0.0,-3.0518,-2.975,-2.9075,-2.9075,-2.8951,-2.8826,-2.8794,-2.8604,-2.846,-2.8396,-2.8411,-2.8411,-2.8411,-2.8299,-2.8122,-2.768,-2.7108,-2.6534,-2.619,-2.5646,-2.5258,-2.5258,-2.577,-2.6096,-2.615,-2.6587,-2.7108,-2.763,-2.768,-2.791,-2.8444,-2.8444,-2.8493,-2.8636,-2.8636,-2.8684,-2.8794,-2.8556,-2.8541,-2.8636,-2.8636,-2.8684,-2.8857,-2.9543,-3.0248,-3.092,-3.1746,-3.2416,-3.3005,-3.3096,-3.3043,-3.2951,0.0,0.0,0.0,0.0,0.0,0.0,0.0,0.0,0.0,0.0,-1.326,-1.3278,0.0,-1.4042,-1.4658,-1.4795,-1.6116,-1.717,-1.7628,0.0,0.0,-1.9282,-1.9489,-1.9614,-1.9614,-1.9801,-1.9868,-1.9807,-1.988,-1.907,-1.7449,-1.7401,-1.6911,-1.6042,-1.512,-1.4747,-1.4785,-1.4737,-1.4747,-1.4794,-1.4804,-1.4804,-1.4794,-1.4794,-1.4804,-1.4804,-1.4794,-1.4841,-1.4885,-1.4821,-1.4883,0.0,0.0,0.0,-1.4841,-1.5054,-1.6211,-1.7563,0.0,0.0,-2.6722,0.0,-3.1184,-3.0518,0.0,0.0,-2.9075,0.0,-2.8982,-2.8889,-2.8794,-2.8684,-2.8541,-2.8396,-2.8411,-2.8411,-2.8411,-2.7959,-2.7795,-2.8235,-2.7327,-2.6834,-2.7261,-2.6782,-2.6467,-2.6467,-2.6534,-2.6797,-2.7261,-2.7363,-2.768,-2.8235,-2.8299,-2.8381,-2.8573,-2.8573,-2.8636,-2.8747,-2.8747,-2.8794,-2.8794,-2.8747,-2.8747,-2.8747,-2.8747,-2.8794,-2.8857,-2.9673,-3.0396,-3.1055,-3.1931,-3.2677,-3.3256,-3.3256,-3.3256,-3.3256,0.0,0.0,0.0,0.0,0.0,0.0,0.0,0.0,0.0,0.0,0.0,-1.3901,-1.4042,-1.4865,-1.568,-1.6376,-1.7099,-1.7807,-1.8426,-1.9031,-1.9372,-1.9372,-1.9587,-1.9738,-1.9757,-1.9813,-1.9856,-1.9868,-1.9348,-1.8478,0.0,-1.6872,-1.6194,-1.5299,-1.4925,-1.4756,-1.4747,-1.4756,-1.4776,-1.4794,-1.4804,-1.5638,-1.6726,-1.5328,-1.5656,-1.6694,-1.529,0.0,0.0,-1.4902,-1.4942,-1.4992,-1.4976,0.0,0.0,0.0,-1.5351,0.0,-1.9779,-2.3445,-2.7252,0.0,-3.1334,-3.0845,-3.0845,0.0,-2.9499,-2.9499,-2.9243,-2.8982,-2.8889,-2.8716,-2.8573,-2.8541,-2.8444,-2.8411,-2.8411,-2.8186,-2.7959,-2.791,-2.7464,-2.7144,-2.7041,-2.6834,-2.6678,-2.6678,-2.699,-2.7246,-2.7515,-2.7845,-2.8122,-2.8411,-2.8493,-2.8541,-2.8573,-2.8684,-2.8779,-2.8858,-2.8905,-2.8967,-2.8967,-2.8967,-2.8905,-2.8858,-2.8858,-2.8905,-2.8983,-2.9328,-2.9911,-3.0637,-3.1397,-3.2108,-3.2771,-3.3166,-3.3309,-3.3309,0.0,0.0,0.0,0.0,0.0,0.0,0.0,0.0,0.0,0.0,0.0,-1.4753,-1.4951,0.0,0.0,0.0,-1.7927,-1.8371,-1.9101,-1.9308,-1.9423,-1.9452,-1.9686,-1.9832,-1.9896,-1.9856,-1.9856,-1.9896,-1.8971,0.0,-1.7281,-1.6484,-1.561,0.0,-1.4776,-1.4776,-1.4737,0.0,0.0,-1.4851,-1.5488,-1.6838,-1.8357,-1.7157,-1.7839,-1.9145,-1.6648,0.0,0.0,0.0,0.0,0.0,0.0,-1.5015,0.0,0.0,0.0,0.0,0.0,0.0,-2.5505,-2.971,-3.0341,-3.0137,0.0,0.0,-2.9793,0.0,-2.9425,-2.9075,-2.8967,-2.8795,-2.8668,-2.8621,-2.8541,-2.8444,-2.8444,-2.8396,-2.8235,-2.7795,-2.773,-2.758,-2.7159,-2.7108,-2.7108,-2.7108,-2.7479,-2.773,-2.778,-2.822,-2.846,-2.8508,-2.8589,-2.8668,-2.8668,-2.8826,-2.8905,-2.8967,-2.9075,-2.9075,-2.9075,-2.9075,-2.9075,-2.8967,-2.8967,-2.9013,-2.9075,-2.9075,-2.9548,-3.0243,-3.0939,-3.165,-3.2396,-3.304,-3.3309,-3.3309,0.0,0.0,0.0,0.0,0.0,0.0,0.0,0.0,0.0,0.0,0.0,-1.5724,-1.5742,-1.6853,-1.7644,-1.7696,-1.8497,-1.9101,-1.9285,-1.9353,-1.9452,-1.9582,-1.9725,0.0,-1.9896,-1.9903,-1.9903,-1.9896,0.0,0.0,-1.7281,-1.6484,-1.5639,-1.4794,-1.4794,-1.4794,-1.4794,0.0,0.0,0.0,0.0,0.0,0.0,0.0,0.0,0.0,0.0,0.0,0.0,0.0,0.0,0.0,0.0,0.0,0.0,0.0,0.0,0.0,0.0,-1.9165,0.0,-2.6426,-2.7388,0.0,0.0,0.0,-2.9793,-2.9793,-2.9425,-2.9075,-2.9075,-2.8967,-2.8873,-2.8794,-2.8684,-2.8589,-2.8589,-2.8493,-2.8411,-2.8348,-2.8348,-2.8348,-2.8299,-2.8299,-2.8299,-2.8299,-2.8348,-2.8396,-2.8525,-2.8573,-2.8636,-2.8794,-2.8794,-2.8826,-2.8858,-2.9029,-2.9091,-2.9075,-2.9075,-2.9075,-2.9075,-2.9075,-2.9075,-2.9075,-2.9075,-2.9075,-2.9075,-2.9075,-2.9548,-3.0243,-3.0939,-3.165,-3.2396,-3.304,-3.3309,-3.3309,0.0,0.0,0.0,0.0,0.0,0.0,0.0,0.0,0.0,0.0,0.0,0.0,0.0,-1.7878,-1.8483,-1.8719,-1.9065,-1.9261,-1.9182,-1.9398,-1.9569,-1.9662,-1.9751,-1.9856,-1.996,-1.988,-1.9574,0.0,0.0,-1.734,-1.6503,-1.5648,-1.5104,-1.4794,-1.4794,-1.4794,-1.4794,-1.4794,0.0,0.0,0.0,0.0,0.0,0.0,0.0,0.0,0.0,0.0,0.0,0.0,0.0,0.0,0.0,0.0,0.0,0.0,0.0,0.0,0.0,0.0,0.0,-2.4647,-2.6813,-2.8226,-2.9299,-3.0133,-3.0543,-3.0309,-2.9881,-2.947,-2.9167,-2.8967,-2.8904,-2.8889,-2.8779,-2.8747,-2.8747,-2.87,-2.8652,-2.8652,-2.8652,-2.8652,-2.8652,-2.8589,-2.8541,-2.8541,-2.8541,-2.8541,-2.8573,-2.8684,-2.8747,-2.8794,-2.8858,-2.8936,-2.9029,-2.9075,-2.9075,-2.9075,-2.9075,-2.9075,-2.9075,-2.9075,-2.9075,-2.9075,-2.9075,-2.9075,-2.9075,-2.9075,-2.9279,-2.9564,-3.0275,-3.097,-3.1681,-3.2376,-3.2914,-3.3309,0.0,0.0,0.0,0.0,0.0,-1.5796,-1.566,-1.6351,-1.6866,-1.6767,0.0,0.0,0.0,0.0,-1.8893,-1.8867,-1.9191,-1.9258,-1.8889,-1.9337,-1.9649,-1.9751,-1.9813,-1.976,-1.9576,-1.9458,-1.9021,-1.8227,-1.7342,-1.6626,0.0,-1.5207,-1.4794,-1.4794,-1.4794,-1.4794,0.0,0.0,0.0,-1.5085,0.0,0.0,-2.1459,0.0,0.0,0.0,0.0,0.0,0.0,0.0,0.0,0.0,0.0,0.0,0.0,0.0,0.0,0.0,-1.7841,0.0,0.0,0.0,0.0,-2.6538,-2.8237,0.0,-3.0133,-3.0597,-3.0351,-2.9881,-2.9425,-2.9273,-2.9136,-2.9013,-2.8889,-2.8811,-2.8811,-2.8826,-2.8794,-2.8794,-2.8794,-2.8794,-2.8794,-2.8684,-2.8636,-2.8684,-2.8636,-2.8621,-2.87,-2.8763,-2.8873,-2.892,-2.8936,-2.9013,-2.9075,-2.9075,-2.9075,-2.9075,-2.9075,-2.9075,-2.9075,-2.9075,-2.9075,-2.9075,-2.9075,-2.9075,-2.9075,-2.9075,-2.9075,-2.9154,-2.9911,-3.0607,-3.1302,-3.2013,-3.2708,-3.3361,0.0,0.0,-1.5717,-1.566,-1.635,-1.6945,-1.6945,-1.7512,-1.7897,-1.7736,0.0,0.0,0.0,0.0,0.0,-1.8027,-1.8809,-1.9058,-1.8391,-1.9093,-1.9619,-1.9828,-1.9821,-1.9465,-1.8677,-1.8596,-1.8208,-1.7463,-1.6563,-1.6082,-1.6036,-1.5208,-1.4794,-1.4794,-1.4794,-1.4794,-1.4794,0.0,-1.4794,-1.5235,0.0,-2.1347,-2.0408,0.0,0.0,0.0,-2.4826,-2.4738,0.0,-2.4885,0.0,0.0,0.0,0.0,0.0,0.0,0.0,0.0,0.0,0.0,0.0,0.0,0.0,0.0,-2.7191,-2.8048,-2.8435,-3.0565,-3.0754,-3.0393,-2.9924,-2.981,-2.9677,-2.9213,-2.9013,-2.8904,-2.8904,-2.8858,-2.8794,-2.8794,-2.8794,-2.8794,-2.8794,-2.8684,-2.8684,-2.8794,-2.8684,-2.87,-2.8904,-2.8904,-2.8967,-2.9075,-2.9075,-2.9075,-2.9075,-2.9075,-2.9075,-2.9075,-2.9075,-2.9075,-2.9075,-2.9075,-2.9075,-2.9075,-2.9075,-2.9121,-2.9121,-2.9121,-2.9121,-2.9185,-2.9927,-3.0623,-3.127,-3.1981,-3.2728,-3.3366,0.0,-1.6653,-1.6755,-1.662,-1.7291,-1.7844,-1.7844,-1.8499,-1.8812,0.0,0.0,0.0,-1.7629,-1.7614,-1.7509,-1.716,-1.7596,-1.7752,-1.7405,-1.7739,-1.7986,-1.8084,-1.806,-1.796,-1.7823,-1.7715,-1.7298,-1.6573,-1.6252,-1.578,-1.5142,-1.4916,-1.4794,-1.4794,-1.4794,-1.4794,-1.4794,-1.4794,0.0,-1.5292,-2.0915,-2.253,0.0,0.0,0.0,0.0,0.0,-2.6589,-2.5822,0.0,-2.5054,-2.0821,0.0,0.0,0.0,0.0,0.0,0.0,-1.7096,0.0,0.0,0.0,0.0,0.0,-2.3774,-2.6295,-2.8423,-2.8657,-2.9952,-3.0925,-3.0393,-3.0011,-2.9766,-2.9633,-2.9289,-2.9029,-2.9029,-2.9045,-2.8998,-2.8998,-2.8998,-2.8998,-2.8998,-2.8889,-2.8826,0.0,-2.8826,-2.8826,-2.8904,-2.8967,-2.9075,-2.9075,-2.9075,-2.9075,-2.9075,-2.9075,-2.9075,-2.9075,-2.9075,-2.9075,-2.9075,-2.9075,-2.9075,-2.9075,-2.9075,-2.9289,-2.9589,-2.9589,-2.981,-3.0113,-2.9976,-3.0312,-3.0972,-3.1387,-3.2169,-3.3174,-1.7282,-1.7554,-1.7676,-1.7639,-1.7988,-1.8289,-1.8289,-1.8414,-1.8365,0.0,0.0,0.0,-1.7114,-1.7077,-1.6923,-1.6454,-1.6951,-1.7105,-1.6641,-1.7071,-1.7363,-1.7404,-1.7424,-1.7283,-1.7013,-1.6942,-1.6525,-1.5708,-1.5702,-1.5384,-1.4832,-1.484,-1.4822,-1.4794,-1.4794,-1.4794,0.0,0.0,0.0,0.0,-2.0783,0.0,0.0,-2.6699,-2.8782,0.0,0.0,0.0,-2.8334,-3.0845,-2.7697,0.0,0.0,0.0,0.0,0.0,0.0,0.0,0.0,0.0,0.0,0.0,0.0,0.0,-2.3239,-2.5472,-2.7584,-2.9144,-3.0543,-3.1334,-3.0828,-3.0543,-3.0293,-3.014,-2.9837,-2.9544,-2.9167,-2.9075,-2.9075,-2.9075,-2.9075,-2.9075,-2.9075,-2.8967,-2.8904,-2.8967,-2.892,-2.8904,-2.8967,-2.9075,-2.9075,-2.9075,-2.9075,-2.9075,-2.9075,-2.9075,-2.9075,-2.9075,-2.9075,-2.9075,-2.9075,-2.9075,-2.9075,-2.9075,-2.9075,-2.938,-2.981,-3.0011,-3.014,-3.0182,-2.9924,-3.0113,-3.0574,-3.0927,-3.1855,-3.3129,0.0,-1.8019,-1.8444,-1.8399,-1.8327,-1.828,-1.8267,-1.7723,-1.7229,0.0,-1.6902,-1.6829,-1.6768,-1.6812,-1.6562,-1.5841,-1.6541,-1.6726,-1.5996,-1.6685,-1.7121,-1.7112,-1.7252,-1.6968,-1.6197,-1.6223,-1.5859,-1.5011,-1.5052,-1.5015,-1.493,-1.4906,-1.4873,-1.4832,-1.4822,-1.4813,-1.4813,0.0,0.0,-1.5761,-2.0333,-2.1854,0.0,0.0,-2.8314,-2.8108,-3.0471,-3.1088,-3.1104,-3.3098,-3.0977,0.0,0.0,0.0,0.0,0.0,-1.9787,0.0,0.0,0.0,0.0,0.0,-1.9178,0.0,-2.3844,-2.4752,-2.5906,-2.9886,-3.0904,-3.0952,-3.051,-3.0378,-3.0224,-2.9869,-2.9987,-2.9903,-2.9348,-2.9213,-2.9167,-2.9167,-2.9121,-2.9075,-2.9075,-2.8967,-2.8967,-2.9075,-2.8967,-2.8967,-2.9075,-2.9075,-2.9075,-2.9075,-2.9075,-2.9075,-2.9075,-2.9075,-2.9075,-2.9075,-2.9075,-2.9075,-2.9075,-2.9075,-2.9075,-2.9075,-2.9075,-2.938,-2.9837,-3.0267,-3.0225,-2.9924,-2.9881,-3.0019,-3.029,-3.0617,-3.1609,-3.2948,-1.7576,-1.8201,-1.8479,-1.7738,-1.7613,-1.7581,-1.7513,-1.7382,-1.7055,-1.6378,-1.5674,-1.5234,-1.5233,-1.5243,-1.5196,-1.5038,-1.5179,-1.5226,-1.5067,-1.5271,-1.5399,-1.5399,-1.5525,-1.5529,-1.542,-1.5363,-1.5286,-1.5151,-1.5014,-1.4981,-1.5057,-1.4946,-1.4946,-1.5042,-1.4942,-1.489,-1.4919,0.0,0.0,-1.8969,-2.0596,0.0,-2.4445,-2.8763,-3.1128,-3.231,-3.3475,-3.2591,-3.0639,-2.9101,-2.927,-2.9439,0.0,0.0,0.0,-2.0782,0.0,0.0,0.0,0.0,0.0,0.0,0.0,0.0,-2.0226,-2.1616,-2.2965,-2.3675,-2.5262,-2.642,-2.6224,-2.589,-2.5596,-2.553,-2.6792,-2.8355,-2.9978,-2.9881,-2.9677,-2.9677,-2.9335,-2.9075,-2.9075,-2.9075,-2.9075,-2.9075,-2.9075,-2.9075,-2.9075,-2.9075,-2.9075,-2.9075,-2.9075,-2.9075,-2.9075,-2.9075,-2.9075,-2.9075,-2.9075,-2.9075,-2.9075,-2.9075,-2.9075,-2.9075,-2.9075,-2.938,-2.981,-2.9881,-3.0293,-3.0828,-3.0502,-3.0392,-3.0418,-3.0364,-3.0733,-3.1551,-1.7646,-1.7925,-1.8019,-1.7584,-1.7121,-1.6782,-1.6701,-1.6324,-1.5911,-1.5498,-1.5067,-1.4794,-1.4794,-1.4794,-1.4794,-1.4794,-1.4794,-1.4794,-1.4794,-1.4857,-1.4917,-1.495,-1.5047,-1.5127,-1.5204,-1.5193,-1.5193,-1.5204,-1.5139,-1.5095,-1.5106,-1.508,-1.5735,-1.6894,-1.5516,-1.5616,-1.6753,0.0,-1.7047,-1.88,-2.1685,0.0,-2.7561,-3.0884,-3.2931,-3.4057,-3.4451,-3.3794,-3.2555,-3.1219,-2.9982,0.0,0.0,-2.6152,-2.461,0.0,-2.2256,-2.2664,0.0,0.0,0.0,-1.9602,0.0,0.0,0.0,-2.1596,-2.2522,-2.3407,-2.455,-2.531,-2.5046,-2.4895,-2.4773,-2.4671,-2.6402,-2.7772,-2.7807,-2.9164,-3.0054,-2.9853,-2.9793,-2.9633,-2.9167,-2.9289,-2.947,-2.947,-2.9677,-2.9722,-2.9454,-2.947,-2.9335,-2.9121,-2.9075,-2.9075,-2.9075,-2.9075,-2.9075,-2.9075,-2.9075,-2.9075,-2.9075,-2.9075,-2.9075,-2.9075,-2.9075,-2.9243,-2.947,-2.9705,-3.0225,-3.0788,-3.0601,-3.0351,-3.0189,-3.0287,-3.0599,-3.1124,-1.7221,-1.7284,-1.7294,-1.7149,-1.6497,-1.5958,-1.5876,-1.5273,-1.4794,-1.4794,-1.5188,-1.5477,-1.5507,-1.5938,-1.623,-1.625,-1.627,-1.6073,-1.5583,-1.5602,-1.5674,-1.5708,-1.533,-1.5368,-1.5906,-1.5507,-1.5265,-1.5226,-1.5265,-1.524,-1.5133,-1.5177,-1.6246,0.0,0.0,0.0,0.0,0.0,0.0,-1.9338,0.0,-2.6416,-2.8556,-3.1203,-3.2818,-3.3738,-3.4358,-3.4602,-3.4526,-3.3974,-3.1143,-2.7997,-2.9026,-2.7177,0.0,0.0,0.0,0.0,0.0,0.0,0.0,0.0,0.0,-1.9819,0.0,0.0,0.0,-2.3753,0.0,0.0,0.0,0.0,0.0,-2.3632,0.0,0.0,0.0,-2.7301,0.0,-2.8837,-2.9799,-3.0018,-2.885,-2.9065,-2.9442,-2.9892,-2.9872,-2.9865,-2.9951,-2.9924,-2.9722,-2.9243,-2.9243,-2.9213,-2.9075,-2.9075,-2.9075,-2.9075,-2.9075,-2.9075,-2.9075,-2.9075,-2.9075,-2.9075,-2.9075,-2.9075,-2.9121,-2.9499,-3.0011,-3.0518,-3.0518,-3.0267,-2.9968,-3.0267,-3.0457,-3.0697,-1.5579,-1.6187,-1.6438,-1.5623,-1.5331,-1.519,-1.5066,-1.4896,-1.4794,-1.4794,-1.6615,-1.7944,-1.8069,0.0,0.0,0.0,0.0,0.0,-1.8399,-1.8317,-1.8327,-1.8287,-1.6287,-1.6227,-1.8424,-1.6386,-1.5306,-1.5283,-1.5236,-1.5226,-1.5289,-1.5218,-1.5372,0.0,-1.8421,0.0,0.0,0.0,-2.2984,0.0,-2.6397,-2.5402,0.0,-2.6697,-2.8875,-3.064,-3.355,-3.4602,-3.4264,0.0,-3.0939,-2.9739,0.0,-2.6767,-2.8556,-2.1953,0.0,0.0,0.0,0.0,0.0,0.0,-1.9569,0.0,0.0,0.0,-1.9654,-1.9704,0.0,0.0,0.0,0.0,0.0,0.0,0.0,0.0,-2.1661,-2.3946,-2.5545,-2.5154,-2.8298,-2.9658,-2.7553,-2.7388,-2.8234,-3.0286,-2.8609,-2.8345,-3.0336,-3.0435,-3.0225,-2.9766,-2.9705,-2.9499,-2.9121,-2.9075,-2.9075,-2.9075,-2.9075,-2.9075,-2.9075,-2.9075,-2.9075,-2.9075,-2.9075,-2.9075,-2.9121,-2.9167,-2.9722,-3.0518,-3.0518,-3.0477,-3.0393,-3.0011,-2.9637,-2.9542,-1.537,-1.5613,-1.5714,-1.5273,-1.5176,-1.5101,-1.4989,-1.4503,-1.4314,-1.4748,-1.5261,-1.5588,0.0,0.0,0.0,0.0,0.0,-1.9842,0.0,0.0,-1.8127,-1.6629,-1.5683,-1.5686,-1.6727,-1.5802,-1.5291,-1.5291,-1.5265,-1.526,-1.5302,-1.5279,-1.6303,0.0,-1.9643,0.0,-2.1486,0.0,-2.435,0.0,0.0,0.0,0.0,-2.9157,-3.1917,-3.2724,-3.4113,-3.4602,-3.4433,0.0,-3.1088,0.0,0.0,0.0,0.0,-2.4332,0.0,0.0,0.0,0.0,0.0,0.0,0.0,0.0,-1.9822,0.0,-1.9292,0.0,0.0,0.0,0.0,0.0,0.0,0.0,-2.0501,0.0,0.0,0.0,-2.5277,-2.4844,0.0,0.0,-2.7511,-2.8661,-2.9839,-3.0778,-3.0222,-3.0142,-3.0834,-3.0845,-3.0518,-2.9837,-2.9793,-2.9589,-2.9121,-2.9075,-2.9075,-2.9075,-2.9075,-2.9075,-2.9075,-2.9075,-2.9075,-2.9075,-2.9075,-2.9075,-2.9075,-2.9075,-2.9499,-3.0097,-3.0097,-3.0377,-3.0804,-3.0377,-2.9924,-2.9592,-1.5405,0.0,0.0,-1.5241,-1.5201,-1.5151,-1.5023,-1.4449,-1.4214,-1.4738,0.0,0.0,-1.4945,-1.6691,0.0,0.0,-2.107,-2.1567,0.0,0.0,-1.9345,-1.8189,-1.6247,-1.5827,-1.724,-1.5985,-1.5299,-1.5299,-1.5295,-1.5427,-1.5664,-1.5664,-1.7089,-1.9671,0.0,-2.2265,-2.4495,0.0,-2.5896,-2.4949,-2.7278,-2.7186,-2.6228,-3.1316,-3.3813,-3.4602,-3.4602,-3.4602,-3.4467,-3.3727,-3.1085,0.0,-3.1387,-2.9037,-2.5448,0.0,0.0,0.0,-2.1421,0.0,0.0,0.0,0.0,0.0,0.0,0.0,0.0,0.0,0.0,0.0,0.0,0.0,0.0,0.0,0.0,-2.0822,0.0,-2.1718,0.0,0.0,0.0,0.0,0.0,-2.8699,-2.9916,-3.0421,-3.0853,-3.1165,-3.1359,-3.1355,-3.1027,-3.0276,-3.0081,-2.9793,-2.9319,-2.9152,-2.9075,-2.9075,-2.9075,-2.9075,-2.9075,-2.9075,-2.9075,-2.9075,-2.9075,-2.9075,-2.9121,-2.9167,-2.9425,-2.9793,-2.9941,-3.0393,-3.0908,-3.0601,-3.0225,-2.9793,-1.5403,-1.5403,0.0,0.0,-1.5236,-1.5157,-1.5015,-1.4912,-1.4844,0.0,0.0,0.0,0.0,0.0,0.0,0.0,0.0,-2.8817,-2.642,0.0,-2.3567,-2.6013,-1.9058,-1.7446,0.0,-1.779,-1.5295,-1.5295,-1.5295,-1.5738,-1.656,-1.656,-1.7074,-1.8125,-2.1292,-2.2778,-2.3062,-2.6174,-2.8791,-3.0907,-3.081,-3.2161,-3.3888,0.0,-3.1823,-3.4602,-3.4602,0.0,0.0,-3.1719,-3.0781,0.0,0.0,0.0,0.0,0.0,0.0,0.0,0.0,0.0,0.0,-2.0111,0.0,0.0,0.0,0.0,-1.9468,0.0,0.0,0.0,0.0,0.0,0.0,0.0,0.0,0.0,0.0,0.0,0.0,0.0,0.0,0.0,0.0,-2.5928,-2.6854,0.0,-2.9082,-3.0039,-3.1951,-3.2073,-3.1858,-3.1359,-3.0851,-3.036,-2.9859,-2.9364,-2.9075,-2.9075,-2.9075,-2.9075,-2.9075,-2.9075,-2.9075,-2.9075,-2.9075,-2.9075,-2.9121,-2.938,-2.9589,-2.9853,-3.03,-3.0493,-3.0518,-3.0518,-3.0225,-2.9837,-1.5405,0.0,0.0,0.0,0.0,0.0,-1.5092,-1.4521,0.0,0.0,-1.748,0.0,0.0,-2.2187,-2.4058,0.0,0.0,-2.7249,-2.6554,-2.4591,0.0,-2.4821,-1.9699,-1.8455,0.0,0.0,-1.6441,-1.7023,-1.6441,-1.6611,-1.7465,-1.7461,-1.7626,-1.8043,0.0,-2.3782,0.0,0.0,0.0,0.0,0.0,-3.141,-3.2217,0.0,-3.3625,-3.4602,-3.4602,-3.4602,0.0,-3.3496,-3.2107,-3.0872,-3.1529,-3.0073,-2.831,-2.9109,-2.8793,-2.779,0.0,0.0,-2.712,-2.2982,0.0,0.0,0.0,0.0,0.0,0.0,0.0,0.0,0.0,0.0,0.0,-1.9103,0.0,0.0,0.0,0.0,0.0,0.0,0.0,0.0,0.0,0.0,0.0,-2.9158,-3.0579,-3.1706,-3.2385,-3.2214,-3.1875,-3.1355,-3.1162,-3.0828,-3.0276,-2.9793,-2.9544,-2.9544,-2.9259,-2.9075,-2.9121,-2.9289,-2.9335,-2.938,-2.9515,-2.9544,-2.9589,-2.9677,-2.9766,-2.981,-2.9984,-3.0241,-3.051,-3.051,-3.0342,-3.0087,-1.5406,-1.5146,0.0,0.0,0.0,0.0,0.0,0.0,0.0,0.0,-1.7798,0.0,-2.1192,0.0,-2.4639,0.0,-2.7504,-2.8183,-2.7443,-2.6359,0.0,-2.5848,-2.2407,0.0,0.0,0.0,0.0,0.0,-1.7334,-1.6891,-1.7435,-1.7431,-1.7597,-1.8009,0.0,-2.3209,-2.6757,-2.8874,-3.0874,0.0,0.0,-3.2217,0.0,0.0,-3.4038,-3.34,0.0,-3.4583,-3.4539,-3.445,-3.3359,-3.231,-3.3743,-3.2042,-2.9795,-3.1392,-3.0742,-2.9293,-2.8459,-2.9388,0.0,-2.5523,-2.569,0.0,-2.1666,0.0,-2.0643,0.0,0.0,0.0,0.0,0.0,0.0,-2.073,-2.0115,0.0,0.0,-1.9701,0.0,0.0,0.0,0.0,0.0,0.0,-2.7881,-2.9485,-3.0912,-3.2,-3.2634,-3.2488,-3.2144,-3.1691,-3.1524,-3.124,-3.0908,-3.0293,-2.9968,-2.9968,-2.9544,-2.9335,-2.9335,-2.9515,-2.9605,-2.9589,-2.975,-2.9793,-2.981,-2.9897,-2.9897,-2.981,-2.9984,-3.0113,-3.0258,-3.0426,-3.0443,-3.0316,-1.5269,-1.4639,0.0,0.0,-1.5154,0.0,0.0,0.0,-1.5091,0.0,-1.8181,-1.908,-2.252,-2.5797,-2.7747,-2.7826,-3.0825,-3.169,-2.934,-2.9171,0.0,0.0,-2.6982,-2.687,-2.9574,0.0,0.0,0.0,0.0,0.0,-1.665,-1.667,-1.7081,-1.7835,-1.7874,0.0,-2.673,-2.6573,-2.9889,-3.5165,-3.4772,-3.4548,-3.4454,-3.4545,-3.3062,-3.1222,-3.37,-3.4561,-3.4495,-3.4427,-3.4363,-3.4293,-3.4221,-3.4197,-3.4197,-3.4197,-3.4197,-3.3696,-3.1392,-3.0782,-3.0185,-2.7693,-2.7081,0.0,0.0,0.0,-2.3289,0.0,0.0,0.0,0.0,0.0,0.0,-2.2813,-2.1127,0.0,0.0,0.0,-1.9915,0.0,0.0,0.0,0.0,-2.3289,-2.5189,-2.9533,-2.999,-3.0901,0.0,-3.2688,-3.2563,-3.2422,-3.1894,-3.162,-3.162,-3.0771,-3.0335,-3.0335,-3.0011,-2.9837,-2.9837,-2.9793,-2.981,-2.9793,-2.9853,-2.9837,-2.9853,-3.0103,-3.0044,-2.9897,-3.0342,-3.0258,-2.9897,-3.0342,-3.0485,-3.0485,-1.3475,-1.3802,-1.395,0.0,-1.3816,-1.4297,0.0,0.0,0.0,0.0,-2.3585,-2.5841,-2.9374,-3.0541,-3.1085,-3.1151,-3.205,0.0,0.0,0.0,0.0,-3.2977,-2.94,-2.8621,-3.13,-2.5067,0.0,-2.2433,0.0,0.0,-1.7579,-1.7562,-1.734,-1.6967,0.0,0.0,-2.5878,-2.6475,-3.0034,-3.5239,-3.4889,-3.3636,-3.2203,0.0,-3.3062,-3.1222,-3.37,-3.4602,-3.4561,-3.4495,-3.4427,-3.4363,-3.4293,-3.4245,-3.4197,-3.4197,-3.4197,-3.4048,-3.3436,-3.3268,-3.2692,-3.0197,-2.9564,-2.8934,0.0,0.0,0.0,0.0,0.0,0.0,0.0,0.0,0.0,0.0,0.0,0.0,0.0,0.0,0.0,-2.005,0.0,0.0,0.0,-2.3955,-2.6525,-2.7754,-2.9195,-3.1068,-3.3423,-3.1379,-3.0894,-3.2568,-3.2266,-3.202,-3.1984,-3.1414,-3.1128,-3.1128,-3.0485,-3.0182,-3.0182,-3.013,-3.0103,-3.0103,-3.0258,-3.0342,-3.0342,-3.0384,-3.0384,-3.0342,-3.0426,-3.0426,-3.03,-3.0274,-3.0274,-3.0274,-1.2812,-1.3206,0.0,-1.3295,0.0,0.0,-1.6701,-1.647,0.0,-2.2908,-2.4238,0.0,-2.9551,-3.1638,-3.2808,-3.2864,-3.3403,0.0,-3.2269,0.0,0.0,-3.3197,-3.2069,-3.2135,-3.3665,-2.8805,0.0,-2.4246,0.0,-1.816,-1.6763,-1.6771,-1.6491,0.0,0.0,-1.9143,-2.3489,-2.6898,-3.0333,-3.3578,-3.4434,-3.3938,0.0,-3.4097,-3.3719,-3.2705,-3.4095,-3.4602,-3.4602,-3.4517,-3.4473,-3.4404,-3.4316,-3.4245,-3.4197,-3.4197,-3.4197,-3.4197,-3.4197,-3.4197,-3.3863,-3.2465,-3.2131,-3.1459,-2.8987,-2.8431,-2.8431,0.0,-2.7559,-2.706,0.0,0.0,0.0,0.0,0.0,0.0,0.0,0.0,0.0,0.0,-2.0975,0.0,-1.965,-2.4013,-2.6673,-2.6083,-2.736,-2.8743,-3.0013,-2.9311,-2.9587,-3.1138,-3.2007,-3.2404,-3.2232,-3.1967,-3.1752,-3.1603,-3.0925,-3.0617,-3.0617,-3.0426,-3.0316,-3.0359,-3.0443,-3.0526,-3.0526,-3.0526,-3.0526,-3.051,-3.0634,-3.0651,-3.051,-3.0526,-3.0568,-3.0526,-1.2793,-1.2888,0.0,0.0,0.0,0.0,0.0,-1.7293,0.0,-2.3545,0.0,-2.4503,-2.7606,-3.1317,-3.3599,-3.3696,0.0,-3.4225,-3.2035,-3.4139,-3.4487,-3.2289,-3.4497,-3.5814,-3.5893,-3.3239,-2.9832,0.0,-2.2976,-1.9456,-1.5306,-1.5306,0.0,0.0,0.0,0.0,0.0,-2.767,-3.0852,-3.193,-3.398,-3.4747,-3.4645,-3.4623,-3.4602,-3.4602,-3.4602,-3.4602,-3.4583,-3.4539,-3.4473,-3.4386,-3.4316,-3.4269,-3.4197,-3.4197,-3.4197,-3.4197,-3.4197,-3.4197,-3.4197,-3.4197,-3.4197,-3.364,-3.1477,-3.0976,-3.0976,-3.0976,-2.9265,-2.907,-3.3296,0.0,0.0,0.0,0.0,0.0,0.0,0.0,0.0,0.0,0.0,0.0,0.0,-2.315,-2.5555,-2.4335,-2.4807,-2.5314,-2.5668,0.0,-2.8453,-2.9601,-3.1599,-3.2563,-3.2439,-3.2403,-3.2248,-3.1948,-3.1351,-3.1055,-3.1055,-3.0675,-3.0526,-3.0526,-3.0526,-3.0526,-3.0526,-3.0526,-3.0526,-3.051,-3.0814,-3.0773,-3.0526,-3.0895,-3.1015,-3.1015,-1.279,0.0,0.0,0.0,0.0,-2.0665,-2.3706,-2.5105,-2.6486,-2.8449,-3.0265,-3.1899,-3.3337,-3.4072,-3.4565,-3.4792,-3.4906,0.0,0.0,0.0,0.0,-3.4858,-3.5397,-3.5768,-3.5893,-3.2697,-2.9269,-2.5702,-2.2353,-1.8871,-1.5306,-1.5303,0.0,0.0,0.0,0.0,-2.4772,-2.8659,0.0,-3.4672,-3.4756,-3.481,-3.4831,-3.4668,-3.4602,-3.4602,-3.4602,-3.4602,-3.4602,-3.4602,-3.4495,-3.4404,-3.4404,-3.4293,-3.4197,-3.4197,-3.4197,-3.4197,-3.4197,-3.4197,-3.4197,-3.4197,-3.4197,-3.4086,-3.3658,-3.3547,-3.3547,-3.3547,-3.3213,-3.2581,-3.1496,0.0,0.0,0.0,0.0,0.0,0.0,0.0,0.0,0.0,0.0,-2.2653,0.0,0.0,-2.2023,-2.1836,-2.1783,-2.3506,-2.7569,0.0,-2.7043,0.0,-3.1876,-3.2107,0.0,-3.2506,-3.2371,-3.2319,-3.1709,-3.1389,-3.1389,-3.0797,-3.0526,-3.0526,-3.0526,-3.0526,-3.0526,-3.0526,-3.0526,-3.0526,-3.0551,-3.0568,-3.0526,-3.0895,-3.1173,-3.1351,0.0,0.0,0.0,0.0,0.0,0.0,0.0,-2.9738,-3.1128,-3.0042,-3.0678,-3.146,-3.2034,-3.3695,-3.4793,-3.4927,-3.5019,-3.5089,-3.5174,-3.532,-3.5416,-3.5495,-3.564,-3.5755,-3.5893,-3.4298,-3.0909,-2.5702,-2.402,-2.0488,-1.5306,-1.5303,0.0,-1.538,0.0,-1.9985,0.0,0.0,0.0,-3.3325,-3.4415,-3.4849,-3.483,-3.4647,-3.4602,-3.4602,-3.4602,-3.4602,-3.4602,-3.4602,-3.4517,-3.4386,-3.4386,-3.4293,-3.4197,-3.4197,-3.4197,-3.4197,-3.4197,-3.4197,-3.4197,-3.4197,-3.4197,-3.4197,-3.4197,-3.4197,-3.4197,-3.4197,-3.4197,-3.3454,-3.1021,-2.857,0.0,0.0,0.0,0.0,0.0,0.0,-2.605,0.0,0.0,0.0,0.0,0.0,0.0,0.0,0.0,-2.191,-2.5566,0.0,-2.5495,0.0,0.0,0.0,-3.2157,0.0,-3.2299,-3.2388,-3.1783,-3.1504,-3.1483,-3.0797,-3.0526,-3.0526,-3.0526,-3.0526,-3.051,-3.0692,-3.0773,-3.0814,-3.11,-3.114,-3.1078,-3.1351,-3.1562,-3.1654,0.0,-1.5423,0.0,0.0,-2.3764,-2.6786,-2.9213,-3.2341,-3.3564,-3.1201,-3.0582,-3.0423,-3.0583,-3.3128,-3.4851,-3.4889,-3.5054,-3.5141,-3.5209,-3.532,-3.5416,-3.5495,-3.5626,-3.5757,-3.5893,-3.5893,-3.2914,-2.6776,-2.6054,-2.2605,-1.6647,-1.5734,-1.5695,0.0,0.0,0.0,0.0,0.0,-3.104,-3.2257,-3.413,-3.487,-3.4809,-3.4687,-3.4623,-3.4602,-3.4602,-3.4602,-3.4583,-3.4539,-3.4473,-3.4386,-3.434,-3.4269,-3.4197,-3.4124,-3.4148,-3.4197,-3.4197,-3.4197,-3.4197,-3.4197,-3.4197,-3.4197,-3.4197,-3.4197,-3.4197,-3.4197,-3.4197,-3.3454,-3.1021,-2.9425,0.0,0.0,0.0,0.0,0.0,0.0,0.0,0.0,0.0,0.0,-2.0557,0.0,0.0,0.0,0.0,0.0,-2.303,0.0,0.0,0.0,-2.9305,-3.0384,-3.0683,0.0,-3.2054,-3.2142,-3.177,-3.1579,-3.1579,-3.0998,-3.0716,-3.0716,-3.0716,-3.0716,-3.0716,-3.1015,-3.1095,-3.1173,-3.1637,-3.1691,-3.1542,-3.1785,-3.1894,-3.1858,0.0,0.0,0.0,0.0,0.0,-2.9589,-3.0047,-3.2618,-3.4326,-3.3864,-3.4033,-3.4182,-3.4202,-3.4623,-3.4945,-3.5141,-3.5019,-3.5019,-3.5193,-3.532,-3.5416,-3.5495,-3.5626,-3.5757,-3.5893,-3.5893,-3.4064,-3.0325,-2.7224,-2.4124,-2.1017,-1.7113,-1.6996,0.0,0.0,0.0,-2.9679,-3.0113,-3.2135,-3.5009,-3.4942,-3.4908,-3.4889,-3.4829,-3.4727,-3.4602,-3.4602,-3.4602,-3.4561,-3.4386,-3.4363,-3.434,-3.4124,-3.4124,-3.4148,-3.3895,-3.3998,-3.4197,-3.4197,-3.4197,-3.4197,-3.4197,-3.4197,-3.4197,-3.4197,-3.4197,-3.4197,-3.4197,-3.4197,-3.3454,-3.1021,-3.2191,-3.2804,0.0,0.0,0.0,0.0,0.0,-3.0996,-2.7325,0.0,0.0,-2.2348,-2.1924,0.0,0.0,-2.0001,0.0,0.0,0.0,0.0,-2.6878,-2.6893,-2.7123,-2.7709,-3.0331,-3.1551,-3.1317,-3.1689,-3.1858,-3.1858,-3.1542,-3.1389,-3.1389,-3.1389,-3.1389,-3.1389,-3.1428,-3.1428,-3.1466,-3.1521,-3.1504,-3.1542,-3.1785,-3.1894,-3.1948,0.0,0.0,0.0,0.0,0.0,0.0,0.0,-3.3747,-3.4464,-3.4394,-3.4651,-3.4831,-3.4831,-3.4963,-3.5107,-3.5174,-3.519,-3.5223,-3.532,-3.5416,-3.5521,-3.5615,-3.5667,-3.5757,-3.5893,-3.5893,-3.4226,0.0,0.0,-2.4074,-2.0945,-1.9212,-2.0255,-2.3659,-2.5718,-2.8066,-3.0626,-3.259,-3.418,-3.5383,-3.5126,-3.4964,-3.4889,-3.4829,-3.4727,-3.4602,-3.4602,-3.4602,-3.4561,-3.4381,-3.4245,-3.4148,-3.4074,-3.4023,-3.3947,-3.3815,-3.3998,-3.4173,-3.3998,-3.4074,-3.4197,-3.4197,-3.4197,-3.4197,-3.4197,-3.4197,-3.4197,-3.4197,-3.4197,-3.39,-3.2934,-3.2358,-3.2191,-3.2674,0.0,0.0,0.0,0.0,0.0,-2.9336,0.0,-2.5739,-2.4511,-2.3207,0.0,0.0,0.0,0.0,0.0,0.0,0.0,-2.6135,0.0,-2.846,-2.8968,-2.9963,-3.0796,-3.1452,-3.1306,-3.1461,-3.1894,-3.1617,-3.1504,-3.1504,-3.1504,-3.1504,-3.1504,-3.1691,-3.1765,-3.1765,-3.1965,-3.2054,-3.2054,-3.2161,-3.2196,-3.2232,-2.6591,0.0,-2.7731,0.0,-3.1464,-3.2193,-3.4356,-3.4695,-3.4675,-3.4632,-3.4832,-3.4963,-3.4926,-3.5051,-3.5187,-3.5266,-3.5374,-3.5435,-3.5435,-3.5502,-3.5604,-3.5707,-3.5728,0.0,-3.5893,-3.5893,-3.4715,-3.2305,-2.8866,0.0,-2.3867,-2.2848,-2.4067,-2.7213,-2.9622,-3.1204,-3.2212,-3.4519,-3.5477,-3.5402,-3.5209,-3.5038,-3.4889,-3.4849,-3.4728,-3.4602,-3.4602,-3.4602,-3.4561,-3.4381,-3.413,-3.3902,-3.3831,-3.377,-3.3726,-3.368,-3.3868,-3.4049,-3.3947,-3.4049,-3.4197,-3.4197,-3.4197,-3.4197,-3.4197,-3.4197,-3.4197,-3.4197,-3.4197,-3.4197,-3.4197,-3.2804,-3.2135,-3.3603,0.0,0.0,0.0,-3.1318,0.0,-2.9277,-2.712,-2.5707,-2.5777,-2.4358,0.0,0.0,0.0,0.0,0.0,0.0,0.0,0.0,0.0,0.0,-2.8677,-2.9366,-3.0106,-3.0914,-3.0705,-3.0994,-3.1689,-3.1735,-3.1783,-3.1783,-3.1783,-3.1783,-3.1783,-3.1948,-3.2055,-3.2073,-3.2319,-3.2406,-3.2406,-3.2406,-3.2406,-3.2406,-2.9631,-3.0189,-3.1188,-3.456,-3.5152,-3.5152,-3.5174,-3.5193,-3.5124,-3.4908,-3.5072,-3.5155,-3.5009,-3.4992,-3.5143,-3.547,-3.5495,-3.5495,-3.5495,-3.5615,-3.5707,0.0,0.0,-3.5827,-3.5893,-3.5893,-3.5874,-3.5837,0.0,0.0,-3.1797,-2.8398,-2.8185,-3.0632,-3.0671,-3.2574,-3.5724,-3.5577,-3.5495,-3.5483,-3.5285,-3.5072,-3.4908,-3.4908,-3.4771,-3.4602,-3.4602,-3.4602,-3.4561,-3.4381,-3.4037,-3.3661,-3.3314,-3.3379,-3.3559,-3.335,-3.3522,-3.3868,-3.4124,-3.4197,-3.4197,-3.4197,-3.4197,-3.4197,-3.4197,-3.4197,-3.4197,-3.4197,-3.4197,-3.4197,-3.4197,-3.4179,-3.39,-3.3138,0.0,0.0,0.0,-3.0615,0.0,-2.6154,-2.5726,-2.5708,-2.5708,-2.5789,0.0,0.0,0.0,0.0,0.0,0.0,0.0,-2.5689,-2.5726,0.0,-2.5362,-2.8233,-2.9566,-2.9323,-2.9876,-3.0492,-3.123,-3.2037,-3.2406,-3.2406,-3.2406,-3.2406,-3.2406,-3.2388,-3.2388,-3.2388,-3.2406,-3.2406,-3.2406,-3.2406,-3.2406,-3.2406,-3.3595,-3.3691,-3.3964,-3.5018,-3.5209,-3.5209,-3.5209,-3.5209,-3.52,-3.5254,-3.5187,-3.5245,-3.5514,-3.5374,-3.5321,0.0,-3.5574,-3.5646,0.0,-3.5728,-3.5765,-3.5765,-3.5782,-3.5826,-3.5895,-3.5903,-3.5893,-3.5893,0.0,0.0,-3.1098,-2.9991,-3.1176,-3.4187,-3.4187,-3.4789,-3.5791,-3.5596,-3.5495,-3.5483,-3.5239,-3.5038,-3.4908,-3.4849,-3.4728,-3.4602,-3.4602,-3.4602,-3.4561,-3.4381,-3.413,-3.3831,-3.3476,-3.3321,-3.3202,-3.3032,-3.3184,-3.3494,-3.356,-3.3743,-3.3972,-3.4148,-3.4197,-3.4197,-3.4197,-3.4197,-3.4197,-3.4197,-3.4197,-3.4197,-3.4197,-3.3751,-3.3287,-3.3027,-3.2061,0.0,-3.0671,0.0,-2.9388,-2.8347,-2.8218,-2.8218,-2.8217,-2.839,0.0,0.0,0.0,0.0,0.0,0.0,0.0,0.0,-2.7344,0.0,-2.8116,-2.8633,-2.9122,-2.9575,-2.9384,-2.9966,-3.1194,-3.1458,-3.1879,-3.2406,-3.2406,-3.2406,-3.2406,-3.2406,-3.2406,-3.2406,-3.2406,-3.2406,-3.2406,-3.2406,-3.2406,-3.2406,-3.5485,-3.5341,-3.5235,-3.5322,-3.5301,-3.5292,-3.5348,-3.5361,-3.5372,-3.5466,-3.5366,-3.5427,-3.5758,-3.5655,0.0,-3.5629,-3.5724,-3.5779,-3.5772,-3.5807,-3.5833,-3.5845,-3.5845,-3.5859,-3.5899,-3.5903,0.0,-3.5909,-3.3768,-3.2688,-3.2613,-3.2613,-3.3759,-3.5799,-3.5799,-3.5799,-3.5791,-3.5648,-3.5593,-3.555,-3.5251,-3.5072,-3.4963,-3.483,-3.4727,-3.4602,-3.4602,-3.4602,-3.4561,-3.4473,-3.4269,-3.4074,-3.3752,-3.3419,-3.3142,-3.3111,-3.3202,-3.335,-3.3588,-3.3797,-3.3998,-3.4148,-3.4124,-3.4049,-3.4049,-3.4124,-3.4197,-3.4197,-3.4197,-3.4104,-3.3807,-3.3324,-3.2785,-3.2191,-3.1244,-3.0504,-3.0206,-2.9723,-2.9054,-2.8124,-2.8014,-2.8014,-2.8013,-2.8147,-2.7958,0.0,0.0,0.0,0.0,0.0,-2.792,-2.7102,-2.8589,-2.9407,-2.9407,-2.879,-2.8826,-2.9428,-2.9173,-2.951,-3.0352,-3.1062,-3.159,-3.2001,-3.25,-3.269,-3.2557,-3.2557,-3.2557,-3.2557,-3.2457,-3.2406,-3.2406,-3.2406,-3.2354,-3.2319,-3.56,-3.5407,-3.5292,-3.5543,-3.5495,-3.5454,-3.5585,-3.5606,-3.5593,-3.5619,-3.56,-3.5657,-3.5802,-3.5802,-3.5834,-3.5899,0.0,0.0,-3.5893,-3.5893,-3.59,-3.5899,-3.5894,-3.5899,-3.5893,-3.5896,-3.5909,-3.5898,-3.59,-3.5879,-3.5807,-3.5799,-3.5799,-3.5799,-3.5799,-3.5799,-3.5791,-3.5718,-3.5707,-3.5687,-3.5393,-3.5264,-3.5183,-3.504,-3.4917,-3.4792,-3.4792,-3.4755,-3.4677,-3.4677,-3.4529,-3.4269,-3.4148,-3.3725,-3.3273,-3.3502,-3.3397,-3.3361,-3.3979,-3.4148,-3.4148,-3.4197,-3.4023,-3.3834,-3.3834,-3.4023,-3.4197,-3.4197,-3.416,-3.3881,-3.3138,-3.2897,-3.234,-3.0857,-3.0559,-3.0262,-2.9518,-2.9407,-2.8552,-2.6228,0.0,0.0,-2.5968,-2.6041,-2.6935,0.0,0.0,0.0,0.0,0.0,-2.709,-2.9332,-2.9407,-2.9407,-2.9407,-2.8814,-2.867,-2.8957,-2.9161,-2.9136,-2.9009,-3.0831,-3.1511,-3.1329,-3.2709,-3.3124,-3.2827,-3.2827,-3.2827,-3.2781,-3.2523,-3.2422,-3.2406,-3.2406,-3.2319,-3.2214,0.0,0.0,-3.54,-3.5578,-3.5495,-3.5454,-3.5585,-3.5606,-3.5638,-3.5747,-3.5754,-3.5808,-3.5936,-3.5918,-3.5898,-3.5971,-3.593,-3.5907,-3.5893,-3.5893,-3.589,-3.5903,-3.5903,-3.5907,-3.5893,-3.5893,-3.5898,-3.5898,-3.59,-3.5883,-3.5885,-3.5823,-3.5799,-3.5799,-3.5799,-3.5799,-3.5791,-3.5718,-3.5707,-3.5725,-3.6061,-3.6176,-3.622,-3.6635,-3.674,-3.6653,-3.6653,-3.6193,-3.5597,-3.5597,-3.5015,-3.4293,-3.4269,-3.3943,-3.3524,-3.3166,-3.2862,-3.2737,-3.3332,-3.3504,-3.3616,-3.408,-3.4148,-3.4099,-3.4099,-3.4148,-3.4197,-3.4197,-3.3714,-3.3231,-3.3027,-3.1987,-3.1021,-3.0671,-3.0095,-2.963,-2.9444,-2.9407,-2.9184,0.0,-2.8516,-2.8516,-2.8515,-2.869,-2.8217,0.0,0.0,-2.6857,-2.6825,-2.6212,-2.6951,-2.9332,-2.9407,-2.9407,-2.9407,-2.9071,-2.8785,-2.8621,-2.8677,-2.8963,-2.9557,-3.063,-3.1376,-3.1948,-3.2889,-3.3243,-3.3184,-3.3184,-3.3032,-3.2795,-3.2716,-3.2573,-3.2406,-3.2406,-3.2319,-3.2214,-3.5879,-3.569,-3.5562,-3.575,-3.5666,-3.5749,-3.6303,-3.637,-3.6554,-3.7012,-3.709,-3.7085,-3.7102,-3.6707,-3.645,-3.6459,-3.6129,-3.5914,-3.5937,-3.5957,-3.5936,-3.5891,-3.5891,-3.5891,-3.5891,-3.5898,-3.5898,-3.5898,-3.5906,-3.5903,-3.5903,-3.5866,-3.5852,-3.5833,-3.5815,-3.6032,-3.6393,-3.6357,-3.6581,-3.6949,-3.716,-3.7238,-3.7247,-3.743,-3.7413,-3.733,-3.7303,-3.693,-3.6441,-3.6441,-3.581,-3.503,-3.503,-3.4494,-3.3813,-3.3524,-3.3273,-3.3172,-3.3588,-3.3698,-3.3752,-3.3972,-3.4124,-3.4173,-3.4049,-3.4124,-3.4197,-3.4197,-3.3547,-3.2878,-3.2507,-3.1429,-3.0485,-3.0113,-2.8738,-2.8106,-2.924,-2.8422,-2.8143,-2.9277,-2.9409,-2.9409,-2.9407,-2.9492,-2.9008,-2.766,-2.7583,0.0,-2.7547,-2.7494,-2.8053,-2.937,-2.9407,-2.9407,-2.9407,-2.9262,-2.8943,-2.8504,-2.8646,-2.8882,-2.921,-3.0501,-3.1283,-3.1636,-3.3077,-3.3643,-3.3522,-3.3522,-3.3437,-3.3243,-3.2921,-3.2702,-3.2573,-3.2573,-3.2539,-3.2454,-3.6157,-3.6005,-3.5947,-3.6339,-3.6289,-3.6482,-3.7368,-3.7497,-3.775,-3.8486,-3.8564,-3.8526,-3.8403,-3.7722,-3.7267,-3.7189,-3.6493,-3.6023,-3.5958,-3.5958,-3.5932,-3.5873,-3.5895,-3.5896,-3.5896,-3.5917,-3.5917,-3.5917,-3.5898,-3.5896,-3.5901,-3.6025,-3.6094,-3.6084,-3.6156,-3.6604,-3.7294,-3.7294,-3.7722,-3.8393,-3.833,-3.831,-3.8286,-3.8112,-3.7927,-3.7794,-3.7728,-3.7521,-3.7268,-3.7268,-3.6742,-3.6066,-3.5935,-3.5189,-3.434,-3.421,-3.4074,-3.3998,-3.4124,-3.4173,-3.4148,-3.3921,-3.4023,-3.4148,-3.3921,-3.4049,-3.416,-3.403,-3.338,-3.2562,-3.1764,-3.0968,-3.0039,-2.8849,-2.7306,-2.6823,-2.844,0.0,-2.7046,-2.9147,-2.9407,-2.9407,-2.9407,-2.9431,-2.9433,-2.945,-2.9451,-2.9433,-2.945,-2.9427,-2.9407,-2.9407,-2.9407,-2.9407,-2.9407,-2.9407,-2.9138,-2.8628,-2.892,-2.8897,-2.8682,-3.0613,-3.1297,-3.1164,-3.3284,-3.4074,-3.3842,-3.3842,-3.386,-3.3734,-3.3166,-3.2921,-3.2858,-3.2858,-3.2844,-3.2813,-3.695,-3.6972,-3.7141,-3.8034,-3.8085,-3.8084,-3.8363,-3.8394,-3.8404,-3.8438,-3.8427,-3.8403,-3.8322,-3.8197,-3.811,-3.8092,-3.7319,-3.6526,-3.5791,-3.5753,-3.5741,-3.5735,-3.583,-3.5895,-3.5895,-3.5968,-3.5979,-3.5979,-3.5935,-3.5898,-3.5917,-3.6645,-3.6965,-3.6941,-3.7675,-3.8065,-3.8188,-3.8188,-3.8285,-3.846,-3.9051,-3.9278,-3.9344,-3.9851,-3.99,-3.9661,-3.9602,-3.8956,-3.8112,-3.8112,-3.7587,-3.6798,-3.6104,-3.5781,-3.5473,-3.4656,-3.4386,-3.4269,-3.4023,-3.4074,-3.4197,-3.4148,-3.4173,-3.4197,-3.4148,-3.4173,-3.4011,-3.3324,-3.2544,-3.1727,-3.0931,-3.0132,-2.8645,-2.5726,-2.7269,-2.7994,-2.5596,0.0,-2.8979,-2.9351,-2.9407,-2.9407,-2.9407,-2.9512,-2.9589,-2.9645,-2.9589,-2.9589,-2.9645,-2.9491,-2.9407,-2.9407,-2.9407,-2.9407,-2.9407,-2.9407,-2.9347,-2.9265,-2.9304,-2.9304,-2.932,-3.0973,-3.1714,-3.1765,-3.3467,-3.4173,-3.4148,-3.4148,-3.3998,-3.3788,-3.368,-3.3465,-3.3214,-3.3214,-3.3184,-3.3124,-3.7926,-3.7942,-3.8044,-3.8517,-3.8547,-3.8667,-3.9178,-3.9217,-3.9346,-3.9747,-3.9746,-3.9663,-3.9605,-3.9157,-3.8883,-3.8832,-3.804,-3.7363,-3.6977,-3.6164,-3.5693,-3.5693,-3.5833,-3.6138,-3.6633,-3.7139,-3.7399,-3.7399,-3.7372,-3.7356,-3.7358,-3.7734,-3.7878,-3.7862,-3.8244,-3.8663,-3.9101,-3.9101,-3.9353,-3.9781,-4.0111,-4.0257,-4.0275,-4.0558,-4.0526,-4.0296,-4.012,-3.9754,-3.9307,-3.9195,-3.8603,-3.7848,-3.747,-3.6685,-3.5822,-3.5387,-3.4847,-3.434,-3.4124,-3.4148,-3.4245,-3.4221,-3.4197,-3.4086,-3.364,-3.3547,-3.3324,-3.2507,-3.1708,-3.1021,-3.0671,-2.9946,-2.8905,-2.7399,-2.7288,-2.7344,-2.7158,-2.7288,-2.7901,-2.924,-2.9407,-2.9407,-2.9407,-2.9531,-2.957,-2.9531,-2.9589,-2.957,-2.9531,-2.945,-2.9407,-2.9407,-2.9407,-2.9407,-2.9407,-2.9407,-2.9407,-2.9407,-2.9407,-2.963,-3.0095,-3.1244,-3.2024,-3.2507,-3.3677,-3.4197,-3.4197,-3.4197,-3.4124,-3.3998,-3.386,-3.3707,-3.355,-3.355,-3.355,-3.3522,-3.8843,-3.8882,-3.8941,-3.9159,-3.9169,-3.9376,-3.9981,-4.0017,-4.0181,-4.0848,-4.0839,-4.0749,-4.0668,-4.0056,-3.9637,-3.958,-3.8796,-3.8296,-3.8296,-3.7007,-3.6232,-3.6232,-3.6382,-3.6821,-3.7594,-3.8258,-3.8593,-3.8593,-3.8593,-3.8593,-3.8593,-3.8744,-3.8808,-3.8815,-3.8935,-3.9384,-4.0002,-3.9984,-4.0344,-4.0907,-4.0907,-4.0907,-4.0878,-4.0846,-4.0694,-4.0496,-4.0264,-4.0195,-4.0177,-4.002,-3.9521,-3.8933,-3.8724,-3.7597,-3.6257,-3.6045,-3.5237,-3.4427,-3.4269,-3.4269,-3.4293,-3.4245,-3.4221,-3.3974,-3.3199,-3.3013,-3.2711,-3.1727,-3.1043,-3.0541,-3.0373,-2.9834,-2.9147,-2.8384,0.0,-2.6972,-2.8146,-2.7288,-2.7288,-2.9226,-2.9409,-2.9407,-2.9407,-2.9531,-2.957,-2.9451,-2.9589,-2.9589,-2.9451,-2.945,-2.9429,-2.9407,-2.9407,-2.9407,-2.9407,-2.9407,-2.9407,-2.9407,-2.9407,-2.9834,-3.0634,-3.1429,-3.2228,-3.3027,-3.3844,-3.4197,-3.4197,-3.4197,-3.4197,-3.4173,-3.3972,-3.3895,-3.3895,-3.3895,-3.3895,-3.3895,-3.9566,-3.9702,-3.9976,-4.0776,-4.0862,-4.0844,-4.0902,-4.0801,-4.0733,-4.0723,-4.0718,-4.0655,-4.0534,-4.0462,-4.0408,-4.0408,-3.9662,-3.92,-3.92,-3.833,-3.7824,-3.7824,-3.8014,-3.8234,-3.8492,-3.8573,-3.8593,-3.8593,-3.8593,-3.8593,-3.8612,-3.9354,-3.9699,-3.9746,-4.0474,-4.0847,-4.0903,-4.0846,-4.0849,-4.0907,-4.0907,-4.0907,-4.0907,-4.0888,-4.0773,-4.059,-4.0492,-4.0348,-4.0193,-4.0177,-4.0139,-3.9929,-3.9127,-3.8229,-3.7297,-3.6426,-3.5411,-3.4561,-3.4409,-3.434,-3.4316,-3.4363,-3.4293,-3.4017,-3.3245,-3.3036,-3.2544,-3.1002,-3.0652,-3.0373,-2.963,-2.9444,-2.8403,-2.5355,0.0,0.0,-2.544,-2.7401,-2.9226,-2.9551,-2.9471,-2.9407,-2.9407,-2.9531,-2.9608,-2.9589,-2.9769,-2.9803,-2.9589,-2.9589,-2.9513,-2.9407,-2.9407,-2.9407,-2.9407,-2.9407,-2.9407,-2.9407,-2.9407,-2.9834,-3.0634,-3.1429,-3.2228,-3.3027,-3.3844,-3.4197,-3.4197,-3.4197,-3.4197,-3.4197,-3.4173,-3.4173,-3.4173,-3.4173,-3.4173,-3.4173,-4.0516,-4.0563,-4.0667,-4.1026,-4.1008,-4.0942,-4.0942,-4.0742,-4.0616,-4.0649,-4.0607,-4.0554,-4.0523,-4.0489,-4.0489,-4.0489,-4.0219,-4.0027,-4.0027,-3.9719,-3.9109,-3.8112,-3.8732,-3.9159,-3.9273,-3.9848,-4.0151,-4.0151,-4.0151,-4.0151,-4.0151,-4.0464,-4.0615,-4.0625,-4.0936,-4.103,-4.1007,-4.096,-4.0941,-4.0907,-4.0907,-4.0907,-4.0907,-4.0898,-4.0858,-4.0761,-4.0623,-4.0568,-4.054,-4.0434,-4.0406,-4.0315,-4.0005,-3.9212,-3.8134,-3.6635,-3.5532,-3.4751,-3.4583,-3.4473,-3.4427,-3.4386,-3.4316,-3.4064,-3.3314,-3.2732,-3.1998,-3.0905,-3.0271,-2.9824,-2.9467,-2.939,-2.8981,-2.7734,0.0,-2.912,-2.7899,-2.8872,-2.9735,-2.9786,-2.9734,-2.9717,-2.9717,-2.9834,-2.9883,-2.9784,-2.9931,-2.9899,-2.9626,-2.9531,-2.9451,-2.9407,-2.9407,-2.9407,-2.9407,-2.9407,-2.9407,-2.9407,-2.9909,-3.0578,-3.1355,-3.2172,-3.2971,-3.3751,-3.4067,-3.4197,-3.4197,-3.4197,-3.4197,-3.4197,-3.4197,-3.4197,-3.4197,-3.4197,-3.4197,-3.4197,-4.0972,-4.1011,-4.1,-4.1003,-4.0922,-4.0843,-4.0818,-4.0597,-4.0492,-4.0559,-4.0543,-4.0499,-4.0511,-4.0492,-4.0492,-4.0476,-4.0492,-4.0492,-4.0492,-4.0508,-4.0044,-3.8948,-3.9606,-4.0018,-4.0111,-4.0758,-4.1108,-4.1108,-4.1108,-4.1108,-4.1108,-4.1108,-4.1099,-4.1091,-4.1094,-4.1068,-4.1027,-4.1008,-4.0968,-4.0932,-4.0932,-4.0915,-4.0907,-4.0907,-4.0898,-4.0888,-4.073,-4.0718,-4.0781,-4.0648,-4.0593,-4.0583,-4.0583,-3.9861,-3.8659,-3.6894,-3.5891,-3.5268,-3.4807,-3.4668,-3.4604,-3.4495,-3.4404,-3.4134,-3.3399,-3.2761,-3.2008,-3.091,-3.0318,-2.9869,-2.949,-2.9532,-2.957,-2.9511,-2.9608,-2.9732,-2.9748,-2.9834,-2.9934,-2.9965,-2.9934,-2.9902,-2.9902,-3.0022,-3.0066,-2.9996,-3.0128,-3.0066,-2.9765,-2.9589,-2.9471,-2.9451,-2.945,-2.9429,-2.9409,-2.9407,-2.9537,-2.9779,-3.0355,-3.1154,-3.2191,-3.2748,-3.3436,-3.4197,-3.4197,-3.4197,-3.4197,-3.4197,-3.4197,-3.4197,-3.4197,-3.4197,-3.4197,-3.4197,-3.4197,-3.4197,-4.081,-4.0918,-4.0948,-4.0829,-4.0811,-4.0759,-4.0617,-4.0489,-4.0432,-4.0502,-4.0502,-4.0502,-4.0502,-4.0502,-4.0466,-4.0415,-4.0449,-4.0502,-4.0502,-4.0511,-4.0564,-4.0694,-4.0751,-4.0855,-4.1007,-4.107,-4.1108,-4.1108,-4.1108,-4.1108,-4.1108,-4.1108,-4.1108,-4.1091,-4.1091,-4.1094,-4.1094,-4.1023,-4.1007,-4.0994,-4.0994,-4.0964,-4.0907,-4.0907,-4.0907,-4.0878,-4.0828,-4.0807,-4.0796,-4.0796,-4.079,-4.079,-4.079,-4.0075,-3.8869,-3.7194,-3.6573,-3.6167,-3.5154,-3.4889,-3.4851,-3.4647,-3.4495,-3.4203,-3.3484,-3.3256,-3.2745,-3.1061,-3.0866,-3.0696,-2.97,-2.9786,-2.9931,-2.9734,-2.9867,-3.0022,-3.0095,-2.9988,-2.9958,-3.0095,-2.9977,-2.9902,-2.9902,-3.0022,-3.0122,-3.0215,-3.0311,-3.0311,-3.0122,-2.9851,-2.9662,-2.9608,-2.9532,-2.9472,-2.9412,-2.9409,-2.9816,-3.0615,-3.0615,-3.1452,-3.299,-3.3008,-3.3436,-3.4197,-3.4197,-3.4197,-3.4197,-3.4197,-3.4197,-3.4197,-3.4197,-3.4197,-3.4197,-3.4197,-3.4197,-3.4197,-4.0699,-4.0699,-4.0657,-4.0731,-4.066,-4.0577,-4.0554,-4.0427,-4.0346,-4.0362,-4.0362,-4.0379,-4.0432,-4.0432,-4.0415,-4.0415,-4.0415,-4.0449,-4.0502,-4.0511,-4.0519,-4.0564,-4.0707,-4.082,-4.0855,-4.1013,-4.1108,-4.1108,-4.1108,-4.1108,-4.1108,-4.1108,-4.1108,-4.1111,-4.1099,-4.1108,-4.1094,-4.1073,-4.1033,-4.0994,-4.0994,-4.0964,-4.0907,-4.0907,-4.0907,-4.0907,-4.0888,-4.0837,-4.0807,-4.08,-4.0796,-4.079,-4.079,-4.0147,-3.9161,-3.7916,-3.7108,-3.6381,-3.5329,-3.5049,-3.498,-3.467,-3.4539,-3.4464,-3.443,-3.3903,-3.3337,-3.3026,-3.2067,-3.1172,-3.0823,-3.0338,-2.9988,-2.9915,-3.0052,-3.0163,-3.0177,-3.026,-3.0328,-3.0383,-3.0348,-3.0316,-3.0316,-3.0359,-3.0394,-3.0414,-3.0316,-3.0228,-3.0157,-3.0007,-2.9899,-2.9883,-2.9732,-2.9697,-2.9817,-2.9681,-2.9981,-3.0677,-3.1341,-3.2123,-3.3008,-3.3566,-3.3956,-3.4197,-3.4197,-3.4197,-3.4197,-3.4197,-3.4197,-3.4197,-3.4197,-3.4197,-3.4197,-3.4197,-3.4197,-3.4197,-4.0563,-4.0538,-4.0524,-4.0571,-4.0535,-4.0481,-4.0419,-4.0362,-4.031,-4.0307,-4.0307,-4.0325,-4.0362,-4.0362,-4.0362,-4.0345,-4.0344,-4.0379,-4.0449,-4.0479,-4.0511,-4.0511,-4.0674,-4.0771,-4.081,-4.098,-4.1074,-4.1108,-4.1108,-4.1108,-4.1108,-4.1108,-4.1108,-4.1108,-4.1108,-4.1099,-4.111,-4.111,-4.1073,-4.1035,-4.1035,-4.1008,-4.0948,-4.0937,-4.0941,-4.0932,-4.0908,-4.0877,-4.0837,-4.0831,-4.0866,-4.0868,-4.0848,-4.0493,-3.985,-3.8826,-3.7932,-3.7076,-3.6017,-3.5477,-3.5146,-3.487,-3.4754,-3.4774,-3.4925,-3.4545,-3.4086,-3.3929,-3.313,-3.234,-3.1923,-3.123,-3.0695,-3.0652,-3.0471,-3.0364,-3.0321,-3.0428,-3.049,-3.0509,-3.0499,-3.0499,-3.0499,-3.0499,-3.0499,-3.0499,-3.0386,-3.0321,-3.0309,-3.0177,-3.0109,-3.008,-2.9943,-3.0064,-3.0513,-3.0472,-3.0762,-3.1392,-3.2317,-3.3066,-3.3654,-3.4157,-3.4293,-3.4197,-3.4197,-3.4197,-3.4197,-3.4197,-3.4197,-3.4197,-3.4197,-3.4197,-3.4197,-3.4197,-3.4197,-3.4197,-4.0381,-4.0419,-4.0427,-4.036,-4.0425,-4.0403,-4.0288,-4.0234,-4.0234,-4.0271,-4.0233,-4.0233,-4.0233,-4.0252,-4.0252,-4.0272,-4.029,-4.0325,-4.0398,-4.0449,-4.0502,-4.0502,-4.0626,-4.0723,-4.081,-4.0933,-4.1022,-4.1108,-4.1108,-4.1108,-4.1108,-4.1108,-4.1108,-4.1108,-4.1108,-4.1108,-4.1108,-4.1108,-4.1103,-4.1094,-4.1094,-4.1051,-4.1007,-4.1003,-4.1,-4.0987,-4.0935,-4.0908,-4.0907,-4.0912,-4.0936,-4.0982,-4.0924,-4.0892,-4.0725,-3.9765,-3.8934,-3.8078,-3.7018,-3.6131,-3.5455,-3.5212,-3.5146,-3.5146,-3.513,-3.513,-3.4917,-3.4221,-3.4112,-3.3865,-3.3006,-3.2331,-3.1873,-3.1737,-3.1155,-3.0695,-3.0616,-3.0549,-3.051,-3.0509,-3.0509,-3.0509,-3.0509,-3.0509,-3.0509,-3.0509,-3.051,-3.051,-3.0509,-3.0394,-3.0336,-3.0337,-3.0259,-3.0619,-3.1441,-3.1705,-3.2058,-3.2533,-3.3346,-3.4036,-3.4645,-3.4623,-3.4473,-3.4221,-3.4221,-3.4197,-3.4197,-3.4221,-3.4245,-3.4245,-3.4269,-3.4245,-3.4245,-3.4245,-3.4221,-3.4197,-4.0234,-4.0158,-4.0021,-4.0019,-4.002,-4.002,-3.9979,-3.9807,-3.9739,-3.9977,-3.9788,-3.9675,-3.9675,-3.9873,-3.9977,-3.9996,-4.0177,-4.0307,-4.0325,-4.0379,-4.0449,-4.0502,-4.0531,-4.0615,-4.0801,-4.0933,-4.1022,-4.1108,-4.1108,-4.1108,-4.1108,-4.1108,-4.1108,-4.1108,-4.1108,-4.1108,-4.1108,-4.1108,-4.1103,-4.1094,-4.1094,-4.1051,-4.0991,-4.1003,-4.1,-4.0996,-4.0974,-4.0935,-4.091,-4.0895,-4.0907,-4.0941,-4.0976,-4.0946,-4.0732,-3.983,-3.9417,-3.8876,-3.7293,-3.6733,-3.6412,-3.5751,-3.5565,-3.5521,-3.5378,-3.5331,-3.532,-3.5302,-3.4778,-3.4268,-3.4071,-3.3371,-3.2812,-3.278,-3.2086,-3.1536,-3.1526,-3.0975,-3.0588,-3.0579,-3.0579,-3.0579,-3.0579,-3.0579,-3.0579,-3.0579,-3.0588,-3.0588,-3.0579,-3.055,-3.0819,-3.1437,-3.1338,-3.173,-3.2698,-3.3269,-3.3542,-3.3494,-3.3745,-3.4196,-3.4831,-3.4668,-3.4561,-3.4495,-3.4293,-3.4197,-3.4221,-3.4427,-3.4517,-3.4539,-3.4691,-3.4649,-3.4517,-3.4517,-3.4363,-3.429,-3.987,-3.9804,-3.9717,-3.9717,-3.9717,-3.9717,-3.9717,-3.9599,-3.9532,-3.9693,-3.9599,-3.9502,-3.9502,-3.9623,-3.9717,-3.9717,-3.9958,-4.0119,-4.0119,-4.0271,-4.0379,-4.0449,-4.0466,-4.0593,-4.0801,-4.0874,-4.0974,-4.1108,-4.1108,-4.1108,-4.1108,-4.1108,-4.1108,-4.1108,-4.1108,-4.1108,-4.1108,-4.1108,-4.1099,-4.1108,-4.1108,-4.1073,-4.1054,-4.1051,-4.1048,-4.1047,-4.101,-4.0998,-4.0994,-4.1007,-4.0989,-4.1007,-4.0994,-4.0986,-4.0858,-4.0362,-3.9901,-3.9262,-3.7889,-3.7232,-3.6709,-3.5897,-3.5704,-3.5673,-3.5565,-3.5534,-3.5577,-3.5673,-3.5336,-3.5007,-3.5007,-3.4311,-3.3712,-3.3712,-3.2996,-3.2406,-3.2406,-3.2068,-3.1642,-3.1217,-3.1178,-3.1023,-3.0636,-3.0598,-3.0598,-3.0598,-3.0598,-3.0772,-3.1159,-3.1178,-3.1565,-3.2386,-3.2345,-3.277,-3.3712,-3.4071,-3.4379,-3.4659,-3.4669,-3.481,-3.5037,-3.4926,-3.4791,-3.4602,-3.4564,-3.4498,-3.4427,-3.4647,-3.4751,-3.4751,-3.487,-3.485,-3.473,-3.4645,-3.4427,-3.4309,-3.9458,-3.9433,-3.9408,-3.9427,-3.9408,-3.9408,-3.9408,-3.9357,-3.9357,-3.9408,-3.9383,-3.9376,-3.9376,-3.9383,-3.9433,-3.9502,-3.9717,-3.9829,-3.9829,-4.004,-4.0215,-4.0344,-4.0379,-4.053,-4.0781,-4.0781,-4.0901,-4.1108,-4.1108,-4.1108,-4.1108,-4.1108,-4.1108,-4.1108,-4.1108,-4.1108,-4.1108,-4.1108,-4.1108,-4.1108,-4.1108,-4.1108,-4.1091,-4.109,-4.1093,-4.1093,-4.105,-4.1055,-4.1101,-4.1105,-4.1094,-4.109,-4.1023,-4.1,-4.0989,-4.0927,-4.0386,-3.9615,-3.8682,-3.7793,-3.6922,-3.611,-3.58,-3.5704,-3.5704,-3.5704,-3.5704,-3.5704,-3.5704,-3.5704,-3.5704,-3.5104,-3.4621,-3.4621,-3.3886,-3.3325,-3.3325,-3.3179,-3.2831,-3.2106,-3.2029,-3.1758,-3.1101,-3.1023,-3.1023,-3.1023,-3.1023,-3.1313,-3.199,-3.2029,-3.2416,-3.3286,-3.3325,-3.375,-3.4601,-3.4601,-3.4936,-3.5591,-3.5528,-3.5402,-3.5242,-3.5226,-3.5001,-3.4647,-3.4831,-3.4791,-3.4623,-3.4851,-3.4964,-3.4945,-3.5001,-3.4964,-3.487,-3.4626,-3.4386,-3.4327,-3.9223,-3.9144,-3.9027,-3.9137,-3.9045,-3.898,-3.898,-3.8789,-3.8718,-3.8952,-3.8884,-3.881,-3.881,-3.9036,-3.9245,-3.9477,-3.9532,-3.9532,-3.9532,-3.958,-3.9724,-4.0042,-4.0062,-4.0264,-4.0699,-4.0761,-4.0901,-4.1108,-4.1108,-4.1108,-4.1108,-4.1108,-4.1108,-4.1108,-4.1108,-4.1108,-4.1108,-4.1108,-4.1108,-4.1108,-4.1108,-4.1108,-4.1111,-4.1094,-4.1094,-4.1097,-4.1099,-4.1082,-4.1107,-4.1093,-4.1093,-4.1094,-4.1082,-4.1055,-4.0994,-4.0989,-4.0824,-4.0471,-3.9635,-3.8728,-3.7831,-3.6961,-3.6207,-3.5704,-3.5704,-3.5704,-3.5704,-3.5704,-3.5704,-3.5704,-3.5704,-3.5607,-3.551,-3.551,-3.4795,-3.4214,-3.4214,-3.3576,-3.3063,-3.2928,-3.2908,-3.287,-3.2773,-3.2754,-3.2754,-3.2754,-3.2754,-3.2812,-3.2908,-3.2908,-3.3325,-3.4195,-3.4214,-3.464,-3.551,-3.5469,-3.5492,-3.5591,-3.5528,-3.5495,-3.5446,-3.5273,-3.5072,-3.487,-3.4889,-3.4791,-3.4626,-3.5,-3.5157,-3.5193,-3.5354,-3.5209,-3.4851,-3.4413,-3.4221,-3.442,-3.8651,-3.8542,-3.8418,-3.8676,-3.8688,-3.867,-3.8628,-3.8523,-3.8491,-3.8628,-3.8572,-3.8546,-3.859,-3.8762,-3.8921,-3.9045,-3.9192,-3.9272,-3.9272,-3.9427,-3.9632,-3.9922,-3.9943,-4.0156,-4.0636,-4.066,-4.0762,-4.0922,-4.1046,-4.1108,-4.1108,-4.1108,-4.1108,-4.1108,-4.1108,-4.1108,-4.1108,-4.1108,-4.1108,-4.1108,-4.1108,-4.1108,-4.1108,-4.1108,-4.1108,-4.1108,-4.1108,-4.1108,-4.1091,-4.1107,-4.1103,-4.1108,-4.1108,-4.1084,-4.1054,-4.1019,-4.0953,-4.0739,-3.9885,-3.9326,-3.8656,-3.7304,-3.6663,-3.6245,-3.58,-3.5704,-3.5704,-3.5704,-3.5704,-3.5704,-3.5704,-3.5704,-3.5704,-3.5704,-3.5375,-3.5123,-3.5123,-3.4795,-3.4369,-3.3886,-3.3402,-3.3102,-3.3102,-3.3102,-3.3102,-3.3102,-3.3102,-3.3305,-3.3808,-3.3828,-3.4234,-3.5104,-3.5123,-3.5298,-3.5704,-3.5673,-3.5639,-3.5591,-3.556,-3.5541,-3.5493,-3.5417,-3.5258,-3.5072,-3.5193,-3.5124,-3.4964,-3.5242,-3.5369,-3.5388,-3.5479,-3.5258,-3.487,-3.4651,-3.4413,-3.4439]}]]